GFSMW_con_3kmhel_000.txt.gz
Helicity
148 149 166 164 175 185 211 262 381 382 380 310 333 297 234 222 229 239 223 195 165 142 120 93 86 74 64 31 22 25 46 51 39 25 53 66 84 125 80 83 83 90 124
201 195 179 184 157 160 201 279 361 328 299 285 244 228 189 192 216 209 206 171 151 121 102 89 71 62 41 49 48 40 32 30 31 7 9 40 63 105 59 69 57 89 39
215 208 203 178 179 171 181 216 238 245 230 248 265 258 249 231 202 184 174 146 128 115 92 72 50 44 34 34 25 36 37 31 36 65 44 35 58 50 42 37 62 48 84
269 249 244 217 191 153 166 190 192 193 185 187 194 178 147 142 103 124 126 137 126 102 76 57 41 34 21 33 26 42 41 45 57 50 106 104 117 86 71 94 47 86 73
304 308 276 260 232 190 185 178 186 166 143 152 148 125 131 125 131 144 151 138 116 90 65 46 32 28 26 29 49 71 92 70 72 78 79 91 114 117 152 119 124 104 109
367 362 340 335 299 229 219 205 213 164 129 133 108 117 148 158 170 142 138 112 92 78 63 48 39 35 39 49 62 79 99 98 99 98 106 108 109 109 123 140 149 157 176
398 399 358 342 325 257 245 220 203 157 140 147 141 150 160 165 174 143 128 113 85 67 60 56 51 46 55 72 85 96 106 96 91 89 95 111 133 165 197 206 165 181 220
424 409 375 357 354 291 269 240 230 221 199 192 187 191 199 206 199 180 162 132 102 82 75 69 69 83 92 97 101 95 92 87 89 87 100 121 143 182 216 241 236 215 249
402 383 389 359 348 276 242 242 246 245 227 226 230 229 235 251 240 226 196 159 134 120 119 109 105 106 107 104 103 97 92 92 90 91 99 128 147 171 176 212 252 305 327
401 365 318 302 276 243 239 230 219 220 216 231 234 237 255 263 252 231 206 182 165 151 142 124 116 108 109 116 112 108 101 98 104 101 126 141 148 174 175 199 230 259 303
367 308 262 235 261 261 229 214 216 229 234 237 250 269 267 264 250 231 211 192 170 157 135 120 119 117 131 127 123 113 95 102 108 120 145 158 158 157 168 187 217 249 262
305 269 247 260 221 212 218 201 208 229 221 234 257 266 264 251 247 236 216 183 176 152 134 122 122 135 139 126 119 108 101 109 133 150 163 150 143 145 165 198 208 215 228
261 242 238 195 180 204 214 215 216 228 232 250 263 259 248 244 240 233 207 195 178 143 128 133 148 149 139 122 112 104 111 128 151 152 151 147 151 158 164 181 213 215 182
224 210 199 176 184 201 214 229 243 240 249 254 251 242 229 233 233 226 212 193 158 135 145 159 153 142 124 106 95 113 131 150 150 155 165 162 161 157 161 171 198 190 178
183 191 201 184 197 224 246 258 261 252 248 252 234 223 231 237 240 230 202 172 145 150 159 164 152 130 109 95 115 132 142 149 169 178 178 180 180 154 149 177 187 152 158
186 189 190 196 207 237 250 252 248 245 229 221 217 225 239 241 227 206 181 160 172 173 171 160 127 110 105 114 142 153 165 172 178 187 210 230 157 137 110 118 97 93 138
222 243 234 226 243 222 196 202 209 208 216 218 217 225 223 214 200 183 178 178 172 170 157 129 112 113 121 128 154 168 173 172 174 193 209 200 184 144 151 96 42 67 67
254 276 282 269 225 208 206 219 208 206 204 203 204 204 197 199 187 175 167 163 163 150 137 119 109 110 115 143 169 163 166 166 178 193 183 174 153 133 93 94 110 126 163
281 275 254 242 240 223 213 215 200 189 190 185 191 197 193 179 157 159 170 165 155 137 118 103 100 119 119 126 144 149 159 153 153 156 151 133 130 80 27 83 122 94 83
307 319 283 258 239 215 211 200 177 180 190 189 193 173 152 148 156 163 175 137 123 100 102 107 116 105 125 103 116 135 144 149 157 154 151 74 72 44 67 100 87 96 59
320 288 257 223 186 172 192 203 191 192 181 172 154 148 150 160 158 155 134 115 106 102 106 106 111 107 101 109 85 111 153 156 152 160 142 129 47 74 55 59 101 80 -45
265 239 236 194 153 158 193 188 191 157 147 145 147 157 165 154 154 144 120 109 99 98 97 104 111 103 101 78 102 107 117 87 130 137 130 103 67 65 57 63 8 -16 10
183 171 178 170 156 161 170 175 127 129 137 149 171 169 156 152 140 121 104 101 103 105 114 116 119 106 109 142 96 88 77 103 119 125 100 76 67 69 70 -17 -13 17 45
150 137 160 170 164 143 132 132 121 130 150 172 159 148 148 132 110 97 99 101 106 120 121 125 119 118 125 135 141 127 122 99 110 75 111 80 75 53 -13 56 27 19 21
110 112 127 129 117 118 136 136 141 148 165 156 145 129 108 96 102 110 96 107 109 113 125 123 129 136 129 124 117 108 117 110 80 82 92 88 85 41 90 50 52 50 41
109 119 119 122 108 129 148 152 144 150 145 132 108 90 100 106 107 108 117 111 105 95 95 112 147 158 114 99 85 84 78 63 54 94 97 34 18 84 63 70 88 73 57

GFSMW_con_3kmhel_003.txt.gz
Helicity
58 94 134 159 161 177 233 325 376 359 423 386 346 280 255 240 250 228 217 215 182 157 139 108 94 69 55 33 35 31 54 39 36 21 56 73 100 114 140 57 92 65 110
88 132 143 176 177 180 226 334 398 458 437 285 232 227 222 227 239 230 244 208 172 142 119 88 73 68 49 56 51 45 32 30 31 9 21 53 68 119 37 99 89 91 60
117 173 164 190 206 190 253 320 383 424 338 268 312 332 291 276 251 235 216 181 157 134 109 90 63 49 37 40 34 32 34 31 38 55 38 50 78 67 42 76 97 55 51
163 235 224 209 190 201 247 256 273 283 236 234 253 236 209 198 153 159 161 166 154 134 110 84 51 36 25 40 29 37 27 29 46 55 105 90 99 105 88 78 74 39 50
167 210 197 206 204 220 217 206 205 211 210 218 235 242 221 165 175 183 184 177 154 133 104 76 56 46 32 32 50 56 70 64 75 79 81 86 96 91 132 106 68 45 50
172 251 279 269 254 225 219 202 200 196 205 214 216 208 188 189 188 159 172 143 132 120 109 93 74 58 51 56 63 72 86 95 109 107 103 93 88 95 89 115 115 112 110
217 309 316 274 258 248 232 218 208 193 190 185 159 148 160 171 161 145 144 139 134 120 113 100 81 62 63 76 89 95 110 109 116 109 102 100 100 111 120 129 123 131 144
184 282 328 320 291 288 250 244 228 224 182 163 129 136 158 168 164 160 161 162 160 153 136 113 101 97 98 105 115 114 116 111 114 106 98 95 108 127 145 155 146 123 157
179 269 375 336 330 310 269 252 264 251 200 174 169 168 185 209 207 210 210 204 203 177 148 137 127 119 127 137 135 121 123 120 113 102 95 108 115 125 139 161 180 205 235
246 354 394 381 365 325 293 296 254 228 228 227 213 211 219 233 241 237 237 235 219 193 177 162 154 156 151 148 145 133 130 123 119 109 113 122 134 134 137 156 163 188 234
310 368 369 360 368 351 310 297 280 286 273 253 255 260 253 254 256 262 255 244 227 221 200 177 174 162 156 160 151 144 127 130 113 118 120 122 128 149 147 134 152 190 229
256 335 341 356 367 329 281 268 271 280 254 251 268 263 254 256 263 262 258 245 242 226 198 194 183 171 167 152 152 143 128 114 115 116 128 133 153 140 128 150 171 212 237
290 330 305 300 305 283 246 234 236 244 242 255 266 258 249 247 252 257 253 251 248 229 216 203 185 174 159 149 143 127 112 112 118 124 139 140 137 154 169 182 210 202 189
243 260 271 279 267 240 224 223 238 233 236 248 248 241 229 233 247 253 263 261 240 229 216 196 180 169 148 135 120 112 110 114 127 146 153 153 182 201 195 187 176 195 191
185 205 230 232 230 215 220 235 236 228 223 239 235 228 227 242 256 270 269 247 237 220 204 189 171 160 141 118 118 112 114 129 145 140 152 178 188 185 180 190 185 164 179
156 191 205 211 198 202 214 222 211 207 214 227 222 213 232 251 267 264 246 244 240 219 189 180 174 154 121 92 116 141 151 147 133 147 159 183 168 154 114 108 67 88 131
146 172 188 191 205 216 215 192 189 201 209 208 205 225 240 252 247 243 251 247 213 191 198 184 142 124 109 93 125 144 153 130 138 162 178 184 157 122 162 91 59 79 107
171 202 229 250 226 214 198 198 182 186 193 214 232 235 231 230 235 244 235 204 196 197 178 141 121 112 105 118 123 111 146 149 159 169 167 154 137 134 85 110 150 121 103
191 237 243 251 247 226 212 213 200 209 226 228 224 210 210 228 224 216 214 208 185 157 131 121 108 107 109 106 105 135 160 175 157 168 160 122 101 70 52 128 116 116 116
195 238 250 283 286 244 243 244 219 226 224 195 197 219 219 204 206 214 215 164 136 127 123 106 108 101 114 98 114 136 160 169 160 150 134 77 89 51 72 99 112 110 88
244 261 289 295 262 249 246 237 217 204 187 210 214 207 207 213 214 189 153 142 130 117 113 115 101 103 112 124 112 122 154 162 167 153 137 127 61 62 58 55 104 88 74
285 288 334 289 236 224 237 214 206 182 196 202 209 220 224 198 175 169 141 123 113 113 107 99 109 119 120 97 99 126 145 133 166 136 124 119 59 62 61 66 43 39 45
274 256 275 258 208 181 183 200 169 186 199 215 222 208 190 178 152 135 121 111 112 102 101 106 122 125 109 119 89 118 104 111 111 131 92 92 72 69 61 45 37 29 77
201 196 217 210 197 182 193 191 176 184 199 209 196 175 158 145 129 114 100 94 94 106 105 118 129 128 117 128 151 141 139 93 109 93 131 84 83 55 56 76 72 83 77
163 153 159 172 176 177 193 180 180 186 204 184 162 153 137 122 107 100 86 95 91 98 120 127 126 130 135 123 119 129 128 105 95 99 102 96 82 88 86 77 76 80 74
125 159 164 176 158 173 195 192 177 170 169 166 143 122 113 105 98 98 106 90 99 107 107 101 116 141 126 124 115 93 84 68 68 104 96 80 87 80 77 81 76 99 78

GFSMW_con_3kmhel_006.txt.gz
Helicity
68 15 61 97 122 141 158 222 299 362 440 405 351 321 278 277 290 280 245 211 181 158 134 108 88 67 34 6 16 11 37 14 26 15 70 73 85 96 124 115 69 109 76
24 8 41 87 144 135 173 238 304 392 431 393 282 254 243 258 276 249 228 190 178 144 134 109 77 38 7 29 32 33 11 3 -5 -11 -6 40 72 142 91 92 113 80 80
52 30 69 108 143 116 187 252 329 405 420 361 362 344 311 310 271 225 224 191 165 160 136 102 61 45 21 8 8 10 20 14 5 20 -1 8 45 65 88 130 106 86 71
111 88 125 142 118 161 201 249 326 401 341 279 277 264 238 217 166 188 178 171 164 154 127 94 77 53 16 25 13 16 9 4 20 23 67 74 89 66 67 91 105 63 54
98 145 168 160 188 182 214 231 289 289 249 213 223 230 212 215 239 199 188 175 169 148 123 112 90 64 38 33 41 41 43 28 30 37 53 84 110 133 162 145 108 59 38
99 129 171 248 217 186 198 210 228 190 189 191 191 202 234 229 219 172 172 162 153 144 143 127 105 86 72 63 50 52 62 67 76 74 81 91 98 108 105 129 98 61 30
130 158 212 200 204 180 198 194 180 173 160 188 215 203 252 226 188 153 157 151 141 139 136 130 137 114 99 88 78 77 79 83 93 103 116 121 112 109 116 114 86 76 53
104 143 154 191 230 232 208 197 167 194 176 191 208 223 234 206 184 153 156 159 156 148 146 170 167 150 128 108 97 86 90 104 119 116 114 113 100 129 136 130 98 60 88
93 108 154 210 254 274 213 228 214 222 189 189 211 213 193 197 189 189 189 183 179 179 202 201 190 172 147 134 119 109 112 117 121 115 110 118 122 142 145 159 163 162 159
136 166 205 267 300 288 291 252 224 222 206 218 224 216 206 220 225 225 218 213 220 224 225 217 206 181 163 154 138 122 121 130 127 116 112 128 157 161 180 182 182 202 208
142 188 214 283 335 318 272 271 277 285 268 247 256 256 255 258 256 250 234 238 241 235 237 222 207 200 183 157 141 137 126 137 122 115 131 139 158 188 183 201 203 187 188
203 242 279 330 323 301 281 275 300 320 288 261 269 275 272 269 270 261 256 245 251 253 242 231 225 199 168 151 149 141 131 123 124 129 142 144 147 170 196 204 176 183 204
213 252 280 327 307 302 294 293 310 326 303 287 278 270 262 267 271 265 253 263 262 260 258 243 223 186 162 149 134 130 123 121 127 130 140 138 158 169 169 165 193 199 198
136 165 212 223 247 269 286 311 322 285 273 265 254 253 251 257 254 250 262 266 265 265 252 234 194 165 145 136 130 125 123 133 139 134 140 150 147 126 122 150 172 195 199
105 114 127 202 252 284 285 276 256 241 234 243 243 244 249 250 256 271 272 270 270 258 240 205 173 161 147 127 109 114 137 144 130 131 134 119 85 77 146 190 185 162 159
49 77 138 194 209 232 245 248 231 219 213 218 230 234 245 257 273 276 267 262 265 244 203 181 174 161 125 86 97 119 144 144 136 134 116 117 97 141 128 107 78 106 121
31 59 114 165 192 210 216 200 182 190 210 222 220 227 248 273 272 257 252 255 235 197 183 174 148 127 104 92 105 106 146 152 133 113 125 153 163 147 160 122 115 139 76
57 92 162 203 207 211 206 205 185 191 205 217 231 237 249 256 247 249 244 217 185 176 158 140 126 117 109 107 96 98 151 141 122 123 153 165 159 135 96 114 122 103 104
116 142 154 184 198 194 185 213 218 221 232 226 227 221 223 234 233 231 202 171 169 154 131 117 113 110 99 92 107 118 132 133 133 160 142 129 118 67 43 104 112 107 102
144 174 176 210 235 208 233 257 236 230 212 201 217 226 232 220 209 179 168 146 126 127 118 107 104 86 104 95 94 97 126 144 158 125 124 89 93 42 62 94 108 95 87
167 217 235 248 245 248 270 261 225 225 213 237 252 242 220 199 168 152 126 134 129 118 110 98 96 107 108 103 82 97 141 149 147 156 150 112 47 48 51 57 94 90 62
209 236 299 295 258 249 276 256 258 213 242 248 235 212 188 160 140 152 136 123 113 102 99 102 107 111 105 72 88 110 125 120 176 148 115 99 54 46 58 63 15 17 25
232 239 291 293 259 237 222 262 203 223 227 223 192 167 156 156 147 134 117 102 101 99 101 102 107 106 86 113 87 98 100 117 114 113 70 78 55 59 59 22 22 25 72
235 240 270 273 262 233 242 215 195 193 190 180 165 157 154 140 119 103 97 97 100 104 102 95 87 91 101 112 129 131 121 87 91 78 113 70 68 53 24 56 67 85 71
197 203 224 240 237 233 226 179 153 158 178 169 154 139 121 115 107 98 88 99 90 81 77 81 98 109 121 113 98 101 110 98 87 78 106 84 72 69 71 75 83 85 93
164 215 218 220 194 193 174 153 142 146 146 139 121 115 114 107 104 108 105 96 73 68 81 97 116 135 114 95 91 90 78 69 57 100 86 79 79 76 81 90 101 127 108

GFSMW_con_3kmhel_009.txt.gz
Helicity
128 142 128 114 83 110 119 113 167 218 344 388 388 343 324 311 296 300 268 230 188 172 155 129 102 87 79 58 37 3 18 25 29 31 59 58 74 86 86 87 127 133 132
77 106 110 100 83 95 131 133 152 223 305 367 354 332 321 309 314 308 283 237 193 177 149 113 90 75 52 39 37 25 -4 -9 -3 -15 -26 31 46 80 65 94 121 120 127
79 76 91 98 124 110 133 137 170 234 307 389 467 462 416 373 325 296 274 222 196 168 145 119 97 78 48 35 28 13 8 7 -4 11 -16 -13 30 65 67 92 119 113 91
97 99 89 109 117 117 150 128 176 243 318 336 353 330 265 255 228 235 220 227 180 167 149 127 104 81 57 41 16 -1 -3 -15 20 -4 25 19 31 3 4 37 89 83 81
104 90 102 114 139 150 172 155 185 234 273 291 295 309 307 238 286 265 255 208 188 169 146 126 107 98 73 53 32 18 15 6 -1 9 19 42 57 76 71 80 85 71 23
70 132 102 128 171 183 168 162 199 226 261 268 256 240 281 261 281 246 220 180 180 165 148 132 123 106 85 64 52 40 33 28 25 24 33 34 24 39 70 94 78 73 12
48 93 123 124 208 187 174 185 192 225 239 214 223 185 234 213 220 217 183 184 176 157 138 136 125 107 90 83 76 65 56 56 55 56 59 62 70 90 92 95 90 107 69
70 86 112 133 187 215 195 181 189 231 220 216 222 185 219 238 254 204 178 174 170 159 152 153 139 124 114 108 100 84 76 71 71 73 83 96 94 91 91 97 89 79 94
99 92 142 115 171 203 189 188 200 211 215 208 227 236 240 293 256 210 201 200 191 179 169 156 149 143 138 127 113 93 88 92 101 105 104 99 93 103 108 125 144 150 138
71 89 143 146 146 186 221 199 200 217 229 215 186 208 238 274 258 231 224 213 208 194 178 175 170 161 149 139 119 113 114 112 116 114 104 100 110 111 128 155 168 175 178
82 97 141 148 166 223 246 239 236 259 268 229 234 266 279 269 246 241 231 223 212 197 199 189 185 170 159 142 139 132 117 112 116 117 123 117 123 142 157 166 180 201 198
105 116 155 193 199 231 232 249 267 304 280 259 269 277 280 271 271 256 239 222 229 222 211 204 190 172 163 153 142 121 114 125 130 125 129 129 149 150 155 171 169 174 157
143 121 158 157 185 229 270 270 298 324 314 307 295 278 269 267 263 256 245 240 235 232 222 205 190 175 157 147 125 110 119 124 120 125 126 130 138 141 151 153 152 143 147
153 119 123 158 191 244 265 281 329 320 310 319 290 265 238 243 250 255 248 244 239 230 216 202 175 162 148 123 113 111 110 120 120 128 128 132 129 129 130 127 98 117 148
151 104 113 196 261 279 284 297 306 303 307 309 279 248 235 246 257 257 257 260 251 229 202 174 163 150 128 120 113 109 116 122 132 132 127 128 121 96 101 136 140 138 149
126 90 106 158 212 231 252 274 284 309 286 274 257 239 240 246 254 260 262 257 229 202 176 167 154 143 129 110 107 114 132 138 141 126 119 137 122 109 73 90 81 97 142
109 59 38 95 143 181 212 245 261 254 262 255 227 228 236 251 251 245 239 217 196 164 159 152 144 133 113 103 111 113 136 141 129 128 128 128 131 104 120 101 83 101 78
26 23 61 127 154 182 212 242 237 243 241 235 229 222 233 237 230 222 203 179 157 155 148 144 124 121 112 106 117 115 130 126 129 124 123 121 111 102 90 106 122 106 86
33 61 77 121 153 180 201 235 233 233 231 212 202 201 211 208 186 182 167 153 147 143 136 121 128 118 106 112 109 116 125 123 128 129 101 96 92 79 47 114 105 90 83
67 95 110 157 191 173 208 251 226 215 211 204 209 193 171 167 168 153 148 130 128 135 127 128 105 88 104 101 100 106 121 133 122 79 82 71 91 52 65 92 91 100 68
99 132 156 180 177 187 229 245 225 228 207 207 197 187 172 162 142 132 126 130 136 132 115 100 108 106 99 97 96 113 134 112 103 115 106 105 52 53 51 49 83 69 32
132 187 271 254 208 212 265 259 256 190 193 189 185 171 150 133 130 141 133 132 119 109 109 108 108 99 92 95 101 94 80 77 122 115 100 82 49 46 44 56 32 13 23
169 188 301 303 244 215 225 240 158 164 176 180 160 147 145 143 133 136 120 102 103 104 102 96 95 97 97 88 59 50 54 75 100 97 58 61 51 45 52 31 15 22 52
188 216 271 277 255 225 209 167 134 148 165 155 136 129 140 139 121 101 98 102 95 92 97 98 94 85 65 59 66 74 85 80 83 69 98 68 56 49 41 37 45 54 51
189 200 220 219 205 191 183 145 132 136 138 133 135 139 124 109 103 99 86 89 81 79 89 85 71 60 68 76 73 84 93 97 82 75 96 77 59 46 45 54 59 60 67
133 183 187 196 176 179 155 115 99 115 132 138 120 107 102 96 89 88 92 104 112 106 96 81 82 91 78 76 86 69 75 66 62 89 82 64 52 51 52 63 91 98 83

GFSMW_con_3kmhel_012.txt.gz
Helicity
109 166 242 212 195 151 128 100 91 94 146 228 252 280 288 304 304 280 234 233 220 170 156 137 112 80 73 56 42 26 22 24 37 33 40 58 68 66 73 91 75 116 104
72 86 154 216 196 171 139 127 111 110 149 162 176 282 318 317 304 350 316 278 228 176 154 125 102 85 62 54 43 26 12 19 28 24 35 65 62 86 48 108 111 95 130
53 77 87 126 158 179 147 129 125 125 152 158 266 360 400 376 394 412 379 311 233 175 153 127 103 79 61 44 35 31 27 16 24 36 22 10 63 83 71 75 94 113 108
53 59 70 108 132 137 137 129 108 125 177 183 231 290 379 342 318 352 340 283 216 171 151 123 96 83 61 44 37 32 25 5 21 5 34 38 55 42 41 44 24 102 69
58 83 50 80 119 121 126 127 112 130 159 153 187 274 282 311 365 367 323 269 190 161 145 116 103 91 71 59 42 27 26 23 22 36 41 40 42 40 50 55 65 75 64
75 74 82 103 122 158 140 125 108 118 127 177 176 275 297 348 411 326 301 224 178 167 147 126 115 95 78 58 46 42 38 38 41 44 46 49 54 55 53 51 57 65 48
118 119 79 121 128 155 151 127 114 124 128 170 208 267 270 298 314 249 240 179 174 158 144 130 111 98 86 71 59 52 48 47 51 59 67 68 67 78 81 85 87 99 78
93 114 79 96 104 108 136 133 122 133 143 176 224 247 250 217 258 216 180 174 171 160 146 139 124 111 94 78 66 67 69 68 72 81 84 92 97 104 103 106 104 98 88
23 104 98 80 92 104 125 116 126 131 162 182 251 232 240 197 220 224 208 202 187 172 158 145 133 116 98 87 82 79 77 77 103 107 106 111 118 112 107 112 115 109 102
58 91 111 80 92 90 118 125 126 146 195 227 225 309 226 162 270 244 225 202 193 179 169 153 137 122 110 99 90 80 99 102 130 133 130 126 125 114 115 120 128 143 145
-1 63 135 88 105 85 119 132 131 147 180 198 317 298 252 250 298 236 228 218 199 183 172 159 146 129 117 109 92 107 115 130 145 143 144 124 119 116 128 139 152 168 180
-67 22 129 92 107 85 124 145 143 144 182 301 327 273 269 288 274 246 232 203 204 195 182 168 155 140 132 119 117 120 139 144 141 143 133 118 128 119 138 167 171 188 199
-43 -26 106 79 97 91 130 176 169 202 278 321 318 274 261 274 266 243 229 216 207 198 187 170 160 152 139 128 123 140 138 136 133 127 132 128 129 136 169 168 179 195 209
-53 -4 105 86 83 100 170 227 251 294 328 306 274 276 281 267 247 229 224 219 205 190 177 178 169 158 143 130 146 132 130 128 121 118 117 126 137 153 160 168 173 195 209
-6 88 120 116 102 146 196 287 340 339 324 281 290 305 299 265 241 234 235 225 206 185 184 172 166 149 137 159 139 138 128 113 118 112 115 135 154 135 146 193 191 194 185
120 113 121 92 112 154 208 302 329 325 274 265 298 284 289 254 232 226 219 210 192 191 174 170 154 145 149 148 141 131 121 114 109 117 136 148 148 158 149 160 146 104 127
71 78 77 110 135 155 236 305 313 256 248 280 270 272 241 237 218 200 195 190 191 173 162 150 144 143 139 146 135 116 100 115 129 139 143 154 183 173 173 133 59 80 49
82 98 112 137 153 187 231 226 191 195 235 262 250 227 216 209 187 183 187 190 164 158 144 141 134 134 142 124 108 95 95 124 138 138 141 168 172 154 108 90 111 116 91
83 42 50 63 94 123 146 187 214 220 222 212 203 191 176 174 176 181 175 164 145 137 134 128 137 137 115 106 97 105 116 129 125 147 135 135 92 70 49 100 109 91 76
28 11 32 75 109 120 137 185 194 193 197 182 182 172 170 171 168 165 158 142 134 129 128 133 108 110 94 101 102 109 110 139 162 126 94 88 84 65 58 97 94 92 67
32 63 82 106 115 119 147 187 186 188 173 175 184 184 171 172 161 145 130 124 132 128 121 105 95 90 106 103 99 109 135 148 128 105 104 91 75 57 53 57 74 79 55
67 69 123 128 112 108 137 165 174 159 169 173 176 176 161 142 128 128 124 129 124 112 100 95 98 104 102 101 109 127 121 100 110 99 89 85 46 44 43 57 50 26 34
83 98 177 171 133 113 135 204 161 153 168 167 155 146 143 135 120 121 125 117 103 95 96 99 101 100 109 117 120 94 81 72 98 92 65 30 46 45 52 42 24 33 61
120 153 188 207 212 174 162 166 145 126 136 155 146 127 115 118 125 116 105 96 92 92 95 94 93 101 110 117 115 97 89 88 88 75 71 53 47 42 38 42 53 63 67
134 160 204 215 202 171 166 135 126 131 141 127 113 120 126 120 103 95 90 88 98 92 88 96 105 117 108 111 88 84 87 112 82 67 63 67 60 54 53 54 62 68 66
125 180 178 196 181 169 166 141 114 98 110 123 121 113 98 92 91 87 86 93 90 85 98 106 117 111 94 93 87 60 79 72 62 66 65 62 55 53 50 52 60 67 65

GFSMW_con_3kmhel_015.txt.gz
Helicity
56 87 96 199 161 105 162 144 169 134 138 151 232 259 292 333 287 282 283 240 218 199 179 168 158 134 110 83 64 43 36 36 39 22 47 46 66 66 69 90 90 129 87
56 63 84 90 192 224 214 215 156 142 154 238 236 312 375 340 272 284 314 302 305 252 197 156 156 126 99 80 63 43 13 23 23 12 2 55 54 47 87 82 103 99 119
59 77 70 95 109 143 194 210 210 147 163 211 290 376 367 418 369 348 358 353 336 281 220 158 142 125 97 77 60 37 33 22 25 26 23 31 84 89 87 79 114 90 125
71 71 84 83 102 118 218 216 247 225 184 215 249 311 394 403 349 357 383 366 365 318 222 162 144 121 90 74 50 39 30 11 26 0 44 61 95 88 91 113 93 113 103
82 98 80 80 99 112 186 205 204 219 216 207 174 276 245 315 402 405 431 425 400 307 219 168 148 120 93 77 57 41 37 29 27 38 48 53 56 56 87 89 86 112 102
151 130 72 85 104 132 196 225 184 191 216 167 226 217 222 378 434 436 471 443 381 249 205 162 141 115 99 79 64 51 40 38 42 51 61 74 95 120 131 117 98 92 87
79 108 153 118 119 143 202 198 162 176 198 161 174 150 269 315 312 391 402 408 331 239 183 162 139 118 109 85 65 49 41 44 50 73 87 106 104 116 119 120 115 121 123
128 86 72 84 97 119 237 147 154 172 209 149 153 213 299 282 308 335 371 311 258 189 157 155 143 125 107 86 69 62 58 68 73 90 110 114 120 127 134 141 137 123 130
85 32 50 80 74 100 126 134 127 172 176 172 274 327 284 297 350 322 281 260 225 188 174 162 142 128 109 91 82 74 71 81 104 103 107 114 127 141 145 149 146 146 149
149 88 29 45 54 77 82 90 110 146 152 234 294 272 294 303 315 297 295 284 217 180 177 161 146 128 116 104 90 90 104 105 113 128 126 138 158 161 159 143 145 158 170
53 26 -4 -15 52 70 66 118 128 140 176 240 241 289 329 318 344 304 319 271 203 196 183 167 146 129 115 106 101 115 116 108 116 140 148 154 155 150 146 149 157 176 195
-1 -45 -9 -55 56 68 94 119 166 160 226 250 245 346 355 342 344 299 297 243 224 211 193 164 148 135 130 123 123 116 124 121 135 147 168 153 141 138 137 154 168 190 184
-22 -19 -36 -83 56 67 99 146 186 199 207 228 318 358 402 388 333 323 286 262 244 214 185 170 162 152 134 139 133 136 131 139 141 145 145 141 142 147 162 184 191 198 210
-33 -78 -63 -72 68 82 138 200 185 171 179 242 320 396 400 370 331 305 288 249 210 187 180 178 176 162 149 154 143 133 132 129 141 131 125 128 147 156 181 203 197 213 236
5 35 -55 -22 83 165 205 213 209 178 196 304 363 349 357 362 290 315 268 214 194 191 186 178 172 156 175 170 159 144 134 133 125 126 129 141 167 175 148 172 179 199 223
28 12 -13 25 134 175 160 188 232 247 295 395 396 335 335 320 288 247 201 187 188 182 183 179 160 171 154 177 145 139 135 115 115 139 156 172 168 155 168 150 168 160 164
25 0 20 74 104 123 155 248 342 426 478 531 402 273 243 255 219 207 193 199 176 171 166 156 161 143 150 170 141 122 102 107 126 152 158 151 160 177 190 188 140 120 58
21 17 60 94 126 169 237 325 457 464 398 340 272 202 263 222 227 218 199 183 166 160 153 140 133 141 144 150 114 95 85 119 129 141 130 149 157 168 171 166 139 118 98
25 52 96 116 164 206 278 380 417 386 201 221 143 180 209 212 197 201 190 164 151 143 125 138 140 134 113 142 105 114 119 123 116 137 150 152 168 153 100 121 114 93 96
76 104 142 158 141 159 149 155 120 95 120 148 151 200 197 202 186 164 162 151 139 144 135 130 107 110 92 122 130 123 98 121 167 170 153 152 148 102 69 101 94 90 81
31 45 55 60 51 25 64 130 154 165 170 218 211 200 178 169 160 150 138 137 137 124 107 87 84 94 114 118 116 116 127 154 164 159 159 139 89 74 45 49 79 76 61
31 32 61 79 77 82 127 172 190 165 172 176 181 173 164 147 134 134 134 137 115 93 94 99 109 115 118 120 124 117 107 118 157 154 127 105 59 42 41 51 39 29 38
57 56 101 131 118 103 124 178 138 131 144 166 161 148 142 135 132 131 111 102 100 104 111 108 108 114 131 130 122 125 131 130 144 117 82 52 39 41 54 40 28 42 84
75 85 115 141 147 126 145 177 130 130 141 142 135 134 137 127 111 104 102 99 98 98 98 105 113 120 124 133 171 160 144 115 112 97 90 63 42 47 48 54 64 76 79
128 132 152 160 170 169 176 154 137 134 153 151 139 121 104 111 109 104 96 92 107 106 101 115 118 121 133 152 141 121 117 107 98 76 92 76 70 68 63 64 66 72 82
128 169 179 185 178 181 173 157 152 141 131 118 109 111 107 101 92 85 86 86 89 89 90 97 114 127 125 125 104 86 59 79 56 91 80 71 68 65 62 60 70 94 80

GFSMW_con_3kmhel_018.txt.gz
Helicity
50 91 115 138 185 157 181 170 260 286 320 349 246 202 246 331 425 470 475 349 280 244 241 247 230 206 195 156 114 86 86 74 51 23 20 24 49 70 61 87 119 114 111
63 69 82 130 148 162 169 177 222 288 286 310 270 281 366 400 473 450 394 314 270 296 299 286 252 234 207 165 121 97 60 41 39 17 6 24 41 58 49 109 123 111 119
67 57 67 110 170 140 153 234 227 290 303 287 479 538 580 585 515 486 426 379 319 376 326 320 261 225 184 149 110 88 68 36 17 29 9 27 30 46 104 96 131 116 127
84 75 63 29 121 192 143 188 270 281 339 465 574 526 470 518 533 485 451 380 374 407 345 344 291 221 169 138 99 77 55 42 30 20 32 41 64 69 83 128 126 123 136
70 69 85 117 81 112 194 169 184 268 340 481 520 510 486 493 534 491 419 394 421 424 371 352 294 217 165 131 104 78 70 52 40 37 41 50 59 70 108 99 102 88 84
113 129 156 144 114 119 139 203 234 275 345 410 442 433 435 467 505 511 455 459 462 448 420 345 269 228 181 136 104 86 77 63 57 49 53 59 72 87 128 146 116 102 84
133 141 146 140 148 105 119 153 264 328 374 374 354 349 384 412 472 500 471 504 477 433 406 363 252 220 167 130 97 83 67 65 69 68 65 89 92 113 134 147 128 139 122
143 160 128 76 96 115 151 120 267 347 360 338 361 397 419 439 426 414 429 426 447 421 365 280 248 200 165 130 108 91 80 81 69 70 78 91 103 129 149 148 140 118 151
81 155 125 80 119 97 96 143 227 299 284 316 386 423 441 432 369 372 366 448 446 417 323 280 237 185 159 126 104 94 86 88 76 76 84 103 117 150 144 152 166 170 163
145 222 150 68 96 88 111 184 197 202 274 324 365 410 440 455 357 323 390 431 435 303 312 282 229 194 161 135 122 106 102 100 85 95 120 127 152 162 156 161 168 179 192
208 187 158 46 21 34 56 156 180 181 279 463 445 412 394 311 291 348 402 414 384 316 296 273 214 177 147 129 110 107 114 80 96 114 128 142 170 150 156 162 164 182 199
114 70 53 24 23 -2 26 127 117 209 470 420 398 369 321 298 337 441 471 404 356 312 280 238 198 169 161 143 136 126 125 117 117 120 149 154 162 168 158 163 168 194 198
76 148 128 67 12 -4 4 86 150 371 424 346 327 317 320 370 446 469 432 398 374 314 269 225 197 173 156 146 148 143 138 147 134 139 159 157 162 170 176 181 210 209 198
44 112 107 29 13 4 70 180 410 439 410 352 308 345 369 408 450 443 419 418 328 271 245 227 205 171 147 147 145 149 157 157 156 156 150 152 156 166 183 197 184 181 195
140 147 99 21 18 96 191 304 376 391 346 295 332 375 406 447 474 487 431 330 305 279 234 200 161 130 135 141 160 165 166 162 160 152 147 167 181 171 164 184 197 189 202
20 63 39 2 93 143 251 269 274 207 227 286 391 440 497 458 515 398 347 335 253 210 191 169 133 145 140 156 160 159 156 150 145 148 150 158 147 147 168 163 144 153 184
-18 -3 -46 105 221 217 231 264 215 216 309 434 496 538 570 587 379 293 273 210 198 151 142 141 152 131 145 150 164 148 146 130 124 133 135 143 150 148 164 152 128 137 111
27 -23 164 197 156 159 223 293 376 409 468 512 518 425 380 201 63 123 145 158 164 169 147 149 134 143 141 159 157 148 131 129 121 115 128 150 151 156 152 177 189 161 124
150 144 138 132 144 191 256 332 391 362 348 377 344 195 241 123 160 172 188 177 157 165 130 120 152 167 170 137 146 142 135 119 117 140 155 162 173 172 132 201 165 112 103
120 111 85 117 164 185 212 253 168 174 223 165 63 104 101 77 152 165 157 174 134 124 159 151 129 130 120 136 124 112 108 116 136 145 146 141 157 136 137 136 118 94 76
64 57 98 154 139 102 135 135 108 79 62 44 1 110 151 135 142 146 122 127 159 140 117 111 103 103 103 98 96 116 113 112 128 137 147 154 112 95 71 57 92 75 63
4 37 12 49 13 17 60 56 94 107 85 99 105 149 121 113 125 154 156 140 121 116 121 130 123 113 123 128 117 99 93 104 151 148 140 129 73 60 37 59 39 31 44
10 12 40 56 50 57 52 89 107 96 99 130 136 146 174 156 124 110 101 104 111 116 111 100 101 114 129 128 144 174 153 136 143 146 103 74 56 37 56 42 38 50 80
96 96 104 112 112 90 70 60 56 85 138 175 162 126 115 114 104 101 105 102 99 101 105 116 120 111 117 141 159 145 149 126 136 109 111 83 46 40 52 54 67 81 76
90 100 123 131 125 113 110 102 109 126 128 112 101 90 78 87 101 98 81 87 91 95 100 97 103 112 114 124 123 137 141 144 113 90 98 86 75 53 59 66 74 75 79
151 156 154 161 147 137 142 112 88 91 100 94 78 84 89 86 79 82 82 73 84 88 85 86 96 114 103 105 119 123 104 89 85 96 94 78 55 54 53 53 58 85 89

GFSMW_con_3kmhel_021.txt.gz
Helicity
27 47 62 73 82 105 98 147 195 337 440 390 309 255 228 245 295 302 383 433 390 341 341 284 265 228 241 221 190 167 147 137 95 69 62 35 34 30 38 66 94 108 90
36 17 26 56 84 86 93 99 131 292 429 474 398 329 313 311 343 363 390 419 383 392 347 302 257 232 267 238 197 157 134 112 107 74 62 67 41 32 54 81 111 122 118
56 55 65 40 47 69 96 100 105 196 382 437 503 565 570 540 487 444 427 425 418 398 356 331 297 235 253 239 192 150 126 104 85 79 51 68 47 43 57 110 159 160 153
48 61 94 102 84 45 85 114 123 122 299 422 533 530 472 500 493 502 514 450 414 414 401 351 334 274 281 247 185 139 113 92 77 63 66 60 55 53 59 91 127 138 143
56 58 82 143 142 136 120 141 107 165 185 387 482 514 503 553 602 571 583 514 482 436 431 368 358 303 294 255 188 147 122 91 78 65 59 72 75 92 105 90 111 124 100
128 151 140 167 176 187 180 138 133 141 231 334 443 486 579 572 584 559 538 558 552 488 432 389 369 316 286 268 197 152 128 103 90 74 72 70 76 85 116 119 118 97 83
173 172 187 212 221 232 201 153 143 161 188 346 437 554 563 578 529 501 545 610 577 526 445 392 368 342 314 264 213 163 128 102 93 81 79 82 85 109 119 138 118 129 114
110 122 141 179 216 206 142 127 111 146 252 329 417 487 543 555 458 473 524 497 521 507 441 399 372 353 319 270 214 155 119 97 85 79 80 91 95 121 140 149 139 137 138
123 148 219 228 178 123 113 97 96 126 231 345 397 466 546 461 418 422 408 431 507 447 406 430 438 401 268 251 200 131 109 95 83 73 85 99 113 148 169 168 170 169 155
143 238 276 232 166 134 51 64 59 95 223 345 370 504 496 419 397 376 384 409 468 429 478 429 407 327 276 227 170 130 105 98 88 84 97 109 132 156 158 167 180 195 192
126 115 141 142 109 126 71 43 59 115 257 328 413 462 427 381 339 318 339 389 413 442 456 373 381 189 231 181 162 122 98 94 90 108 102 106 146 145 158 177 188 183 197
88 134 86 58 98 116 82 23 44 194 224 298 366 400 372 372 310 271 343 357 450 480 456 366 312 250 212 172 132 119 112 100 96 107 95 113 150 151 157 174 164 179 183
102 171 167 107 96 59 48 38 60 238 341 369 413 381 362 317 296 354 375 402 464 384 324 282 288 235 205 169 150 136 131 122 106 112 122 135 137 147 166 170 171 176 184
198 224 218 165 156 100 52 90 198 321 377 411 424 398 333 343 398 407 417 405 422 364 348 296 282 219 181 171 157 143 129 133 150 164 175 150 152 149 156 158 157 176 190
61 -7 8 87 84 99 111 277 359 385 449 447 412 360 377 409 464 457 439 470 490 336 300 282 255 204 174 148 146 149 159 160 162 167 168 164 149 145 145 187 204 196 192
6 -16 -55 -43 38 86 146 251 299 313 413 352 380 434 493 497 494 509 391 454 322 343 283 224 206 170 150 167 153 156 150 160 169 160 151 135 127 145 149 169 149 152 187
39 15 -57 -23 151 159 127 277 160 197 306 379 409 458 477 526 468 613 543 363 255 190 170 145 125 172 161 160 168 167 164 169 156 131 138 148 160 174 168 147 137 132 121
22 18 86 93 128 151 235 216 295 250 367 378 402 438 471 426 421 361 253 136 173 120 128 138 160 146 123 155 163 185 162 148 134 136 164 176 170 169 173 192 192 157 151
92 95 71 65 119 152 141 195 209 260 310 299 349 305 252 274 251 190 159 66 103 100 127 129 135 142 129 143 147 150 137 135 134 147 157 154 170 176 141 173 181 148 123
51 78 75 154 155 118 95 104 86 131 115 146 183 164 153 83 71 62 32 44 100 125 142 120 110 115 110 119 111 102 109 127 127 122 135 140 159 131 115 157 155 123 84
55 55 67 33 12 49 80 61 86 83 82 59 63 62 28 39 58 73 92 109 131 113 116 128 127 123 101 94 100 97 105 95 115 126 146 153 123 115 118 113 125 92 62
-32 -22 36 -14 -46 -85 -10 6 -11 -22 36 29 17 39 17 49 76 110 111 122 106 123 137 147 140 130 126 124 106 113 140 137 151 149 150 146 111 115 95 96 66 44 61
-1 -45 -22 -13 -41 -32 2 58 -8 12 33 38 86 83 70 81 95 105 89 109 131 140 128 119 121 121 121 133 168 159 152 156 161 157 119 132 119 101 102 68 47 55 69
6 -8 20 18 -27 -22 3 44 53 49 62 85 99 91 102 95 92 109 115 123 110 109 110 109 104 101 117 129 135 141 147 146 161 140 132 132 114 98 62 53 68 86 85
38 32 42 52 40 23 37 48 50 58 107 111 93 92 100 114 120 103 85 90 84 84 83 83 92 105 111 116 129 135 141 152 135 143 128 113 82 65 55 69 81 87 91
109 106 106 95 76 61 82 60 76 97 112 108 95 87 82 78 82 87 87 77 78 89 92 92 95 87 88 100 119 114 97 120 170 154 114 67 49 42 50 55 63 83 81

GFSMW_con_3kmhel_024.txt.gz
Helicity
-17 67 101 130 107 143 133 110 154 214 341 355 354 307 286 286 260 230 257 310 316 319 348 307 298 264 234 196 214 238 208 202 147 145 137 106 84 70 65 68 81 94 96
17 40 64 85 92 102 139 144 164 176 291 360 340 370 356 370 291 363 318 309 349 390 374 359 314 273 257 209 201 215 208 187 169 144 144 127 97 82 90 92 117 136 145
-5 -3 27 35 45 63 84 98 107 116 191 273 423 502 515 510 453 366 350 337 378 379 373 395 377 308 271 190 177 194 188 182 170 150 123 139 108 99 94 132 162 168 182
88 38 35 36 48 54 61 64 87 120 147 244 383 419 434 430 393 367 428 424 386 410 421 439 404 334 274 203 195 187 177 179 154 136 133 129 108 97 100 104 127 150 165
59 57 85 104 96 92 90 72 75 102 158 280 274 351 416 444 506 529 500 495 487 450 459 451 423 353 310 259 238 243 208 170 140 122 111 116 120 118 122 109 119 150 145
51 55 67 71 73 120 141 164 148 137 151 208 283 262 344 531 597 541 543 549 530 505 471 476 439 370 333 316 281 281 239 175 149 119 110 101 103 105 125 129 124 121 112
63 71 92 117 149 155 153 134 124 162 178 133 209 264 410 461 548 528 539 577 577 527 485 545 515 422 380 363 344 290 262 180 149 113 105 101 102 107 118 137 128 129 125
88 60 69 122 154 160 155 152 123 84 70 92 176 262 353 456 478 497 508 550 589 570 576 554 526 431 386 334 361 283 248 189 160 124 105 95 91 98 114 133 143 135 158
127 111 93 153 196 185 166 153 139 113 78 40 154 288 406 485 484 508 509 541 532 511 530 489 530 415 375 363 322 321 241 194 155 118 101 98 94 112 139 164 166 162 172
141 155 140 164 212 187 181 136 87 45 44 65 184 295 421 453 476 494 448 424 454 426 488 537 515 408 428 446 326 358 206 228 145 113 104 106 104 117 164 159 160 204 200
30 87 191 176 132 109 126 115 75 50 27 83 227 333 392 422 423 383 398 427 398 422 496 532 468 405 447 380 336 288 174 203 136 123 91 82 95 125 136 161 200 194 214
93 108 69 96 137 113 134 119 85 54 14 137 286 358 405 401 339 344 356 357 385 402 493 520 455 414 435 303 257 207 186 168 124 101 99 77 99 113 141 179 173 185 189
92 99 81 304 70 130 106 91 90 47 57 205 314 337 346 328 306 293 323 331 393 412 447 457 421 399 348 320 255 240 182 178 138 122 99 99 140 140 177 183 177 186 172
61 96 87 34 117 111 87 95 66 86 153 241 319 328 299 275 304 329 325 345 363 427 441 517 482 334 295 277 237 215 200 153 141 142 141 146 148 165 165 166 154 164 179
36 53 33 44 108 24 62 77 78 104 212 294 347 426 404 385 406 390 380 363 387 423 440 463 402 329 356 260 159 144 154 155 142 157 177 176 168 132 135 159 162 183 202
9 37 10 -8 21 -18 40 105 98 179 272 364 397 408 462 457 475 491 518 504 480 466 450 391 284 243 228 192 156 137 145 171 157 161 193 179 160 164 162 168 173 181 209
18 -10 -8 31 -3 -44 -58 -40 73 254 301 401 426 486 496 474 525 480 450 435 461 432 390 316 223 180 172 141 158 145 143 150 167 176 171 176 192 205 193 191 192 204 182
10 31 30 74 75 129 186 284 214 254 265 296 355 333 399 398 346 360 414 391 328 337 346 199 158 119 107 92 109 151 157 154 153 147 149 159 163 172 194 214 245 217 179
37 60 81 110 127 52 78 148 175 140 168 151 121 173 182 198 228 288 248 201 205 141 96 60 55 74 93 122 120 127 133 142 133 132 149 154 182 181 206 242 212 185 161
66 61 56 78 103 60 63 90 54 42 109 122 111 137 149 128 167 110 161 107 76 46 37 78 87 87 87 88 98 105 104 121 129 129 156 180 198 185 158 191 192 167 131
41 49 53 28 18 45 84 64 39 53 14 32 73 97 103 100 70 42 32 23 59 85 101 115 116 124 103 84 87 88 90 85 115 146 163 177 162 147 155 144 162 123 89
-27 -50 -34 -68 -50 -60 -11 -24 -32 -82 -38 -7 9 23 32 30 33 72 49 60 93 98 96 106 122 127 133 131 126 150 154 157 158 139 147 148 126 163 140 131 80 56 64
-29 -58 -68 -63 -51 -48 -38 -5 -33 -17 -21 22 25 24 39 60 71 71 59 85 91 94 98 105 112 111 123 135 154 157 155 143 149 158 142 175 178 148 124 66 56 57 68
3 -2 -14 -24 -15 -18 4 -6 -19 -23 8 50 59 54 69 73 68 64 64 80 82 88 97 117 134 134 139 142 132 126 138 139 155 163 172 178 165 121 64 50 54 68 64
15 16 25 25 7 3 -0 -1 18 31 86 93 68 66 69 68 78 77 70 83 87 100 112 120 131 133 122 115 128 146 149 153 144 194 155 138 106 61 41 51 53 55 61
63 61 36 37 24 41 36 38 50 82 85 77 63 58 60 59 64 74 93 103 111 125 123 110 103 109 101 122 144 124 119 165 151 165 140 111 57 31 34 30 37 50 46

GFSMW_con_3kmhel_027.txt.gz
Helicity
-15 13 79 120 78 112 178 170 177 146 262 371 363 271 246 264 255 191 219 233 215 231 235 238 259 246 222 211 215 215 194 196 171 182 169 155 139 118 91 76 76 100 113
43 39 58 77 113 161 182 201 183 158 223 283 326 387 303 268 273 253 292 281 288 275 308 298 278 228 251 244 222 209 210 204 174 168 176 158 138 124 118 108 118 139 151
-3 6 22 64 87 102 116 151 197 186 185 210 308 450 510 471 446 337 322 318 303 311 341 341 304 284 317 270 231 194 183 212 200 158 167 176 134 137 128 142 146 162 184
100 102 98 68 55 88 98 103 127 141 162 184 323 381 418 431 404 376 366 374 346 305 366 386 375 333 320 296 242 195 188 229 214 204 174 165 144 132 125 133 142 153 157
73 104 109 92 109 104 106 98 96 89 106 156 230 279 287 335 425 518 450 402 412 320 364 392 396 362 365 345 304 282 175 210 221 215 184 167 166 157 149 133 122 126 132
123 83 78 92 75 69 77 82 94 111 137 147 178 220 218 315 413 527 514 456 434 427 411 432 414 409 432 389 309 289 257 222 239 232 196 162 149 129 137 144 130 126 135
122 151 139 131 108 80 58 70 76 78 58 72 144 212 208 272 310 366 444 505 494 469 407 482 473 467 453 449 396 316 339 295 287 262 224 180 152 145 145 143 134 136 129
86 89 77 74 97 63 68 90 111 97 81 56 45 92 179 273 327 353 421 417 457 479 493 493 530 558 499 449 456 319 364 337 326 297 240 174 140 129 133 134 138 141 154
48 37 30 41 65 87 104 97 115 114 99 56 59 81 137 236 266 282 340 405 437 461 534 561 613 547 486 505 489 364 380 356 292 318 213 184 133 117 121 129 132 138 155
-105 -88 -26 14 62 116 181 212 167 129 124 97 59 90 148 218 257 330 326 376 458 461 505 557 559 494 486 483 475 468 338 366 339 271 176 192 120 119 119 121 126 143 169
-25 -17 76 35 20 111 167 186 176 157 129 96 34 95 168 223 275 300 389 395 426 465 440 447 484 451 488 490 557 521 361 391 238 217 165 169 150 103 116 131 149 154 194
1 36 79 78 94 115 195 205 146 144 129 110 75 103 159 209 244 265 352 416 377 354 376 387 405 475 555 582 525 420 447 384 273 299 181 107 120 125 130 140 135 171 195
28 74 63 101 108 103 114 286 166 106 92 75 82 139 153 195 227 281 311 322 362 331 348 391 506 591 577 566 472 394 275 208 170 197 176 111 128 131 147 159 166 185 192
30 55 60 42 33 65 30 185 249 82 30 10 67 129 141 201 234 266 282 328 355 383 441 439 540 552 569 509 462 333 342 336 192 158 156 145 136 124 158 168 160 170 182
10 -1 22 46 36 28 84 74 55 59 4 29 97 150 193 251 258 317 349 371 428 458 523 530 602 605 537 427 381 318 255 266 243 152 139 134 141 134 138 159 149 161 175
10 1 24 50 74 69 55 41 33 50 49 73 160 212 287 375 421 455 470 456 449 440 455 420 464 443 374 253 288 248 203 226 161 135 156 150 175 193 184 174 177 164 185
17 17 23 49 58 55 49 56 113 126 182 207 230 221 307 372 420 428 445 420 407 391 390 443 437 438 328 301 272 217 159 116 130 143 147 173 169 172 160 168 163 171 139
15 2 -1 -2 16 32 32 39 139 151 188 163 217 265 282 308 324 348 346 344 316 347 311 290 318 242 227 146 101 79 98 108 118 128 134 136 136 140 130 144 175 148 137
36 25 21 22 28 43 49 67 96 48 39 -5 129 113 143 168 226 230 206 194 161 196 193 198 124 82 60 51 66 66 92 111 114 111 119 116 109 119 151 120 141 179 187
17 33 51 40 29 31 30 63 50 36 27 -2 28 80 129 154 156 199 133 152 178 168 91 82 55 29 22 62 80 87 90 97 106 113 118 134 128 72 81 177 209 207 172
-5 -21 -28 -50 -8 -2 16 7 16 12 -18 44 71 72 48 60 49 52 40 99 52 44 50 66 80 90 80 99 82 73 89 95 112 118 112 107 98 133 177 206 213 170 119
-7 -10 -38 -59 -34 -13 -18 -8 -24 -53 -22 -31 -21 -8 -18 -24 -12 6 15 27 42 64 64 74 91 101 116 131 142 146 129 115 96 86 100 116 135 168 167 171 135 93 74
7 -5 -7 -14 -36 -42 -17 -17 -26 -4 -17 3 3 0 -5 -2 9 37 38 44 54 61 60 72 91 100 108 117 130 127 120 114 135 140 137 142 143 139 165 142 92 52 48
23 17 7 -2 1 -19 -9 6 4 9 24 22 20 28 44 42 41 41 36 51 53 59 68 80 86 88 101 103 99 113 136 158 164 142 139 145 154 167 131 80 44 42 36
20 32 37 20 16 17 2 -2 11 36 59 41 31 36 38 43 52 52 40 53 54 59 66 72 84 106 131 141 162 183 170 144 127 147 139 138 131 108 55 33 32 33 30
64 66 38 57 29 33 27 20 26 47 42 42 31 27 34 39 45 50 58 71 74 87 103 120 134 140 140 153 162 138 141 167 145 160 136 116 84 37 25 27 24 24 20

GFSMW_con_3kmhel_030.txt.gz
Helicity
56 77 95 111 125 160 179 205 240 225 261 281 257 232 212 248 253 230 204 201 175 210 218 202 204 224 218 187 213 214 186 189 169 199 175 165 143 132 111 97 93 98 110
30 31 61 94 108 105 126 142 171 200 254 282 267 288 246 261 275 269 234 252 218 235 237 227 243 234 226 228 216 222 224 198 167 180 189 154 149 140 132 115 108 124 135
64 66 69 82 84 83 113 135 128 128 201 258 272 400 376 345 365 332 275 294 300 265 259 274 285 260 213 218 227 234 235 235 179 162 181 175 139 162 147 141 128 132 158
124 133 164 177 152 154 141 120 156 154 151 183 266 293 297 325 358 374 342 371 373 312 296 318 303 308 270 286 247 252 257 263 218 215 188 203 176 176 164 140 134 137 149
123 127 112 106 108 118 135 183 133 158 156 160 196 231 229 258 300 328 336 389 402 355 345 339 340 303 368 286 329 315 296 301 244 245 247 234 233 217 199 167 124 129 128
152 130 118 126 152 125 120 127 145 84 118 161 168 208 198 203 289 337 345 384 444 416 362 373 383 379 396 373 351 328 323 323 273 257 252 248 239 212 213 202 160 138 142
85 64 47 85 141 140 139 117 138 141 104 76 124 124 138 178 240 311 329 372 408 428 365 396 401 442 427 431 421 383 347 339 357 275 277 261 260 244 243 219 186 164 165
41 18 19 30 32 60 84 79 88 107 134 124 106 85 98 166 196 251 276 301 318 345 394 454 401 418 483 490 443 439 404 396 418 446 186 236 282 240 255 234 193 181 180
-60 -32 -34 -4 -12 28 80 93 133 124 137 145 148 122 86 114 150 182 220 248 276 310 385 439 466 430 459 462 493 510 465 459 478 425 339 231 273 242 241 197 215 174 151
10 -47 -50 -50 -24 39 76 132 133 153 169 188 176 153 112 90 124 174 207 233 275 327 352 403 453 459 455 456 524 549 484 465 529 466 467 313 329 269 239 173 186 150 170
-27 -14 9 31 70 76 79 127 215 253 220 179 203 169 132 79 107 147 186 232 283 282 305 345 399 435 439 458 518 561 558 550 470 483 477 324 256 243 209 177 142 146 160
-12 -5 39 46 4 16 58 66 143 253 364 286 216 182 135 97 100 115 158 203 238 250 260 307 342 389 424 458 534 619 575 594 402 493 439 358 186 280 220 190 136 123 128
3 8 11 -5 12 24 46 63 70 106 169 286 222 183 113 81 83 121 145 167 186 205 224 244 315 379 433 523 595 597 568 460 483 358 531 255 155 225 177 169 129 128 157
-4 6 2 29 25 41 50 86 77 80 69 101 174 78 56 51 91 138 179 193 191 201 244 318 372 431 501 582 628 607 569 457 394 485 374 366 220 229 171 114 131 158 159
4 13 19 19 30 48 82 84 83 71 59 129 220 93 48 63 155 218 237 300 319 338 379 407 433 466 533 523 535 508 402 403 410 348 262 229 145 102 98 148 143 155 156
32 21 18 15 25 36 75 85 92 85 76 85 76 73 147 183 236 252 277 311 314 337 339 328 369 426 439 418 424 409 442 413 378 258 155 105 111 138 147 148 133 124 138
8 5 18 31 24 20 42 54 66 64 48 30 73 125 168 191 202 225 266 271 306 327 325 335 348 380 403 281 300 279 257 205 165 111 99 95 113 131 133 132 134 142 124
40 25 29 45 32 6 13 11 57 53 64 25 -57 58 129 147 166 199 210 223 221 259 260 280 297 310 200 236 201 194 162 120 89 74 104 126 132 116 116 118 127 130 120
40 43 39 31 12 -1 -25 19 74 63 50 16 19 -23 -6 134 167 203 201 257 269 240 256 210 218 204 199 144 78 48 56 90 102 106 115 98 97 82 86 113 136 129 119
23 5 -9 -24 -3 13 9 33 29 30 25 29 22 34 51 107 140 166 183 159 157 138 133 144 101 80 54 34 28 61 79 99 94 81 86 100 102 81 82 120 123 102 97
33 19 2 -24 -33 -13 -35 -11 3 -9 7 20 25 10 9 21 28 45 35 25 39 57 63 53 40 14 30 79 75 70 78 81 87 103 110 109 95 82 82 117 127 126 136
21 19 12 3 -15 -19 -16 -14 -13 20 -6 -21 -9 -12 -30 -24 -16 9 9 12 -14 -1 8 51 68 68 96 107 104 96 93 115 113 112 103 66 20 98 126 146 130 131 160
19 16 21 10 5 -14 -13 -16 -15 -23 -10 -5 -9 -9 -15 -17 -14 4 7 10 16 29 30 44 54 61 68 83 117 127 134 120 104 73 72 117 139 139 150 146 159 140 85
36 15 34 45 21 7 -6 -6 -10 -7 10 22 16 7 11 11 5 7 7 17 21 27 33 42 52 55 71 85 95 111 125 120 119 119 135 164 164 155 125 113 81 46 34
46 45 38 53 48 22 22 11 8 29 41 33 19 19 19 21 27 30 22 25 19 26 35 45 60 77 86 92 105 131 141 156 168 182 152 129 101 79 62 36 28 25 17
68 85 51 63 56 48 39 30 23 42 53 47 34 28 28 29 36 41 49 62 63 69 72 64 61 70 96 150 185 196 180 165 136 138 96 62 37 13 18 19 16 27 23

GFSMW_con_3kmhel_033.txt.gz
Helicity
70 75 118 141 147 133 147 152 172 179 203 234 229 208 187 179 176 174 148 160 162 156 159 167 147 185 203 174 161 208 193 200 176 185 165 157 143 127 129 128 121 109 105
79 95 105 125 150 156 172 179 162 175 221 244 249 267 220 201 169 193 182 169 196 212 205 200 189 202 212 190 205 249 250 218 172 182 186 144 142 142 143 133 124 115 121
161 178 188 198 195 172 152 147 156 155 155 180 243 309 292 275 241 234 205 215 237 266 253 254 255 251 226 228 233 230 241 262 189 179 190 188 156 175 171 149 138 129 137
225 207 237 275 278 257 179 127 139 144 164 148 183 214 255 271 299 288 225 251 264 289 276 274 293 286 275 202 222 228 226 294 288 227 173 203 180 168 157 157 151 148 143
224 185 174 166 179 176 163 131 117 182 194 183 155 187 186 191 205 243 228 229 254 275 302 302 333 341 342 236 266 311 255 264 298 314 287 243 214 206 207 186 185 176 155
135 101 82 88 132 135 139 137 124 121 187 183 159 147 144 155 199 215 204 223 278 314 320 295 335 361 350 332 365 313 289 317 311 329 315 341 275 222 251 240 215 187 186
35 30 43 67 84 109 140 150 163 155 153 183 170 158 133 132 146 176 214 205 219 291 319 338 354 376 336 365 388 378 332 323 346 311 314 298 320 282 306 260 255 268 263
12 14 10 4 -9 31 98 155 170 191 180 164 166 178 169 168 148 146 211 245 240 225 197 271 335 335 344 355 388 399 357 347 362 325 327 329 367 360 360 310 275 291 275
-8 -25 -2 -5 -19 -1 48 81 139 154 149 165 160 143 151 153 153 126 141 177 172 182 186 225 262 296 330 340 384 395 377 375 394 401 401 397 424 500 327 472 287 324 278
-26 -16 -2 -13 10 33 45 84 105 150 181 196 219 225 194 180 163 153 127 121 132 146 157 152 182 234 280 320 339 403 426 393 423 479 509 488 472 463 436 411 425 389 277
-35 -20 -11 3 33 70 102 118 117 130 195 256 240 263 253 236 214 188 154 114 125 136 136 127 154 184 240 280 318 342 390 529 459 502 566 589 479 501 364 415 433 326 285
-12 -6 1 33 49 73 86 91 95 104 126 161 221 219 223 188 156 164 142 97 97 131 145 142 146 145 184 254 288 338 404 549 547 627 661 667 434 555 407 414 358 406 240
18 13 26 37 30 55 64 62 78 93 99 119 173 206 193 185 170 185 111 76 83 131 140 131 134 163 223 267 325 397 474 529 587 616 612 538 501 550 473 527 447 305 186
11 11 23 38 28 42 48 63 84 92 101 110 156 177 109 110 93 83 156 86 77 143 140 153 187 208 265 341 411 470 543 596 604 561 527 501 408 422 336 353 231 163 117
19 15 16 21 31 35 34 41 75 93 104 118 145 118 78 94 110 101 131 129 187 234 234 242 275 305 319 348 447 552 566 544 483 479 467 369 336 216 184 196 127 109 107
16 18 13 14 17 27 26 42 56 64 63 82 82 26 64 81 120 144 181 226 222 219 222 220 251 307 325 347 431 425 381 361 353 283 278 208 187 161 87 63 77 86 100
4 32 18 23 34 55 26 51 49 63 46 54 14 -36 -3 99 129 143 159 177 191 210 218 228 246 311 273 231 213 231 312 295 242 211 183 171 105 78 98 111 128 129 125
4 16 6 9 33 44 41 46 49 46 41 33 -0 -12 -13 79 109 121 140 152 164 179 206 229 201 237 147 191 201 217 214 206 156 112 83 88 98 117 120 134 148 145 149
16 -19 -21 -15 -6 20 30 29 15 18 62 54 31 -0 7 12 33 63 144 146 163 186 207 218 201 209 172 120 157 121 82 72 89 95 84 87 96 115 131 152 155 135 119
3 8 3 -24 -29 -35 -29 -26 7 -1 30 47 49 30 6 58 92 59 85 139 118 176 137 143 116 71 59 56 41 47 57 70 89 110 109 126 133 134 121 131 131 119 111
6 8 5 1 12 -0 -35 -62 -57 -44 -54 -51 -26 -16 -11 -2 2 12 11 22 38 37 56 55 52 31 15 -3 22 51 84 85 93 110 116 112 93 78 102 132 112 97 95
33 13 13 7 1 11 9 -11 -11 -36 -38 -28 -20 -22 -21 -16 -1 2 -0 3 4 17 13 7 13 26 47 79 68 64 68 87 102 101 80 68 72 109 128 128 103 101 110
51 37 31 28 14 6 2 10 -17 -31 -20 -8 -1 2 -5 -7 -9 5 6 8 9 12 13 21 26 28 41 64 92 101 96 73 73 85 95 128 138 131 124 97 75 63 41
74 48 52 38 41 10 21 7 -1 1 17 21 15 8 15 13 10 9 10 16 14 15 19 27 37 47 56 61 62 76 101 119 119 129 148 146 127 97 67 52 36 34 35
114 49 58 38 46 32 29 25 23 36 36 24 17 21 21 23 29 29 18 23 15 22 34 36 43 49 63 76 92 107 119 134 131 151 124 99 69 41 22 17 17 14 20
125 118 81 69 50 57 41 41 33 35 41 41 27 23 29 32 35 36 37 52 58 66 67 66 65 75 86 116 126 138 144 155 133 117 86 39 12 6 3 -0 8 17 22

GFSMW_con_3kmhel_036.txt.gz
Helicity
107 126 128 141 138 145 143 148 172 153 139 151 170 164 176 175 167 156 112 102 105 107 119 125 125 136 157 162 156 160 181 191 167 168 152 142 134 130 132 131 121 120 104
81 93 130 142 144 152 174 167 163 178 192 200 206 191 175 183 152 140 136 115 110 110 141 148 172 152 179 180 182 224 232 206 203 183 170 152 141 144 136 140 135 124 127
145 164 181 193 210 220 205 174 160 150 169 185 209 251 260 245 199 183 154 149 127 142 146 170 224 195 207 249 257 235 223 240 207 202 217 201 160 162 162 149 153 145 144
214 224 226 220 213 226 235 221 187 149 138 146 182 160 219 232 224 192 162 175 166 154 171 171 200 231 263 276 277 280 209 247 273 256 216 253 236 164 152 153 158 161 153
209 224 217 210 181 155 147 147 149 142 120 161 193 186 151 140 138 128 122 120 152 159 173 194 210 249 291 255 289 268 228 251 276 287 303 229 220 217 209 189 176 177 168
136 129 135 144 135 119 118 123 133 132 120 101 145 178 163 138 134 141 153 119 122 146 131 175 236 269 284 303 311 286 285 261 301 311 309 321 283 266 264 249 231 169 191
88 82 76 72 78 94 99 118 137 156 163 158 162 161 161 145 140 145 156 144 177 200 178 157 158 228 253 265 295 340 372 366 327 310 310 294 277 302 285 272 303 295 297
36 34 32 25 34 51 88 146 192 196 196 203 206 196 180 168 154 154 172 164 168 174 152 163 154 168 167 191 205 283 309 331 330 302 351 328 290 295 322 318 328 358 313
29 21 31 43 43 66 95 122 183 251 254 244 215 201 188 174 162 146 130 141 126 136 105 105 134 146 164 168 192 264 253 270 303 317 343 398 393 361 344 412 434 444 438
23 26 19 22 36 63 82 100 121 150 186 219 234 238 216 195 192 172 173 138 132 141 129 109 113 148 189 208 216 225 218 245 320 356 406 479 424 410 423 496 582 435 526
15 29 26 23 48 64 86 103 108 110 115 126 163 202 226 224 219 219 178 172 162 165 145 116 105 116 139 184 226 227 254 242 275 340 453 498 452 490 507 581 614 601 587
14 15 27 33 57 61 74 81 71 71 81 90 103 124 154 187 191 193 186 160 146 129 117 109 89 83 100 122 163 203 239 251 263 291 360 447 540 628 551 632 696 654 600
26 38 35 33 47 35 45 59 63 76 96 104 103 124 153 178 204 194 148 130 134 150 128 123 101 82 93 97 126 178 229 320 376 424 461 530 588 603 487 493 496 394 357
24 38 32 32 49 41 42 51 57 66 102 115 125 156 178 189 145 135 126 89 26 43 60 61 103 134 120 133 194 271 341 371 398 454 459 418 361 378 376 366 277 285 274
23 32 49 40 32 32 34 47 55 69 98 104 95 105 92 50 43 67 103 140 151 79 80 166 122 143 175 175 215 285 317 368 410 387 363 320 300 260 244 206 235 246 236
21 30 42 47 43 61 60 52 42 72 90 65 58 35 -5 -2 -2 21 34 54 50 51 74 43 101 153 153 139 168 239 306 310 287 275 267 250 241 226 208 159 135 142 151
21 17 8 12 18 19 24 32 55 82 66 47 39 25 1 17 11 28 79 115 139 140 141 149 153 161 135 135 160 174 225 235 279 214 173 210 196 191 167 139 96 82 69
2 18 -11 -5 -24 -29 -12 20 42 46 37 43 45 61 35 47 39 27 77 122 143 148 161 198 202 183 143 152 157 212 211 212 176 144 145 130 102 103 102 106 120 104 115
36 1 -24 -34 -43 -44 -44 1 18 32 38 44 33 41 33 44 37 61 79 103 108 134 163 193 204 186 161 177 167 126 102 119 114 67 64 85 99 104 83 91 125 123 134
28 14 -9 -6 -22 -40 -51 -51 -41 -41 -23 -10 -7 14 51 74 75 75 105 95 97 127 147 149 113 95 85 76 57 33 21 49 58 67 63 71 97 112 114 124 152 158 165
41 25 12 11 6 -8 -22 -28 -34 -29 -51 -55 -44 -28 -16 -13 -6 2 6 24 37 44 38 22 11 8 13 28 42 28 28 44 48 68 83 82 119 160 180 202 175 168 148
49 29 21 20 17 3 9 9 9 -10 -16 -11 -7 -1 -5 -10 -4 6 -1 4 7 16 12 11 12 23 39 53 58 68 75 67 65 96 133 157 150 167 175 151 127 71 47
65 55 33 31 27 16 18 29 -3 -11 -7 11 14 9 5 2 1 13 11 10 11 15 18 20 24 31 40 54 68 76 78 85 95 111 117 127 129 131 116 84 42 19 22
88 84 42 46 45 34 26 29 11 6 8 21 20 15 20 22 20 19 13 19 21 25 32 43 51 57 61 67 73 84 93 99 103 122 143 147 118 93 58 26 17 21 21
110 98 56 43 53 48 40 28 26 24 28 26 27 30 26 33 39 40 32 35 34 33 41 53 58 59 69 89 100 107 114 118 127 136 121 102 91 61 34 22 21 20 24
113 112 101 76 68 63 63 48 35 37 36 40 34 36 39 39 40 43 48 62 64 68 76 65 58 72 84 100 103 117 119 130 125 112 108 98 72 39 27 22 24 28 29

GFSMW_con_3kmhel_039.txt.gz
Helicity
84 119 131 132 134 128 132 127 128 138 128 140 147 188 179 161 164 153 118 128 111 111 140 155 131 147 177 200 175 170 209 243 248 258 232 198 150 150 165 155 180 163 151
112 107 109 107 129 129 132 126 123 126 157 179 202 216 175 157 181 176 158 156 191 155 177 176 180 183 196 198 207 207 259 287 301 324 238 217 168 155 181 171 183 167 180
96 92 104 121 137 149 175 167 163 170 182 177 206 228 258 221 185 212 216 185 156 194 165 179 199 216 230 243 248 260 272 319 305 263 320 255 239 199 171 186 199 181 205
148 131 147 163 177 175 169 171 159 155 149 143 166 187 215 242 249 203 159 136 138 140 166 184 204 229 270 279 288 317 340 345 354 301 226 328 341 249 204 167 172 178 181
159 159 162 166 164 164 162 151 142 134 131 114 119 155 179 209 198 165 128 141 135 103 107 150 186 235 269 265 285 317 394 389 377 366 392 318 317 321 316 259 194 151 173
137 136 131 135 130 122 115 116 119 117 111 107 95 94 114 175 193 194 162 155 148 163 128 132 175 222 248 288 308 312 350 380 355 372 367 410 407 363 359 349 295 233 241
104 104 101 93 81 83 84 89 111 126 136 145 142 128 115 132 190 197 193 165 164 162 179 152 151 184 192 202 233 278 345 355 366 411 419 389 379 427 315 310 315 324 317
75 64 54 42 37 40 64 82 110 143 189 217 226 216 202 183 176 177 191 211 208 178 149 140 166 180 185 185 201 238 283 314 338 338 420 432 391 454 451 376 443 427 418
43 40 38 37 35 49 76 103 127 161 184 199 224 253 253 241 225 207 198 191 173 191 190 199 146 138 139 165 207 240 256 332 322 319 327 322 302 348 419 458 395 399 432
30 30 26 30 34 56 81 87 102 124 141 142 147 162 186 200 200 196 185 213 214 142 181 186 192 172 141 146 194 234 267 288 279 283 285 373 428 450 461 508 466 444 392
34 32 31 41 54 63 67 64 83 91 98 99 94 98 120 143 158 180 204 204 183 182 207 213 205 203 163 168 185 217 254 256 274 352 363 406 383 424 447 470 537 529 466
33 24 31 42 58 67 65 65 69 68 75 86 92 103 128 154 164 152 132 122 135 162 173 191 203 191 179 146 122 138 186 206 281 279 279 278 322 380 407 433 482 455 414
28 15 22 44 54 67 70 76 77 75 83 89 95 118 145 171 188 173 165 166 162 152 143 132 125 118 132 129 125 129 165 191 214 202 245 283 325 349 364 375 377 320 307
20 20 17 42 58 56 69 75 64 67 66 68 95 127 150 150 162 157 153 136 154 136 106 103 113 195 168 203 186 202 225 259 266 253 232 248 248 252 259 249 239 266 261
24 28 31 47 58 63 61 75 88 73 67 70 92 104 111 121 125 101 86 80 98 82 126 107 122 148 91 66 97 96 147 172 225 247 240 239 228 184 131 188 180 190 196
15 19 28 46 38 42 56 64 60 62 63 84 73 96 99 94 84 58 51 56 90 104 104 85 57 60 53 -6 66 123 147 187 181 216 230 225 190 215 149 146 148 173 184
22 16 28 23 1 -6 11 27 36 40 38 26 41 69 80 77 67 68 85 105 100 79 89 88 87 111 98 114 152 188 209 191 194 183 177 173 162 206 153 154 142 94 64
23 20 8 -16 -23 -14 -7 6 14 23 20 37 56 79 95 88 81 84 92 99 108 131 111 131 173 211 188 160 174 206 212 179 166 147 115 95 81 95 75 73 82 99 103
39 26 -17 -11 5 -15 -29 -25 -10 -12 -6 24 27 48 70 93 101 93 95 93 97 99 89 89 132 175 165 154 161 136 111 107 161 58 58 40 47 65 70 89 102 96 109
44 6 1 22 17 -8 -17 -20 -15 -21 -21 -20 -14 -10 -5 4 23 48 83 89 106 115 88 74 39 49 49 67 65 30 14 7 -3 19 43 75 112 97 89 106 137 173 210
50 19 28 28 22 3 -0 4 4 6 -7 -8 -15 -18 -10 -6 -4 -3 -5 -1 6 13 12 11 17 25 36 42 46 31 22 41 57 63 76 98 116 130 146 178 211 203 197
44 33 43 38 34 27 25 25 33 11 7 6 -1 -3 -2 2 9 15 4 4 9 17 19 24 29 33 49 58 65 81 94 93 92 107 128 151 167 187 191 174 141 127 111
42 45 58 46 38 33 32 36 32 21 22 19 14 10 7 13 13 21 23 22 19 22 27 28 40 52 56 67 77 90 96 113 119 144 149 142 133 123 122 124 115 82 57
52 57 73 59 45 39 27 39 36 24 31 34 31 25 22 28 28 26 22 29 32 38 44 54 59 66 69 81 91 102 103 103 112 129 141 150 128 110 102 92 70 50 37
74 68 70 68 46 37 34 42 43 46 49 45 44 43 33 35 41 44 39 45 53 52 57 69 70 72 87 115 124 134 134 133 136 125 127 126 125 123 109 91 59 42 37
123 85 76 83 87 67 52 51 56 55 60 58 48 46 45 44 44 49 63 86 81 81 90 90 94 98 104 104 99 106 113 120 121 125 110 120 130 126 109 83 66 49 40

GFSMW_con_3kmhel_042.txt.gz
Helicity
83 117 204 203 232 248 247 245 256 238 219 166 205 282 244 210 198 161 82 145 175 229 219 224 194 274 270 235 182 273 276 242 255 299 301 291 210 203 195 208 203 236 232
113 170 188 153 161 162 201 198 176 175 173 180 179 187 228 238 225 189 146 113 130 232 284 244 278 248 271 300 290 353 372 304 325 377 373 278 257 204 215 229 217 243 252
161 168 131 87 131 138 166 171 168 173 182 214 218 211 220 293 298 244 195 154 140 166 262 254 303 299 284 299 360 378 386 370 351 409 361 288 277 250 224 215 243 271 300
240 277 239 164 90 93 137 150 158 147 142 141 155 178 181 196 259 235 168 145 117 105 127 194 267 268 266 299 333 404 435 471 392 414 293 352 333 282 238 208 199 249 283
230 182 134 118 118 114 118 129 133 128 117 121 122 123 130 139 149 187 215 215 163 147 144 93 152 224 240 259 285 382 433 481 476 480 470 346 380 368 365 302 270 255 279
111 102 99 123 128 118 120 110 111 119 128 112 99 99 104 102 110 135 158 183 172 188 216 176 109 151 215 254 273 278 343 415 484 484 444 441 453 461 459 413 373 294 278
93 130 139 127 105 87 83 88 105 112 130 147 155 167 172 147 129 111 132 185 154 180 195 199 187 161 142 173 221 279 322 357 417 451 409 415 386 437 418 422 385 383 388
109 108 102 83 79 62 58 66 83 100 142 150 165 189 206 201 194 192 197 177 191 196 204 158 185 191 154 144 199 228 275 314 348 330 401 399 414 437 451 399 422 470 512
102 81 77 60 53 56 70 88 105 124 136 145 150 177 185 199 178 170 173 178 202 252 222 226 213 197 186 157 149 185 214 256 278 285 329 411 403 372 385 402 382 413 377
56 79 75 65 57 83 91 101 104 103 113 122 139 142 158 155 160 179 192 195 192 213 209 200 206 220 205 167 161 189 198 216 266 299 310 315 360 373 371 361 356 401 434
87 81 67 63 73 101 104 104 94 88 94 96 109 124 125 130 124 118 132 157 172 187 214 220 204 208 205 205 213 217 218 223 227 234 234 299 313 324 335 361 381 400 431
67 53 37 37 83 87 88 101 99 91 80 100 121 132 134 172 183 148 167 148 133 130 133 149 156 156 184 190 172 159 159 168 167 200 229 245 250 249 240 261 272 287 303
74 40 45 54 89 61 70 95 112 94 76 73 96 113 122 172 189 161 165 171 161 139 141 154 183 179 192 179 175 180 141 157 139 129 151 159 175 196 191 184 184 172 204
52 38 40 70 89 60 74 67 80 83 84 91 103 115 112 142 132 120 113 126 140 146 140 115 114 145 149 140 127 164 180 190 224 204 177 170 150 144 138 138 149 152 164
46 44 47 78 94 82 53 62 83 97 106 91 100 115 107 106 101 108 110 106 97 87 77 72 74 105 130 110 127 170 140 165 217 220 173 130 123 129 126 140 148 130 172
37 45 64 68 57 40 21 32 51 52 55 75 78 75 91 82 74 95 99 83 102 118 113 109 110 94 74 95 55 117 80 114 193 195 280 258 188 151 102 102 102 136 143
48 56 55 42 24 19 25 27 27 47 50 50 49 58 60 57 64 69 66 95 117 123 132 127 92 83 58 84 98 127 114 160 167 208 152 135 133 162 159 120 103 101 139
44 61 39 35 27 19 1 4 4 13 21 45 49 44 38 53 45 67 102 112 114 109 100 93 96 110 120 153 145 147 106 114 147 130 125 113 94 79 97 102 98 113 100
94 64 55 43 30 1 -2 -7 6 10 2 -4 2 8 10 8 9 42 62 62 70 75 75 61 57 54 49 76 84 59 43 54 65 64 38 36 37 52 65 71 61 70 75
64 56 46 49 23 4 -5 6 16 12 8 -8 -1 0 1 -3 3 -8 -6 -5 -2 -3 -12 0 10 40 21 50 51 53 47 58 55 48 68 80 77 83 81 106 140 163 188
71 57 47 44 20 4 4 30 23 13 0 0 7 8 1 3 -9 -18 -10 -15 3 -4 -7 11 12 17 22 39 60 76 83 83 89 89 99 114 137 133 149 165 172 168 163
71 51 70 55 23 13 19 30 30 11 10 19 19 11 4 -4 -16 -8 -10 -23 -2 5 12 27 31 38 49 64 73 89 99 113 112 117 127 130 130 130 128 131 125 127 128
72 58 69 77 37 14 24 39 20 11 16 20 19 13 8 1 -2 8 9 12 21 28 27 35 43 45 53 62 73 83 95 104 111 118 120 129 127 126 143 128 131 125 124
80 80 93 87 56 14 21 43 30 13 21 40 42 32 30 30 28 32 29 32 36 30 39 43 49 51 57 77 94 105 116 137 139 130 120 112 110 116 118 124 120 116 95
113 107 101 90 74 52 36 56 30 32 63 59 52 50 37 48 56 53 47 48 39 43 52 57 63 73 98 90 104 100 100 105 106 105 106 107 109 113 118 122 115 102 77
139 134 101 110 111 84 70 72 62 68 77 70 59 47 52 54 48 52 53 64 59 57 70 77 86 87 94 99 93 91 91 86 86 105 93 96 105 108 107 111 108 87 70

GFSMW_con_3kmhel_045.txt.gz
Helicity
136 145 200 225 218 269 278 270 245 268 236 221 204 186 164 147 138 128 119 164 178 188 210 242 232 278 280 250 234 243 237 251 335 325 267 241 203 204 203 229 288 275 254
122 175 203 226 227 198 212 214 208 201 214 222 239 233 216 214 199 168 147 138 179 188 241 226 289 319 320 304 291 312 331 306 386 376 340 273 270 237 221 250 261 306 332
121 166 205 204 185 177 143 148 167 161 134 143 170 212 241 244 230 232 196 155 140 145 170 204 253 273 340 336 333 335 362 342 419 417 380 300 262 229 247 238 285 297 356
162 182 168 143 68 64 129 159 181 195 182 145 113 107 127 149 159 156 166 156 138 119 114 137 174 230 254 304 343 366 377 472 442 502 383 427 326 251 214 211 224 276 281
177 215 180 142 98 114 134 149 164 180 177 166 157 146 129 100 99 130 143 115 139 133 111 99 128 174 234 228 259 350 318 397 437 492 510 467 473 409 344 242 257 266 293
183 150 153 182 137 119 129 137 141 140 157 144 153 158 152 143 133 118 119 117 109 123 116 148 166 162 159 179 209 198 255 295 368 478 454 462 433 358 388 349 296 265 265
124 149 145 150 135 113 104 101 116 131 153 159 158 155 152 143 142 140 142 156 163 182 219 165 140 144 128 122 152 199 215 256 307 375 411 405 416 399 380 357 276 232 288
113 121 116 116 113 105 102 105 116 132 149 145 145 158 173 161 160 157 164 181 183 189 232 256 213 147 114 119 133 161 162 219 242 271 349 354 330 398 363 304 283 270 276
105 107 115 100 96 102 108 102 107 121 127 132 140 163 179 194 182 181 167 149 159 175 186 188 223 244 178 135 127 155 164 182 224 229 263 324 331 345 333 339 306 246 213
115 108 101 86 101 116 120 137 115 106 101 107 123 141 177 189 160 134 128 120 127 147 161 161 173 204 222 220 233 240 238 210 210 225 230 297 311 285 285 248 252 266 238
116 102 91 90 98 105 106 118 130 105 97 103 121 140 161 179 143 99 115 110 129 135 163 174 178 182 184 178 177 188 201 202 204 200 195 285 271 266 290 273 201 199 213
83 68 59 91 101 87 91 116 124 104 101 102 110 117 128 143 127 108 125 159 151 144 149 160 169 163 158 149 140 158 156 142 143 170 187 225 249 266 255 235 189 118 144
83 78 85 94 92 83 72 79 92 102 100 93 99 101 124 135 132 127 125 116 93 95 100 92 105 110 102 108 120 137 158 152 146 161 185 200 197 181 231 181 151 159 120
74 68 89 101 107 83 64 52 80 108 112 100 114 136 144 137 131 131 120 94 70 63 69 76 85 100 104 120 137 155 135 153 183 164 147 190 171 193 173 174 182 148 151
77 64 86 94 90 80 64 53 66 90 108 105 129 104 106 123 132 121 114 105 80 76 81 92 102 89 84 83 101 124 128 130 146 157 139 144 196 189 179 119 137 181 157
76 90 89 74 66 56 38 33 50 60 69 90 100 86 102 121 113 100 100 96 105 114 103 95 99 91 84 126 129 133 116 109 106 113 145 192 235 186 202 108 68 106 117
88 95 70 57 45 23 18 27 33 45 73 73 71 75 70 71 83 102 109 113 91 82 104 111 105 98 82 94 95 94 63 68 79 126 125 137 105 138 181 156 171 160 120
107 83 59 54 35 22 22 11 15 7 28 43 39 34 39 54 65 72 71 67 59 62 64 82 62 38 21 35 37 46 27 36 41 52 59 54 45 47 73 83 78 79 78
105 79 63 52 35 22 18 32 16 15 21 18 20 25 23 17 17 19 1 -4 12 16 4 -2 12 18 8 36 48 46 42 53 58 67 67 72 68 67 82 107 109 104 127
103 90 64 41 40 36 28 40 9 6 15 8 18 15 -11 -15 -8 -11 -11 -7 1 5 0 8 -5 10 1 38 44 44 41 59 65 63 73 91 98 105 109 140 150 168 161
88 74 60 40 43 27 43 37 27 1 -7 9 12 -5 -11 -8 -4 -6 -3 -4 -10 0 8 4 -7 -3 11 32 59 68 62 68 74 84 88 91 102 112 124 133 142 138 141
78 64 68 47 41 36 43 39 13 -3 4 14 7 1 -2 0 4 11 -1 -10 9 19 17 19 17 13 22 45 49 60 70 81 78 84 85 83 90 95 99 110 101 114 124
76 74 75 57 53 46 38 45 18 9 6 14 15 11 10 10 12 12 10 10 15 33 32 33 33 26 30 38 49 61 63 56 74 72 65 82 81 81 91 87 95 110 117
82 85 88 74 62 45 30 39 38 4 7 21 17 22 30 32 37 37 33 41 39 40 39 41 42 38 49 53 54 64 70 78 78 83 85 81 81 87 90 104 106 108 107
90 99 100 84 72 47 37 50 46 29 15 35 38 40 40 51 58 53 38 46 31 37 50 48 49 51 53 52 57 58 64 64 62 84 84 88 93 99 101 102 104 104 99
118 119 102 94 87 83 50 54 64 63 57 58 55 54 61 52 55 64 63 50 45 50 55 58 57 52 53 60 56 53 56 53 52 95 84 83 88 88 92 97 99 94 87

GFSMW_con_3kmhel_048.txt.gz
Helicity
104 126 185 229 241 250 269 280 240 219 164 167 152 132 103 101 105 134 131 164 169 168 192 187 183 230 237 232 237 251 237 236 265 294 259 239 182 176 221 237 250 250 245
109 158 200 226 235 231 220 224 232 234 220 201 187 199 182 141 117 106 123 147 152 162 194 202 216 245 228 245 250 286 285 285 332 351 351 283 249 236 243 296 287 281 306
107 145 172 180 187 201 196 193 196 188 179 191 219 231 224 214 204 171 130 108 125 137 163 173 194 196 223 254 300 301 317 245 327 376 360 302 266 227 185 202 280 305 337
157 167 167 176 166 156 153 166 183 199 212 200 191 183 179 183 185 184 172 145 125 125 137 145 163 172 208 232 263 285 287 316 290 314 279 367 328 269 209 186 168 208 242
202 199 163 145 154 142 136 150 182 217 218 205 182 161 161 140 131 132 146 151 147 124 117 131 123 162 193 211 217 264 292 318 267 366 331 353 415 401 352 237 249 206 185
189 186 191 158 151 153 165 181 194 197 186 173 169 158 150 147 145 143 141 140 117 123 149 126 124 131 158 189 177 185 225 245 264 319 310 342 329 283 366 379 315 248 192
196 199 187 172 163 168 176 164 160 163 159 146 139 136 135 125 123 127 132 148 145 149 189 180 136 124 133 133 147 153 164 196 206 218 256 280 315 374 385 357 310 271 221
167 143 146 155 156 146 142 129 124 127 124 117 118 122 133 126 131 133 134 143 155 165 190 208 212 195 167 129 109 112 128 141 155 157 195 226 251 304 320 322 332 299 256
154 136 140 142 139 136 124 101 103 107 109 105 108 125 141 152 144 149 135 120 128 136 145 156 171 190 202 180 149 144 150 130 118 127 146 178 187 233 243 260 299 246 234
131 139 136 128 132 116 107 113 102 94 96 108 121 123 146 154 152 127 130 123 117 120 123 127 131 152 175 191 193 179 184 188 167 153 136 158 190 203 211 226 252 270 242
119 129 122 108 99 105 109 106 108 106 110 114 115 129 152 157 152 132 99 100 101 116 130 135 140 152 165 169 167 172 176 175 179 188 179 167 171 164 160 166 211 238 265
113 104 105 102 93 92 81 76 88 101 110 107 108 120 133 139 138 121 123 109 112 129 138 129 128 144 152 150 140 127 138 155 169 167 161 171 186 184 176 159 159 199 207
125 116 103 89 87 83 73 67 72 92 112 118 115 127 129 115 127 125 123 119 133 147 136 125 128 122 112 110 102 103 130 160 143 130 153 170 180 152 113 140 127 169 156
113 103 102 97 89 83 71 64 53 81 117 124 114 119 123 137 148 135 123 135 133 125 117 113 93 82 77 88 102 117 129 141 133 130 138 151 144 112 118 136 148 170 179
99 101 111 99 86 79 72 60 67 87 100 104 89 96 106 121 127 133 147 139 134 122 102 104 111 96 100 93 100 124 149 154 152 155 141 147 136 115 112 116 161 122 82
99 107 110 90 72 59 59 64 67 68 66 77 81 75 84 103 114 128 126 119 126 129 143 143 119 106 85 103 116 130 133 119 103 107 121 146 143 170 138 138 163 95 64
119 114 89 72 62 53 55 48 53 59 61 57 56 52 69 94 103 102 110 125 138 146 138 132 108 87 78 67 52 43 24 29 31 26 37 44 48 64 59 67 92 111 133
143 114 99 81 65 59 53 33 28 35 27 18 23 27 38 49 56 67 84 97 97 88 75 85 79 54 46 50 45 42 14 17 19 32 42 54 56 58 77 95 107 113 112
130 108 100 83 66 58 46 21 17 27 38 40 20 11 16 25 33 39 32 34 36 45 45 40 38 35 20 41 40 23 19 30 29 36 51 67 67 72 100 113 119 119 128
141 128 113 87 66 53 39 17 15 15 42 38 10 11 9 15 20 24 25 22 30 34 20 13 17 30 30 41 39 30 21 31 38 47 61 78 85 98 108 113 115 126 122
134 119 101 71 53 55 36 23 21 6 54 40 26 21 10 10 16 24 25 21 19 19 17 19 19 22 30 32 46 44 30 35 45 55 60 67 76 94 100 105 116 109 112
110 96 89 65 54 47 43 32 19 31 54 35 31 12 11 13 22 32 20 17 20 25 21 22 25 23 25 33 36 41 44 52 53 56 60 62 66 80 90 100 82 96 113
86 82 78 70 51 41 45 38 29 38 46 32 29 24 8 15 32 33 21 20 22 32 34 38 43 34 30 33 41 53 65 72 71 67 61 58 58 66 85 79 88 124 119
85 91 87 66 52 34 35 33 55 39 41 37 39 30 16 22 24 24 33 38 42 47 45 46 47 45 43 40 39 47 53 55 62 66 70 70 82 91 98 106 108 105 104
161 115 99 81 60 59 27 35 66 64 42 41 39 43 41 45 43 43 49 55 43 49 56 50 54 54 48 46 44 49 60 71 66 87 88 89 99 105 99 98 99 102 103
107 112 118 93 74 82 76 53 70 73 65 54 53 59 67 67 60 69 74 59 58 55 52 49 49 37 30 39 52 55 59 62 59 91 93 91 96 93 93 93 93 93 93

GFSMW_con_3kmhel_051.txt.gz
Helicity
72 105 130 173 205 205 177 151 136 145 136 151 140 131 117 135 140 125 112 126 148 143 177 177 182 221 213 196 214 242 224 206 244 242 210 198 185 178 212 238 234 231 245
110 111 130 173 214 211 203 207 204 206 189 169 155 149 139 132 133 124 114 121 124 136 151 154 164 202 222 221 237 270 258 259 274 254 276 211 187 203 206 263 262 256 291
112 131 142 160 199 206 203 203 204 211 209 200 186 189 197 199 170 144 123 114 110 122 140 149 169 164 201 210 215 244 257 212 260 282 247 225 197 188 175 158 162 185 246
155 163 148 164 171 191 192 184 191 200 214 209 207 207 192 178 172 173 168 152 146 133 139 141 157 176 212 220 203 206 209 233 209 276 237 303 301 227 195 204 216 145 148
167 149 153 167 182 187 195 203 205 213 199 211 202 193 200 197 182 168 170 176 172 175 173 147 134 144 178 170 179 205 199 222 180 252 266 244 316 336 294 163 194 216 159
192 210 217 231 226 220 208 202 199 209 212 201 192 165 152 151 152 142 134 137 144 160 182 174 143 122 140 148 154 168 175 177 174 194 226 238 219 209 220 207 194 215 192
265 291 242 213 207 197 184 169 168 181 185 176 162 139 114 101 103 109 112 128 141 151 168 163 168 161 138 137 157 172 178 175 166 160 176 187 167 197 222 222 227 251 197
266 253 211 188 166 165 166 159 149 146 140 128 118 105 96 83 80 90 101 115 119 123 145 158 164 171 185 173 166 177 172 151 130 123 130 169 145 176 192 214 238 232 214
214 200 189 160 146 140 134 114 108 113 111 97 89 96 103 106 107 130 128 119 126 130 148 156 170 176 172 172 175 179 187 157 136 130 146 150 138 147 156 179 200 219 244
190 186 163 157 155 123 105 101 88 82 78 81 85 90 117 143 157 158 141 127 129 136 142 149 154 160 164 166 161 165 182 183 198 200 209 186 178 184 188 170 161 171 181
133 135 140 133 122 115 95 80 73 67 74 84 91 116 130 143 149 144 133 117 113 124 128 130 138 159 177 185 168 168 170 158 142 135 131 173 165 142 155 181 187 177 186
119 138 145 144 116 97 89 76 70 71 75 83 103 135 145 143 139 131 122 110 114 120 127 138 163 182 182 180 176 158 133 122 104 125 142 150 123 121 133 146 155 159 175
145 143 138 116 105 90 77 63 54 51 65 86 111 135 144 138 132 124 109 122 126 139 150 171 174 159 157 156 154 143 142 139 146 151 139 119 114 121 129 126 121 119 148
136 129 124 97 81 74 66 56 45 40 54 101 126 138 139 134 129 130 139 150 145 142 153 145 128 122 138 149 157 157 156 161 160 143 137 132 128 110 119 135 123 130 161
109 102 108 104 97 79 61 56 56 56 56 87 98 104 109 105 111 127 147 147 147 134 122 121 132 128 128 120 126 138 144 146 145 152 145 153 169 135 123 98 76 106 120
82 104 113 113 94 85 68 59 53 66 72 87 89 85 87 92 101 103 107 117 120 118 122 127 121 127 118 130 121 99 84 93 83 66 64 67 71 68 97 78 64 74 87
111 131 130 113 94 75 66 59 67 74 78 75 77 70 68 82 87 95 99 106 115 127 132 130 121 126 118 117 96 83 46 38 28 30 35 37 42 53 53 74 113 131 147
130 142 150 132 105 86 75 75 66 67 66 63 57 53 50 55 64 73 78 90 100 92 83 93 102 90 74 87 77 71 35 37 40 47 40 42 43 45 65 79 101 119 127
142 154 160 143 112 85 74 70 63 58 57 53 48 47 32 36 43 48 60 54 44 45 46 52 71 70 54 64 64 50 37 39 43 43 44 48 54 71 90 88 100 112 127
163 181 171 149 114 82 77 70 50 42 40 45 52 39 35 32 31 36 39 25 27 33 41 55 49 42 47 48 46 41 35 47 49 51 63 76 74 90 92 92 96 102 105
186 179 155 117 92 89 80 63 50 32 39 50 31 25 42 49 46 37 35 34 34 30 23 32 29 37 37 32 48 51 39 40 44 58 68 74 78 86 87 96 88 82 94
142 126 125 98 91 83 75 58 43 43 44 41 25 31 55 59 46 47 36 25 40 29 24 27 38 28 29 39 35 43 40 40 49 53 60 60 56 68 76 85 75 76 102
96 96 102 99 85 69 60 54 42 61 35 38 30 56 58 54 51 58 32 37 29 34 44 40 49 42 40 39 40 52 57 51 50 50 49 58 61 62 80 73 73 97 88
83 83 97 83 72 62 51 48 67 66 47 35 58 67 57 54 55 54 44 42 41 54 54 49 52 55 49 45 44 46 51 47 53 52 65 61 67 79 91 89 86 84 85
67 86 117 90 76 83 74 54 58 78 67 52 61 64 66 59 55 53 58 52 49 68 67 59 64 72 63 52 42 42 49 54 49 75 84 77 81 86 84 84 84 87 90
98 74 68 61 75 92 94 89 79 80 82 70 66 66 79 77 73 74 69 57 60 58 51 59 70 57 46 36 36 36 34 42 52 89 82 84 87 81 80 84 89 97 93

GFSMW_con_3kmhel_054.txt.gz
Helicity
89 84 80 78 93 101 88 85 91 106 133 147 146 131 129 133 120 115 109 115 114 112 134 145 155 184 175 164 189 207 185 185 222 205 168 171 152 162 170 196 180 187 206
50 88 80 91 123 130 144 159 153 144 143 165 165 156 134 125 129 118 116 115 126 132 146 150 144 158 168 174 183 225 208 206 236 227 219 163 129 112 112 153 167 161 193
21 94 115 111 133 161 183 197 196 182 176 163 172 178 171 161 153 153 148 158 146 136 141 143 151 160 177 163 170 210 205 181 197 228 212 188 159 151 128 116 111 110 130
47 88 126 128 130 157 185 198 198 194 186 177 162 150 141 138 150 147 153 160 172 160 145 132 136 143 169 177 169 184 195 211 174 212 172 207 245 174 175 186 157 137 104
92 84 114 131 162 172 178 188 194 206 203 194 174 157 152 150 149 153 164 156 152 160 168 175 159 138 143 141 160 175 177 207 195 216 210 164 206 198 190 148 155 159 129
107 137 177 207 237 243 225 208 203 200 191 178 178 165 156 152 144 133 125 128 132 147 164 163 153 136 123 121 125 145 164 178 172 182 193 186 153 138 148 136 141 152 143
139 239 309 272 269 251 228 213 189 183 172 162 154 146 136 129 117 112 110 118 123 133 154 161 172 165 158 149 138 148 162 170 175 189 168 151 125 152 157 187 190 173 146
136 240 316 320 274 241 196 182 163 169 191 179 149 122 102 88 90 102 107 120 118 117 134 148 165 177 182 183 181 184 185 168 157 147 175 156 122 148 170 194 182 151 152
135 220 320 332 301 263 208 160 151 157 151 138 116 105 100 96 104 120 126 124 126 121 137 150 168 184 194 196 199 217 243 245 258 254 229 193 182 193 160 152 147 163 146
173 200 238 237 226 185 167 159 139 110 87 79 88 88 102 119 131 143 154 148 135 133 135 142 150 155 160 168 175 187 211 225 239 228 233 237 209 206 182 174 176 165 166
145 155 170 177 172 169 153 144 119 88 72 65 70 88 103 125 144 153 151 140 131 133 134 136 138 144 151 159 168 193 198 206 212 230 195 177 176 169 160 146 142 162 175
92 122 144 146 135 124 114 100 88 70 50 47 64 92 115 137 155 161 154 142 130 129 132 137 146 150 160 178 173 169 176 172 176 161 144 153 148 168 150 130 141 152 146
113 118 122 116 106 96 90 87 76 69 66 61 72 100 132 148 156 154 144 135 127 121 142 150 159 154 161 152 163 165 169 172 174 180 182 175 167 164 141 134 124 120 123
90 110 107 106 107 96 86 80 73 60 56 65 87 110 130 148 157 152 144 133 123 123 135 130 126 121 124 135 138 147 161 171 173 172 174 170 153 155 142 128 129 109 91
92 95 110 123 114 107 95 75 59 40 48 57 80 96 106 116 123 131 132 132 131 121 113 121 126 123 120 110 114 128 139 134 133 141 146 145 152 123 106 73 65 56 48
80 107 126 119 117 109 93 72 54 50 46 53 73 90 91 103 102 110 119 122 121 114 115 129 120 127 116 119 111 97 78 75 72 65 61 59 83 80 88 88 102 72 58
93 108 121 125 123 118 106 80 70 72 77 77 76 77 85 89 98 103 107 107 113 107 119 122 118 112 105 109 92 78 60 62 62 50 42 56 55 63 73 98 113 104 114
107 85 143 147 136 138 116 102 85 78 82 75 64 57 59 65 77 91 99 99 102 106 95 93 84 77 67 76 80 70 41 42 42 49 50 57 58 38 74 82 94 96 105
106 127 154 165 174 152 124 102 85 78 78 68 57 52 49 53 62 68 72 80 85 69 65 57 54 53 43 55 55 48 40 49 49 45 39 43 57 78 77 73 84 92 95
128 157 178 192 178 138 124 101 80 78 65 59 56 51 48 52 60 58 69 61 55 53 39 54 47 45 36 41 50 46 39 50 46 46 55 64 52 65 66 63 71 79 72
155 184 189 160 133 129 110 82 80 63 60 64 60 51 51 47 53 66 63 57 53 43 43 38 38 39 43 35 45 55 48 49 50 54 52 54 68 73 66 71 56 53 74
136 150 164 143 120 105 92 81 66 72 72 67 66 60 57 55 55 62 64 64 39 39 34 32 28 29 32 26 29 45 55 55 55 55 54 48 53 46 52 64 54 82 90
84 105 115 108 115 105 72 80 63 85 82 73 75 75 69 70 64 49 52 55 47 45 44 48 46 39 37 34 47 53 49 48 53 51 42 55 52 52 64 57 77 87 81
59 86 101 91 83 83 77 70 82 91 90 80 79 88 74 56 48 47 60 61 55 58 58 60 58 53 50 48 53 54 52 44 48 44 47 46 50 57 65 72 76 77 78
77 36 63 117 85 99 76 75 88 103 88 83 89 87 73 39 46 46 62 59 56 75 73 68 70 76 63 58 55 58 55 53 44 60 78 65 61 63 64 65 68 73 77
79 71 48 49 61 99 106 80 98 107 102 93 84 80 79 74 67 70 64 46 45 42 41 56 71 68 59 58 51 46 40 35 36 94 84 73 69 68 67 64 66 78 82

GFSMW_con_3kmhel_057.txt.gz
Helicity
224 161 132 111 79 68 58 41 55 58 82 105 106 99 91 85 79 81 74 75 74 73 78 79 78 95 101 90 100 112 117 123 145 140 121 106 96 103 108 98 101 83 95
200 177 129 129 112 98 94 97 79 93 99 114 123 124 106 95 98 92 77 74 78 84 99 103 102 101 111 100 102 124 148 153 165 171 182 132 110 111 83 80 92 95 104
175 129 95 98 89 83 104 125 130 134 142 133 150 149 145 128 114 116 116 136 142 129 119 109 108 108 126 133 123 135 143 155 174 153 181 178 145 120 117 88 86 83 83
36 92 54 54 98 125 141 157 174 180 187 166 154 138 132 124 125 126 130 135 151 158 167 155 148 138 144 148 145 149 153 174 179 201 170 172 200 153 161 174 114 100 87
4 56 30 69 110 140 155 183 200 208 201 188 165 149 144 140 133 132 141 157 177 192 197 190 183 166 157 143 138 136 154 176 181 203 203 164 188 187 175 168 125 133 130
7 48 99 138 156 178 178 181 192 207 190 176 171 153 136 131 132 135 138 148 145 146 170 170 168 162 149 134 126 119 133 152 163 179 203 230 216 181 190 168 124 128 127
75 97 152 203 215 208 195 201 196 210 200 180 168 154 139 132 125 127 127 132 141 149 161 163 164 158 154 142 133 126 127 144 182 182 195 195 166 178 173 167 135 139 140
73 107 157 257 265 281 244 228 205 188 172 161 152 147 142 133 131 131 127 128 127 127 133 136 140 151 157 162 155 155 158 160 167 176 180 185 185 188 204 181 170 161 142
65 91 165 253 311 323 297 242 212 194 169 143 127 138 149 128 117 123 126 130 136 132 135 135 142 155 163 170 168 175 194 215 231 219 217 217 247 224 200 176 168 171 154
86 111 185 269 315 295 271 231 198 167 155 152 138 122 117 115 116 123 138 143 140 137 131 132 141 151 158 160 149 153 167 176 190 203 210 225 224 211 196 161 153 167 162
97 160 199 239 245 253 222 192 163 141 126 119 107 97 102 115 133 139 144 147 142 142 140 136 139 147 152 151 149 163 174 194 194 203 200 206 192 171 164 160 173 168 153
92 125 149 166 160 153 155 152 146 121 104 88 87 96 106 118 132 143 146 148 148 149 141 138 137 139 147 151 158 168 167 162 169 170 164 160 142 152 162 165 164 161 167
83 107 103 100 113 104 104 107 102 92 82 77 80 92 104 118 137 149 154 163 161 158 150 137 133 143 154 158 170 158 154 154 151 153 155 137 128 145 152 165 161 151 133
51 76 80 74 84 97 96 93 91 84 84 81 83 93 109 131 147 153 156 161 168 158 143 131 124 130 135 133 127 128 131 136 143 148 146 142 140 139 133 133 120 96 89
76 71 85 85 94 105 105 101 93 84 81 84 82 87 113 128 128 138 147 159 153 143 129 127 134 124 105 92 102 114 119 120 123 116 113 113 82 72 78 68 69 60 55
109 78 90 120 120 118 113 103 93 83 79 64 59 70 94 95 102 110 118 125 127 127 126 127 128 115 102 95 103 94 84 68 63 68 70 80 90 96 86 95 101 90 83
92 138 117 113 124 129 129 112 97 93 78 61 64 68 75 81 87 104 110 112 111 106 121 120 107 107 103 95 90 75 64 72 64 61 60 67 62 79 80 95 103 97 88
39 94 115 139 138 139 143 135 117 93 89 83 73 66 67 72 73 92 102 103 103 103 103 101 98 89 86 81 70 70 56 55 59 57 57 63 55 62 81 81 84 83 98
98 74 115 148 176 162 159 144 123 108 97 82 70 67 71 72 69 60 77 82 94 92 85 71 58 63 59 53 52 55 45 51 50 47 45 60 72 78 78 80 84 76 76
110 111 126 178 208 170 166 154 118 109 90 78 66 70 70 62 66 60 60 56 57 58 42 37 50 47 37 41 44 43 37 44 45 46 49 56 60 71 76 73 71 80 72
99 124 167 189 175 168 159 131 115 91 81 89 87 73 59 68 57 53 36 44 30 30 30 53 47 41 36 30 44 47 37 47 48 50 55 59 59 60 60 67 55 61 63
108 128 172 165 141 138 143 117 85 85 92 97 88 79 76 65 56 54 54 38 25 24 35 49 37 35 25 41 34 48 50 49 52 48 50 51 53 53 52 64 52 86 72
89 85 97 106 110 116 114 100 70 82 90 88 84 82 80 77 60 56 49 45 33 37 45 51 48 44 40 42 38 54 59 60 53 49 37 47 60 66 72 63 78 73 70
40 46 63 71 81 85 92 94 88 77 89 89 90 88 88 74 68 67 53 43 48 56 50 56 56 53 57 50 53 56 61 55 57 47 47 45 55 71 77 76 77 71 69
43 38 50 25 62 92 104 108 96 82 92 94 93 91 87 81 72 52 55 52 44 60 64 59 63 71 63 54 56 64 65 58 46 60 64 62 65 72 74 73 72 70 69
59 61 47 63 47 68 83 99 116 111 112 85 91 92 85 81 75 63 63 34 30 35 28 39 66 65 60 68 68 53 45 46 44 95 79 67 69 73 72 67 65 66 65

GFSMW_con_3kmhel_060.txt.gz
Helicity
90 113 131 124 111 78 64 54 47 40 58 71 72 71 71 71 78 81 77 80 80 81 78 79 78 81 86 84 90 100 102 106 109 132 119 99 104 100 101 86 84 91 84
103 130 149 156 133 116 88 68 47 41 44 62 72 85 90 89 85 96 84 83 83 84 91 88 89 87 94 88 93 104 117 118 134 155 163 159 118 122 101 87 80 72 75
94 131 167 167 147 113 108 102 88 71 78 83 116 120 124 119 111 100 107 119 119 109 107 104 107 109 131 131 126 138 133 171 162 133 190 187 138 194 151 106 94 80 92
192 202 172 136 122 124 120 98 103 110 121 117 121 107 105 105 122 132 127 123 129 128 130 127 132 141 152 146 135 147 155 172 185 223 173 177 235 203 191 142 100 122 115
102 171 160 110 110 115 88 101 128 133 149 155 154 140 130 131 124 119 115 121 125 141 149 161 161 156 152 139 134 129 142 162 175 195 211 181 194 176 197 182 155 146 135
136 99 54 -2 39 66 89 113 140 157 162 162 159 148 128 118 114 115 117 125 137 149 172 174 164 154 144 129 126 121 120 133 140 158 181 223 224 200 190 185 158 152 135
38 21 -8 86 172 104 115 138 162 167 164 155 152 143 133 124 117 118 123 128 134 142 155 162 154 149 145 139 136 128 130 133 155 141 165 204 189 226 224 220 186 174 129
60 75 40 -1 62 83 120 136 158 189 183 171 163 155 139 132 133 134 135 138 146 152 150 144 137 133 132 131 130 132 137 147 155 153 170 182 181 204 212 211 191 161 110
48 91 81 66 85 160 195 208 207 213 198 184 171 155 143 127 118 132 143 148 149 148 137 133 132 132 133 133 133 142 160 170 188 203 207 208 221 226 212 195 176 191 156
41 68 65 83 140 172 232 239 227 208 205 186 167 154 148 152 138 129 135 145 150 145 136 130 132 133 135 139 128 145 156 147 155 159 173 189 177 181 190 199 176 164 147
51 57 93 86 170 245 240 255 246 227 204 181 165 146 147 130 118 114 125 138 141 144 137 138 137 142 145 142 145 149 144 150 151 158 155 156 151 149 145 138 140 142 142
60 56 85 112 170 200 213 185 171 157 153 143 122 114 105 101 102 113 125 131 132 141 137 132 136 141 141 145 142 146 151 151 158 146 139 135 115 123 136 140 150 142 147
12 53 62 99 128 135 142 142 126 108 97 97 89 80 75 81 94 110 125 134 128 130 143 142 141 141 147 139 158 160 156 154 146 137 137 131 126 137 140 148 149 144 131
35 52 37 48 69 86 95 102 109 107 99 83 71 67 70 79 98 119 137 147 157 147 154 156 146 144 143 135 139 141 136 131 132 137 141 130 123 114 109 102 94 81 73
52 50 55 47 60 69 78 86 92 93 86 81 72 71 81 98 119 131 140 150 157 164 153 137 118 114 122 120 116 101 103 105 111 109 100 107 90 82 72 65 75 75 73
76 35 35 41 50 62 77 94 93 90 82 72 75 83 83 80 98 116 122 129 145 141 136 119 116 117 119 104 98 86 89 89 69 73 77 72 73 72 71 85 98 94 80
60 -11 42 58 66 82 95 92 92 94 87 76 72 80 82 81 79 101 121 120 125 120 126 121 113 117 105 91 89 91 83 62 62 63 62 70 67 72 68 79 82 88 106
49 57 18 55 56 89 108 122 119 110 96 88 86 88 90 92 92 100 114 126 123 105 112 109 94 81 82 77 85 81 68 63 63 71 69 62 61 71 73 73 74 75 87
29 63 30 25 76 114 135 153 147 130 114 99 82 81 84 93 99 93 100 111 112 97 93 92 82 78 65 60 54 56 47 56 65 56 50 56 64 77 71 78 77 69 70
70 84 42 72 115 133 152 163 147 126 109 97 92 91 81 87 91 94 110 100 93 81 70 63 53 41 47 37 35 30 44 49 49 41 44 54 54 66 73 73 71 69 72
83 78 84 88 114 155 170 145 135 123 95 101 107 102 91 94 97 103 95 88 85 59 36 20 27 33 28 32 25 36 46 47 35 38 44 52 57 60 66 68 74 76 69
76 73 93 115 131 152 142 140 113 108 121 108 100 99 92 96 92 97 95 75 57 29 22 25 30 26 29 32 30 34 39 36 31 42 48 60 55 52 48 59 63 88 71
57 67 88 123 129 111 117 117 108 131 118 126 108 81 96 98 92 89 79 69 54 39 37 40 34 31 36 34 29 30 41 34 38 46 51 59 63 60 54 60 79 79 72
37 56 69 71 81 82 93 110 133 117 98 185 101 90 95 92 93 86 71 65 54 50 55 45 41 47 48 45 55 53 52 49 53 52 53 57 63 61 65 73 78 74 79
40 34 26 35 53 60 67 108 105 119 110 98 86 90 86 86 87 73 72 52 44 56 66 55 54 63 63 55 52 64 72 66 62 68 67 65 69 68 70 74 79 83 80
45 46 57 54 44 58 61 75 107 121 99 160 142 98 84 90 82 83 69 26 36 32 29 41 57 63 54 62 58 59 62 63 51 66 68 71 77 76 75 77 80 86 80

GFSMW_con_3kmhel_063.txt.gz
Helicity
61 61 60 88 122 119 79 69 64 56 69 78 72 60 74 62 58 65 73 91 89 94 98 101 102 104 100 92 89 103 117 124 106 117 125 99 97 104 116 130 112 112 133
61 58 83 71 124 133 105 75 58 59 62 78 76 63 55 72 74 92 93 90 94 102 110 104 105 118 123 97 100 111 146 155 160 189 158 154 121 125 160 181 142 118 115
106 85 64 75 127 159 146 108 97 96 77 67 78 103 134 144 148 122 105 110 129 129 150 154 151 142 158 159 163 183 187 180 190 172 201 196 182 191 217 210 165 104 115
164 297 59 142 126 152 168 154 107 87 91 90 102 112 110 120 110 146 167 153 129 133 136 127 120 125 142 157 157 154 161 179 177 207 200 199 242 212 223 199 150 112 131
88 139 264 183 135 147 161 124 146 133 121 115 112 118 129 151 204 161 136 121 114 130 137 139 150 146 156 158 153 143 137 155 169 174 183 174 173 184 216 208 180 137 153
51 46 81 152 197 165 145 104 120 159 125 116 119 124 143 166 164 148 128 119 119 116 132 148 150 156 146 141 137 134 131 124 126 135 150 172 204 198 233 220 190 193 179
74 51 55 147 167 167 146 118 84 103 82 113 111 117 155 167 159 147 124 117 93 98 107 136 148 150 153 141 133 129 119 115 129 132 152 162 169 188 229 270 223 169 157
75 113 144 182 133 175 101 109 94 117 142 150 158 178 180 170 151 135 128 122 139 160 170 137 140 143 138 126 122 126 134 127 138 149 151 147 180 196 224 210 236 219 170
68 63 75 121 167 67 67 113 141 132 156 152 180 174 165 155 133 123 129 142 160 172 163 144 142 138 134 131 126 136 138 162 156 177 175 199 213 201 200 187 197 199 187
66 55 63 81 117 136 134 192 224 189 238 255 213 199 171 155 143 128 116 129 145 141 148 147 135 128 122 128 129 130 152 163 160 163 151 170 170 187 180 172 171 165 165
70 51 49 60 79 125 144 162 240 307 299 280 221 181 160 137 129 129 132 133 135 130 132 140 135 134 133 134 132 123 135 135 137 150 151 152 155 159 160 162 162 157 140
80 -14 9 55 94 115 152 197 195 184 197 197 170 147 129 114 102 108 119 122 118 127 131 130 134 135 138 147 162 140 140 129 138 143 149 153 142 139 134 124 138 138 153
-26 -19 17 29 71 70 110 148 169 201 198 170 151 134 119 115 109 111 107 112 126 130 135 136 139 142 151 153 162 150 146 160 175 160 156 142 130 136 137 144 142 138 130
47 37 63 59 61 56 79 115 137 145 146 143 132 119 111 101 103 114 115 123 131 137 152 166 159 152 153 156 157 153 158 176 185 167 160 149 148 134 127 115 86 66 56
40 52 62 80 82 62 72 85 99 111 109 109 102 97 94 103 104 107 117 134 151 181 182 168 157 143 139 132 129 145 144 140 139 131 135 152 134 128 104 87 84 89 93
26 45 73 75 70 67 71 85 89 94 90 83 76 76 80 81 83 82 105 133 150 159 162 152 146 142 128 116 129 124 129 111 100 110 99 88 87 76 75 90 115 111 103
23 50 71 81 80 70 71 79 95 101 91 83 85 85 81 89 91 92 98 108 131 147 153 154 144 140 130 128 136 126 120 115 108 79 77 70 58 61 55 72 83 113 125
73 47 72 62 76 37 87 126 131 110 104 94 92 90 87 82 87 96 105 125 144 155 158 158 134 133 122 106 113 108 119 103 78 64 54 47 40 54 65 76 75 88 106
52 51 111 124 96 65 124 150 152 135 117 107 96 102 108 97 95 105 115 129 146 169 168 146 133 125 106 83 85 87 69 66 55 41 36 44 42 61 77 73 68 68 90
42 68 101 81 65 105 175 160 153 149 136 119 116 121 113 104 109 113 132 134 144 157 139 137 116 93 85 66 49 39 55 43 40 44 50 52 72 63 54 59 65 73 91
52 59 64 68 73 129 130 153 170 165 145 133 133 134 127 113 112 137 133 146 147 140 119 107 81 68 34 21 27 40 48 43 50 47 42 53 53 55 53 48 61 84 85
42 58 60 60 93 129 127 132 136 142 147 136 148 155 150 143 129 129 152 146 132 94 73 58 38 29 24 32 28 28 34 52 51 50 52 63 55 55 41 39 46 61 77
26 42 45 50 63 75 94 113 122 134 137 145 145 150 153 146 151 118 132 126 100 73 58 52 51 49 48 52 28 28 29 37 48 54 62 68 56 50 43 40 46 63 62
24 42 51 48 54 66 85 114 122 111 122 136 144 161 182 167 158 134 131 118 106 84 69 60 58 59 68 62 70 65 56 39 53 53 57 51 50 48 55 72 64 65 64
52 50 48 54 50 43 45 76 102 105 133 159 164 148 177 214 121 93 100 97 81 74 79 76 75 79 77 76 68 78 84 84 70 73 81 76 69 70 76 77 71 79 85
79 73 63 61 78 74 78 84 112 111 128 154 156 130 167 215 151 121 89 31 41 44 47 79 83 81 68 82 54 50 56 60 70 93 88 77 78 80 84 90 95 100 95

GFSMW_con_3kmhel_066.txt.gz
Helicity
124 112 96 39 77 98 119 129 145 120 125 121 129 109 89 82 68 49 64 86 97 95 112 114 105 116 125 117 112 119 116 124 123 132 130 126 122 125 120 126 139 110 120
111 182 153 65 83 107 119 132 141 133 123 127 120 114 100 75 72 61 92 110 111 125 142 133 119 134 147 124 121 135 140 152 158 173 163 161 152 116 107 136 185 182 170
75 195 181 93 103 124 129 141 138 133 130 128 130 116 146 136 125 126 134 127 124 158 171 176 161 156 151 141 147 163 167 160 175 189 225 199 185 189 164 181 211 189 154
363 151 176 174 135 129 182 198 213 171 142 129 135 150 151 157 126 132 173 201 179 170 184 174 166 150 150 146 143 150 167 182 191 191 198 195 214 193 202 192 208 205 177
188 294 215 192 153 162 167 194 194 191 206 184 176 191 169 140 170 202 207 171 148 141 149 152 158 153 148 153 164 167 168 175 184 181 172 166 168 178 196 193 163 177 178
76 81 96 194 154 202 231 205 208 214 188 166 164 164 135 167 189 180 180 165 154 137 139 146 144 152 153 162 174 170 154 152 160 154 147 156 172 177 180 184 166 171 172
87 96 129 112 153 208 200 192 196 202 177 146 128 144 172 151 139 138 151 179 168 142 113 140 147 153 165 162 154 148 143 137 149 132 137 141 134 158 208 196 172 161 157
124 119 150 165 184 233 215 173 181 193 169 153 163 199 238 244 255 227 223 189 188 197 196 164 152 157 163 152 145 143 133 132 133 172 165 155 162 152 183 201 195 159 123
116 110 92 116 201 208 189 211 201 185 172 184 240 227 271 219 187 203 196 186 185 195 199 174 168 167 153 144 139 136 158 184 172 152 144 154 168 173 176 162 173 170 209
139 121 75 79 101 200 200 146 172 218 248 271 293 319 250 238 186 188 179 183 173 165 170 180 172 161 149 138 137 139 157 174 167 152 134 142 144 147 158 166 169 143 187
70 100 79 51 61 136 185 157 188 197 249 337 435 380 379 398 321 218 192 170 157 153 158 163 156 150 150 154 144 122 120 124 135 139 148 140 139 145 141 153 168 157 151
-38 26 45 11 56 69 133 189 236 272 229 234 237 238 253 252 247 210 179 173 149 174 171 153 143 149 160 160 176 150 151 114 122 134 153 159 162 166 167 143 170 170 167
37 -13 -21 22 64 75 134 175 218 206 204 241 229 245 237 226 188 186 186 170 163 147 136 143 161 178 183 208 216 215 203 220 229 204 189 193 177 183 172 174 161 142 139
1 11 35 40 60 86 87 128 150 178 195 189 188 176 151 137 148 153 158 142 138 136 139 190 200 198 194 198 211 235 231 226 203 203 198 207 184 150 124 124 112 96 77
48 38 43 71 78 107 89 112 116 130 142 145 155 158 171 175 172 168 149 153 151 173 201 171 158 167 173 169 176 189 194 186 182 168 158 143 152 159 135 97 91 81 88
52 49 54 74 99 147 157 144 146 141 140 133 120 118 120 125 127 132 145 150 152 161 148 138 138 143 162 157 150 173 168 167 160 160 136 133 131 96 83 99 101 102 79
41 36 37 50 108 141 203 198 177 171 154 126 116 125 113 108 91 92 100 95 111 127 130 142 153 161 175 141 160 172 185 178 156 134 124 99 68 66 64 72 84 95 110
31 41 48 55 63 125 202 237 220 191 168 142 146 148 137 134 134 125 112 100 117 121 124 135 155 176 181 153 146 166 157 142 120 103 83 51 41 43 57 60 68 80 92
31 35 42 66 94 108 202 279 257 215 200 167 163 169 168 167 169 108 85 108 128 130 126 142 154 154 171 138 125 133 112 102 71 56 44 30 35 39 66 68 57 62 68
34 40 38 40 68 115 220 301 270 226 204 205 185 189 189 171 154 103 123 131 134 137 134 149 141 111 125 87 93 90 81 74 51 48 56 56 66 51 49 68 65 70 68
18 13 11 35 75 102 237 282 226 201 208 204 198 202 189 176 166 159 149 146 152 141 133 127 109 116 92 74 64 44 51 52 50 49 47 46 50 49 43 50 66 64 69
7 18 12 27 77 114 133 152 155 160 187 205 208 198 194 193 167 158 167 169 160 131 119 114 87 73 57 44 34 27 35 53 57 54 55 55 46 43 41 40 34 57 70
42 28 18 25 42 62 85 99 106 140 150 176 189 185 191 192 176 174 179 160 157 126 84 93 80 63 42 46 28 24 32 42 60 64 52 50 44 42 48 32 40 53 69
74 61 45 29 33 46 43 60 114 133 147 156 164 181 185 194 187 187 167 176 186 127 60 80 54 53 54 55 56 58 55 40 56 58 63 53 51 43 41 49 55 74 68
62 81 68 55 41 53 52 48 95 109 106 127 153 180 188 179 180 153 187 195 89 83 96 81 87 76 71 69 66 72 73 76 80 84 86 83 76 71 66 64 60 65 67
55 73 89 67 64 65 91 86 107 111 109 132 164 141 172 179 174 125 141 146 93 28 29 46 62 58 62 55 45 47 54 58 66 106 113 99 89 82 74 74 76 84 78

GFSMW_con_3kmhel_072.txt.gz
Helicity
117 98 113 76 82 93 110 165 133 122 160 172 166 150 144 152 177 158 122 124 98 85 87 83 71 75 77 72 79 94 91 91 100 101 103 96 91 98 102 107 81 89 108
84 96 87 83 69 50 109 105 107 156 136 168 182 159 135 137 151 169 137 118 79 98 98 82 75 74 72 80 94 102 105 101 101 102 88 101 109 126 107 117 105 103 142
60 84 121 94 92 86 58 71 89 123 135 136 198 184 168 165 183 149 134 100 97 110 104 108 105 104 111 111 116 127 110 93 111 149 138 117 108 111 119 172 162 158 174
48 93 111 128 126 111 117 109 105 121 106 177 200 201 201 189 166 134 105 129 171 172 170 188 161 136 127 116 124 136 136 152 122 118 155 172 206 152 149 183 154 179 182
91 88 56 146 183 146 126 95 99 97 123 158 200 183 196 183 159 170 174 239 234 194 172 174 169 164 150 142 143 139 149 169 169 169 157 161 177 187 205 171 170 176 180
67 72 41 67 131 199 193 195 136 115 146 157 145 156 157 180 135 174 278 291 219 180 167 172 160 154 150 139 148 174 158 151 160 163 161 170 171 186 206 212 194 173 180
94 105 74 55 85 136 144 136 136 129 131 154 179 161 187 189 202 132 213 249 239 224 200 169 143 149 148 158 169 136 123 130 149 148 157 171 172 184 183 204 185 183 164
130 129 108 92 103 88 106 108 115 123 136 118 114 137 156 209 227 238 220 190 199 215 200 160 140 142 142 137 172 118 120 134 138 140 158 168 165 177 174 178 171 190 165
151 131 148 154 131 90 67 82 114 139 138 124 125 127 125 160 203 189 178 173 184 182 185 251 411 320 195 154 153 140 126 155 160 145 153 163 151 148 156 156 154 154 186
130 117 100 106 108 103 107 99 104 95 109 114 141 165 212 238 275 206 193 196 265 243 235 245 207 252 191 148 125 111 140 150 143 153 150 147 144 138 140 151 149 160 170
214 191 117 88 90 69 52 50 77 94 105 131 144 180 223 268 315 376 384 382 380 357 308 245 198 192 187 166 163 154 148 146 127 133 134 131 144 140 149 152 163 161 161
116 95 58 16 -16 -4 35 46 60 73 94 125 155 176 208 238 266 281 279 295 279 249 225 197 197 178 179 185 183 169 161 134 126 122 133 139 158 164 167 157 166 153 155
66 61 43 31 32 6 -0 36 54 67 108 144 175 194 204 213 221 224 234 250 245 213 195 169 149 151 167 187 186 166 159 166 180 192 172 170 169 162 151 151 141 136 137
43 20 27 33 32 20 29 47 73 88 122 142 157 167 171 183 197 198 192 177 166 158 146 138 138 142 151 152 153 158 161 181 192 197 205 197 192 162 153 153 142 148 138
88 58 44 27 13 35 47 61 93 113 127 126 135 127 144 164 171 170 163 158 146 133 129 142 138 127 120 113 119 134 143 160 177 188 187 178 178 176 166 145 138 127 125
77 60 49 54 46 34 42 64 90 136 147 137 118 122 129 141 145 155 150 146 139 133 132 119 104 100 100 81 98 122 150 170 184 192 204 203 194 160 142 146 121 96 90
109 108 105 81 70 73 43 59 79 145 177 154 138 135 136 134 136 135 135 128 120 128 117 110 107 95 89 80 77 97 168 188 183 177 172 177 177 151 136 124 154 111 85
117 86 63 78 76 58 73 45 58 130 173 181 145 152 160 144 132 131 123 123 122 109 119 114 112 118 109 90 103 153 200 203 197 170 138 138 127 109 90 85 89 69 77
59 44 31 35 46 52 50 43 37 118 173 175 164 161 183 171 150 139 133 130 120 119 112 123 117 123 108 99 98 155 177 169 158 123 102 94 86 63 55 59 60 55 77
3 12 13 13 28 43 35 35 47 99 136 173 196 199 189 180 162 154 147 150 139 105 118 118 121 101 112 87 86 124 141 138 128 104 67 41 52 38 42 50 53 60 54
5 31 41 36 59 71 46 48 45 71 107 168 216 187 176 173 167 175 183 161 139 130 124 112 111 115 117 101 86 128 159 124 95 80 54 43 32 30 37 51 59 50 63
34 59 66 59 71 110 79 73 58 71 82 106 127 147 166 180 184 187 179 171 154 138 123 119 116 121 119 87 85 99 97 70 76 61 42 47 22 35 38 52 41 46 64
61 81 106 89 79 116 97 89 89 68 79 93 109 137 156 174 183 195 185 168 163 148 139 145 136 127 129 113 65 77 57 42 52 48 40 32 30 39 43 41 37 37 81
65 77 96 106 106 159 136 109 86 79 85 94 99 116 145 163 179 187 178 175 176 162 161 166 138 123 127 134 97 65 44 24 31 39 43 46 47 54 57 52 54 77 80
42 54 62 64 86 119 127 124 87 95 94 92 99 112 127 136 151 156 178 175 155 148 167 164 156 155 137 99 71 66 57 46 51 63 75 92 93 79 75 73 67 71 74
45 27 43 53 38 43 93 105 90 95 97 104 103 104 117 123 135 138 126 81 77 61 65 73 113 124 67 76 57 40 34 38 47 95 110 89 97 100 98 90 81 93 93

GFSMW_con_3kmhel_075.txt.gz
Helicity
193 186 131 96 86 80 106 102 147 139 165 186 151 81 84 129 157 165 151 129 129 116 118 96 100 90 84 69 65 83 68 68 76 80 69 80 66 76 80 87 82 94 82
105 98 100 103 88 74 68 108 106 91 137 130 122 179 210 183 195 156 122 124 129 122 135 109 92 86 84 65 74 91 99 88 88 83 90 70 72 91 68 89 92 113 127
97 89 85 93 92 87 70 63 74 89 122 148 215 227 187 158 163 146 135 143 136 130 118 106 95 94 90 81 90 101 97 83 94 105 106 92 88 94 107 123 143 145 138
61 50 70 82 90 51 83 67 51 76 110 122 144 151 149 121 131 157 160 136 145 119 120 101 108 103 100 90 100 103 105 123 99 117 146 174 195 141 123 129 147 179 155
67 49 50 57 64 91 93 98 95 76 104 144 142 158 181 139 143 121 144 114 137 148 173 176 146 116 114 106 95 116 100 111 123 144 149 155 170 171 196 146 146 171 185
98 70 115 107 93 109 158 139 93 75 91 108 151 153 134 123 163 185 166 110 116 100 128 149 169 173 155 134 99 103 115 111 131 149 140 144 136 138 163 179 168 150 159
73 81 113 90 74 92 92 131 129 106 89 102 118 113 134 157 141 168 210 267 253 215 115 132 142 157 178 142 128 143 155 152 146 123 108 129 148 175 165 169 160 168 161
94 100 103 80 90 89 106 99 108 89 91 101 89 97 114 145 150 187 223 243 222 249 252 107 123 152 163 151 207 197 172 144 114 90 108 136 148 166 165 165 148 140 151
151 138 121 114 133 125 129 102 96 81 82 86 102 103 97 105 141 170 195 235 228 202 183 161 125 117 139 155 160 149 108 111 107 106 112 144 162 160 148 138 140 166 160
168 168 149 136 118 106 99 102 78 78 94 101 118 117 110 113 119 155 177 197 193 203 215 203 277 272 203 158 135 122 106 90 96 130 148 156 147 145 141 134 146 149 155
130 129 132 141 126 120 114 99 71 64 83 87 98 108 112 127 145 181 209 221 263 272 294 290 288 260 238 180 160 146 145 137 134 153 162 152 144 136 142 146 158 159 170
137 139 139 126 117 78 58 54 64 64 52 67 74 80 111 135 149 158 181 223 236 228 250 241 245 228 187 165 169 154 129 120 129 134 143 131 151 157 176 160 155 155 163
115 91 81 59 51 47 38 41 52 74 72 70 91 116 137 156 160 179 199 221 238 241 222 220 207 180 157 167 159 149 139 142 149 155 152 159 153 159 177 175 165 157 143
94 73 66 53 38 30 45 59 62 56 71 97 113 127 138 139 144 156 166 174 181 188 186 178 165 157 156 155 148 144 143 148 158 170 178 177 171 164 165 171 167 163 147
107 86 61 49 31 34 50 59 79 68 69 72 100 100 121 136 145 154 167 182 180 173 167 162 148 136 130 117 105 104 111 125 143 152 159 160 161 161 165 166 158 149 150
112 90 75 65 46 25 9 32 45 63 62 86 110 124 130 122 125 149 162 162 155 143 133 125 115 105 94 77 60 60 77 115 143 153 168 190 192 181 173 155 141 129 137
61 68 68 52 43 50 27 32 40 44 57 92 115 135 149 134 125 139 148 145 137 126 102 93 93 84 81 68 62 50 81 101 143 156 163 169 182 178 188 176 166 153 133
76 64 47 34 26 31 34 17 15 39 50 85 114 146 157 151 145 151 135 135 135 112 105 87 82 84 73 64 64 88 127 129 165 162 155 153 138 139 132 123 118 118 108
46 24 2 6 18 28 33 27 22 22 26 74 114 152 175 183 176 161 142 136 133 124 101 95 84 81 75 71 89 145 127 129 126 134 136 126 113 87 83 90 84 77 74
-9 -9 -8 -6 -1 16 27 23 26 15 38 70 126 163 208 211 198 187 161 159 147 124 102 100 92 69 77 70 72 112 121 117 113 127 122 92 87 58 58 54 51 47 47
20 17 25 32 41 59 44 38 45 46 43 49 103 167 208 220 201 205 205 182 153 146 112 101 99 87 83 85 62 93 117 117 123 111 109 84 48 30 38 40 35 33 53
21 29 26 50 88 106 81 57 59 80 71 58 81 127 165 191 205 202 201 190 175 147 116 116 122 111 104 74 69 79 99 105 118 116 87 65 37 25 38 36 32 48 71
38 45 55 67 74 100 104 85 97 79 72 76 76 119 144 164 179 200 194 210 182 165 149 151 143 134 121 118 74 69 79 81 106 96 65 44 29 39 19 28 41 43 79
58 49 34 29 51 54 77 134 120 110 88 75 81 99 123 140 155 181 193 185 177 172 168 172 160 139 145 147 140 116 127 75 73 69 56 44 32 44 62 65 54 69 72
64 57 57 53 44 46 52 70 118 119 87 88 84 92 104 126 151 153 165 162 151 145 162 166 166 176 158 144 131 153 144 95 90 103 78 65 69 73 79 74 66 68 76
41 32 29 28 27 32 38 58 93 111 86 88 104 102 115 125 132 140 137 81 94 78 70 86 120 123 95 89 88 73 56 57 58 104 99 87 83 81 78 84 79 96 88

GFSMW_con_3kmhel_078.txt.gz
Helicity
122 111 80 127 108 83 124 97 167 12 -49 135 189 72 79 44 90 100 61 63 111 134 131 138 123 118 103 89 87 91 69 57 61 58 58 53 40 43 56 52 41 54 68
167 158 163 136 88 111 103 129 169 139 -20 108 146 39 -72 -10 97 103 96 110 123 155 142 116 106 119 108 92 89 85 87 73 67 68 62 69 61 48 39 76 82 79 75
197 185 155 134 96 121 71 89 104 176 77 117 163 192 133 115 126 137 107 135 112 103 130 158 141 108 97 103 87 78 77 79 76 75 75 86 64 67 59 56 95 96 99
190 127 109 104 75 42 54 68 69 59 125 154 207 70 66 46 47 114 190 189 183 154 113 104 149 129 103 91 89 89 92 106 114 97 96 100 117 86 84 80 95 120 143
145 118 81 68 66 64 57 60 61 66 67 101 129 192 157 160 131 95 133 149 126 140 86 91 108 120 110 112 79 115 118 115 106 101 103 100 122 126 122 113 98 129 137
105 107 86 84 91 98 76 79 76 71 78 74 73 88 95 105 146 125 120 145 143 110 126 78 62 106 56 75 65 113 109 118 162 141 112 115 121 124 132 125 121 99 109
68 67 90 148 140 114 110 93 86 123 114 80 81 80 86 91 103 126 131 202 210 186 144 171 212 206 197 132 75 96 140 166 117 107 107 119 119 127 133 143 136 140 119
159 154 140 123 122 121 103 103 141 148 139 117 106 96 84 95 105 126 163 165 187 206 205 172 208 201 233 252 183 143 135 120 112 96 91 93 90 121 135 144 141 113 108
186 183 167 157 143 130 116 136 135 122 110 98 99 91 89 83 81 104 134 160 172 190 171 164 170 202 162 165 183 149 141 139 110 98 94 91 87 120 142 149 152 138 125
206 201 198 183 158 134 118 108 100 92 74 76 72 83 92 98 99 95 101 143 180 209 244 226 207 251 222 218 193 150 145 118 111 121 121 123 128 138 145 138 139 146 145
204 204 197 181 163 152 143 129 116 98 91 88 89 99 99 98 95 96 105 120 148 156 185 195 209 198 231 235 200 178 178 140 125 140 136 124 139 139 144 143 148 143 163
167 164 145 138 147 130 109 83 70 67 68 72 82 87 90 96 100 104 115 139 168 203 225 247 251 217 213 203 209 202 175 139 141 143 133 113 128 125 149 159 146 149 165
122 109 110 86 63 56 45 35 43 53 66 71 68 73 76 86 92 101 120 147 167 180 203 221 215 206 194 195 212 185 161 151 134 136 141 137 144 142 146 154 165 169 171
98 77 59 44 35 36 39 53 60 51 67 67 75 83 94 104 116 127 136 143 160 183 201 212 210 209 207 197 176 162 151 143 138 137 136 136 141 134 136 142 144 158 168
93 76 54 34 25 36 48 58 58 61 59 85 82 77 109 120 132 154 161 168 181 188 192 201 201 189 170 145 130 112 94 85 99 114 128 138 140 139 142 152 152 161 167
77 70 65 61 48 51 49 51 48 51 46 49 58 73 87 114 120 136 150 170 180 185 181 179 167 156 140 110 90 88 69 46 49 87 131 158 169 163 156 155 161 157 159
117 110 88 60 57 61 46 36 40 49 45 44 50 70 92 107 124 137 157 153 156 164 149 143 131 115 98 77 69 71 75 57 51 84 134 148 159 167 182 207 218 207 186
70 60 46 53 40 33 33 21 13 35 40 44 47 67 113 124 146 155 149 164 167 149 142 124 104 94 78 68 72 70 94 90 88 106 131 137 126 126 145 166 170 166 139
64 49 23 14 2 -14 -2 14 25 23 40 58 44 55 105 142 166 168 174 188 191 166 140 129 109 92 77 61 61 106 96 97 94 113 126 123 119 112 122 141 132 122 107
25 20 11 4 -3 15 14 11 18 22 37 54 68 49 77 143 168 184 210 218 209 174 161 146 113 80 81 63 48 100 105 94 102 113 118 111 128 103 98 115 92 91 56
42 38 40 35 37 57 28 26 51 66 68 59 67 67 61 103 149 221 243 235 212 204 184 149 116 98 87 79 46 82 121 103 105 114 125 120 96 89 73 77 53 49 51
68 58 53 51 43 56 28 35 43 74 103 89 67 81 87 95 144 188 214 213 215 200 182 165 144 128 107 74 61 66 103 92 119 131 129 108 89 55 44 50 24 31 49
62 63 62 65 74 57 22 24 51 60 66 96 99 85 92 95 127 181 198 240 217 202 187 177 160 154 137 118 80 74 84 89 140 159 134 106 76 50 36 42 47 36 71
79 69 66 64 67 50 54 44 42 47 62 59 95 100 93 88 101 151 187 215 215 198 185 168 156 157 157 154 145 129 124 113 136 145 153 116 82 54 49 53 45 69 66
52 23 45 35 31 21 24 20 35 41 42 48 53 66 81 83 93 112 138 154 157 169 176 161 157 166 150 129 118 165 185 151 182 211 198 139 114 93 78 77 72 82 77
38 31 7 5 26 4 2 10 7 21 33 33 33 45 66 79 115 110 112 61 80 67 72 84 116 119 92 94 85 79 100 109 130 199 168 112 104 84 70 68 76 86 80

GFSMW_con_3kmhel_081.txt.gz
Helicity
166 4 174 134 55 40 60 22 29 -4 38 163 173 85 54 89 51 75 83 79 45 30 56 62 112 116 106 99 98 118 92 77 70 74 63 57 53 46 38 26 30 37 38
250 121 12 110 115 44 60 -18 49 93 50 118 92 41 142 72 -26 29 50 65 69 95 51 87 110 141 116 103 116 113 126 96 86 92 90 92 78 61 53 58 41 52 60
222 139 20 -1 36 50 43 28 54 32 92 173 139 60 -5 25 133 50 78 68 103 69 99 76 98 128 146 107 105 111 113 116 117 85 101 99 87 71 43 59 61 60 64
204 144 89 55 83 71 83 -8 -22 179 71 151 188 132 32 43 -19 63 40 8 49 150 122 97 111 123 143 119 111 101 92 100 109 106 107 125 114 87 70 52 77 93 96
158 151 117 118 109 89 43 38 35 88 114 125 49 151 164 121 9 62 40 59 84 91 107 134 143 135 123 146 160 161 148 135 89 98 120 124 83 91 71 63 85 101 99
239 207 122 85 65 60 65 58 46 63 62 70 95 87 116 157 118 29 98 114 106 112 120 154 193 212 161 186 128 137 137 138 116 119 131 114 88 78 103 108 123 102 68
178 184 119 84 110 127 126 111 118 122 108 95 89 77 66 80 97 137 129 138 139 188 155 157 163 177 170 145 128 150 128 141 150 142 117 116 98 117 140 132 118 115 87
153 226 159 107 161 191 180 142 140 149 149 148 162 134 111 106 102 92 116 125 159 166 147 164 184 217 150 150 148 162 212 193 110 97 108 96 93 99 103 106 101 95 101
126 83 172 204 199 184 185 172 159 130 147 157 143 123 115 105 90 77 79 105 129 151 168 172 172 172 169 150 143 130 133 104 107 100 106 117 121 122 130 129 128 109 115
238 224 226 221 185 155 133 123 121 132 126 121 120 104 105 96 87 86 79 83 105 123 155 199 208 215 164 166 184 161 143 137 146 141 122 121 132 138 148 149 156 148 130
199 197 197 182 148 126 125 113 110 105 115 110 97 92 93 95 97 96 108 109 120 135 158 179 209 209 206 185 177 181 166 168 157 154 146 121 121 136 139 156 155 144 149
175 171 161 155 160 138 116 104 90 78 74 70 85 92 92 93 96 94 91 95 102 116 144 190 216 223 216 220 202 197 180 169 172 181 151 137 146 135 149 152 139 141 152
167 166 173 167 164 148 121 95 68 64 47 49 51 61 71 86 101 111 120 131 143 161 183 203 212 223 231 245 241 210 190 188 191 167 153 152 151 153 158 155 151 149 163
152 145 141 120 106 92 80 77 72 59 68 60 59 60 64 72 86 107 133 156 181 205 220 222 233 231 229 221 210 202 197 182 157 149 154 154 158 162 161 154 150 156 157
141 132 123 107 91 91 84 71 58 54 59 83 87 84 85 77 80 94 115 138 152 175 198 218 225 219 210 202 188 182 161 144 135 128 141 164 179 171 166 160 154 160 164
115 106 94 89 85 89 81 72 68 77 66 69 84 90 81 83 89 99 106 120 141 161 177 180 183 194 200 166 158 153 137 113 93 73 92 126 147 160 166 171 167 162 160
94 93 77 60 55 72 70 68 60 60 59 56 63 67 72 74 87 105 118 123 130 155 151 157 158 158 154 115 99 104 112 98 81 66 63 109 144 171 186 205 207 206 191
110 90 72 63 43 37 38 42 39 37 49 60 53 54 55 61 87 114 115 134 156 145 156 150 143 136 124 100 93 90 103 100 81 68 60 104 125 140 159 158 170 173 163
67 53 36 19 19 16 6 4 8 17 33 60 74 70 71 63 77 106 121 142 156 156 160 159 139 123 112 85 83 115 119 98 84 89 84 106 123 116 133 156 170 152 143
43 36 31 19 26 36 15 13 25 26 34 60 87 80 69 67 72 85 145 172 170 176 180 163 144 114 123 90 79 118 119 107 99 91 96 95 113 108 107 141 135 127 103
70 58 54 51 51 52 38 34 40 39 65 70 93 90 76 71 75 99 166 181 176 183 184 170 161 139 122 109 73 86 122 102 106 102 111 111 92 98 101 130 113 83 69
95 105 104 95 88 86 63 78 68 61 57 61 76 97 93 75 75 88 130 187 200 177 164 165 161 148 134 106 94 72 83 91 108 111 127 125 94 111 105 134 83 62 59
111 104 109 103 95 67 66 85 78 59 69 79 71 85 101 89 78 83 110 165 191 194 186 184 169 153 148 139 98 92 85 88 118 134 132 125 116 122 112 112 71 50 94
101 80 56 49 74 71 67 47 52 49 46 55 59 64 93 92 84 85 109 148 185 198 193 182 160 153 142 146 152 143 120 113 139 136 151 156 146 135 147 105 72 88 56
61 26 22 28 39 48 53 45 34 33 37 48 45 50 49 72 86 77 88 122 135 165 195 181 165 163 141 142 130 131 141 167 168 183 215 204 199 161 153 116 101 88 69
67 84 74 63 72 91 113 118 74 43 35 24 31 44 47 57 83 80 70 36 59 63 77 95 119 117 92 77 71 77 66 81 138 252 219 196 164 137 131 110 85 81 72

GFSMW_con_3kmhel_084.txt.gz
Helicity
69 75 236 216 106 108 30 -27 -54 70 52 102 86 111 90 62 67 59 64 60 71 61 48 61 73 84 76 75 75 94 122 131 132 135 87 67 58 54 40 34 33 37 34
12 112 94 321 136 147 22 -23 -38 68 92 224 184 131 134 121 96 46 52 50 54 55 70 62 83 82 87 77 95 118 139 141 154 141 148 128 113 99 65 44 36 39 42
-21 184 175 65 334 111 106 88 43 110 85 163 144 108 78 97 119 27 40 17 37 50 34 57 101 91 92 91 97 89 87 118 156 114 157 147 161 154 97 75 51 35 40
140 113 128 128 -64 216 67 28 77 39 47 70 33 209 189 5 -11 59 116 48 84 39 50 77 99 79 97 122 131 128 152 132 108 132 130 124 123 119 118 70 36 46 43
157 188 87 -31 -89 -83 -39 -52 -17 -15 20 16 37 96 61 57 70 191 49 44 133 105 93 90 108 107 108 159 167 207 252 235 168 177 134 131 82 90 67 50 2 12 52
164 184 109 46 45 21 -5 -6 -6 18 17 -8 15 82 172 71 107 128 -5 52 175 64 75 88 81 140 176 191 203 265 200 208 189 150 105 103 91 79 109 54 10 15 76
137 196 95 82 112 45 29 50 46 67 58 38 37 57 53 76 136 130 62 -11 -16 17 -13 97 138 189 183 153 144 142 165 100 109 70 54 104 114 123 126 113 96 99 104
236 152 149 187 65 65 110 121 121 134 145 128 130 116 68 94 79 66 70 89 84 116 121 178 175 151 114 116 162 171 164 135 104 104 124 124 104 96 84 93 90 89 81
236 201 132 269 58 96 132 144 143 146 165 177 173 161 153 122 95 96 96 101 120 151 135 166 167 147 162 154 169 162 179 162 115 109 109 89 97 98 92 102 111 119 104
236 195 168 162 133 125 128 129 130 134 127 127 133 134 136 127 115 106 96 88 96 110 108 125 139 174 199 165 143 116 121 124 108 91 78 89 115 113 120 119 121 137 129
210 149 158 113 117 146 155 146 138 128 130 116 106 101 103 110 114 105 93 86 101 118 127 143 167 168 160 156 150 135 134 126 124 122 116 123 148 140 138 139 154 162 159
99 104 82 97 154 161 152 144 143 131 124 116 109 93 86 93 101 114 130 127 115 117 125 152 181 184 185 193 193 202 189 171 165 145 141 143 160 140 142 146 141 153 159
81 94 123 154 152 137 129 115 95 87 88 84 91 104 98 85 77 83 88 96 106 114 129 144 173 215 239 242 225 210 204 201 180 173 159 161 152 144 156 163 165 170 180
119 135 136 122 102 79 71 63 57 55 61 64 68 68 86 104 110 103 91 90 96 107 130 156 189 208 233 250 243 230 217 203 197 192 188 172 155 145 151 168 166 184 189
110 116 119 102 89 79 66 52 44 49 59 67 78 78 66 67 82 106 125 131 128 132 144 163 180 204 216 220 213 212 194 186 182 172 157 149 162 205 190 184 183 181 186
112 105 87 65 61 56 53 56 59 64 61 64 71 82 88 73 71 87 98 116 127 136 141 146 162 180 195 175 174 177 178 170 166 157 130 121 130 145 167 187 194 182 166
116 127 131 121 101 82 66 66 66 63 64 65 69 74 82 92 69 64 88 94 103 125 128 139 147 153 167 152 153 162 167 155 144 143 118 100 125 148 140 150 155 168 173
101 89 81 82 98 97 96 88 74 62 62 63 71 75 75 80 86 68 68 96 114 119 131 133 131 140 147 127 118 122 146 145 138 114 99 77 97 110 122 127 125 119 140
94 88 82 80 77 75 80 76 77 80 76 73 70 80 83 85 88 78 76 101 131 128 126 132 133 129 140 117 113 121 148 138 114 105 86 69 75 83 98 122 139 141 151
97 96 87 69 66 67 60 48 60 63 76 82 83 86 89 78 92 101 85 90 120 147 157 152 151 133 134 108 96 121 132 118 109 98 85 68 79 84 99 120 115 130 130
87 93 95 107 112 104 91 86 79 68 67 62 73 78 79 87 94 98 94 82 99 136 153 154 156 136 124 114 87 97 117 117 117 107 94 95 73 92 92 98 114 124 136
114 108 111 109 92 88 69 74 76 83 73 74 84 88 92 94 80 86 105 98 92 116 140 149 151 146 126 125 102 86 92 101 123 96 93 98 90 107 102 114 124 130 127
124 114 106 101 76 81 83 91 98 92 82 64 69 67 69 72 82 82 84 105 104 130 156 180 162 150 160 144 112 95 71 91 119 107 102 113 111 118 125 121 129 120 120
120 111 102 86 85 89 74 67 82 80 80 72 67 59 58 76 72 64 69 91 119 144 151 178 182 175 196 172 154 143 141 100 126 129 120 120 138 148 146 148 141 119 105
109 104 98 95 80 79 77 83 78 72 72 75 70 57 52 54 69 73 66 68 70 105 152 151 151 184 184 165 156 144 173 191 198 171 177 173 173 179 176 160 148 134 106
130 130 119 112 91 87 82 86 88 70 56 48 50 56 42 39 42 58 76 71 51 27 40 67 122 154 126 111 83 72 89 109 132 241 211 186 196 201 173 180 153 132 97

GFSMW_con_3kmhel_087.txt.gz
Helicity
30 105 102 35 64 68 74 22 72 175 264 151 151 99 103 110 105 109 102 107 95 78 75 81 67 71 80 53 55 68 83 101 118 126 109 138 79 74 70 69 65 62 50
3 57 171 243 237 211 225 84 71 167 263 188 110 75 95 129 116 113 93 87 105 98 112 97 90 94 78 102 81 86 110 120 119 168 143 123 104 127 105 93 85 76 64
-9 32 76 126 173 270 241 102 90 103 102 97 122 113 148 122 171 143 132 88 81 76 74 72 80 103 164 165 123 106 107 142 148 141 175 178 178 178 115 133 113 76 51
34 24 -23 6 -28 49 214 92 124 114 83 82 160 97 171 154 121 103 180 97 51 40 58 78 61 70 85 75 92 111 111 141 154 179 134 191 223 246 176 131 84 51 29
68 40 63 47 126 54 187 216 113 65 65 57 58 164 139 134 137 114 156 114 58 19 43 63 84 100 57 20 4 106 104 137 262 265 283 305 245 248 199 176 78 30 1
50 171 158 48 53 42 -39 124 42 129 40 64 19 84 160 84 58 70 140 110 60 32 -41 117 156 146 122 69 201 207 182 119 181 236 306 325 197 175 83 64 74 56 97
88 102 76 67 38 -30 -38 -15 14 -13 77 10 -33 16 -13 21 -24 -56 46 132 121 155 32 89 111 138 112 164 180 153 133 132 162 213 157 97 83 60 69 77 96 98 125
106 150 128 137 84 104 79 55 82 104 15 -10 55 48 75 22 30 -64 -65 -54 -54 27 36 46 28 36 78 153 159 138 124 110 108 109 80 80 87 128 135 152 120 120 104
76 134 165 184 145 58 29 38 33 57 71 73 94 108 82 6 46 45 31 38 48 65 66 115 116 81 89 142 139 168 113 134 140 117 151 162 171 162 137 132 140 143 130
208 217 198 196 104 78 47 53 84 113 130 125 120 129 130 129 111 96 75 70 60 70 88 137 139 158 194 203 210 207 178 171 168 179 140 134 118 90 97 107 124 125 134
175 201 168 117 70 64 69 69 110 115 125 130 128 128 119 116 115 104 97 96 89 77 91 112 147 201 238 235 213 187 161 140 127 111 109 105 107 107 107 132 155 159 157
109 71 34 24 23 47 65 103 112 115 113 106 97 96 98 113 116 110 109 110 108 113 120 141 153 188 189 194 186 170 167 164 164 151 150 140 136 116 133 146 145 136 135
48 41 24 35 48 63 87 99 104 99 89 86 81 76 73 76 79 89 103 96 103 103 111 124 132 150 174 186 183 183 190 203 207 194 178 179 168 152 171 183 166 148 154
27 31 43 59 59 62 72 75 75 73 72 65 61 68 80 79 81 79 81 97 106 109 111 116 139 176 184 201 226 218 229 232 228 235 200 185 181 163 173 167 155 168 168
58 60 66 64 61 64 63 55 50 49 56 62 67 71 72 83 90 89 87 82 90 110 118 134 154 180 205 231 235 244 232 217 219 206 201 207 187 234 243 200 150 177 180
68 79 79 77 69 66 54 46 51 57 64 72 81 90 91 93 95 91 89 90 88 89 110 123 137 165 192 180 179 202 218 210 186 180 181 197 197 187 190 195 201 174 147
77 78 76 71 67 70 69 75 71 69 77 80 87 91 93 88 86 86 84 85 92 100 107 116 132 147 164 150 174 185 199 204 196 191 185 170 144 135 143 147 139 147 153
120 119 110 109 105 86 74 57 55 56 61 61 70 75 81 92 96 98 91 80 86 101 108 122 128 144 156 125 139 169 213 219 227 210 181 147 137 113 114 134 148 125 112
104 107 104 105 106 111 113 106 97 88 75 76 75 69 66 77 90 94 100 103 90 95 112 123 130 145 168 133 146 183 226 197 163 149 121 112 94 80 93 128 114 93 123
85 81 73 51 39 50 70 88 106 114 118 115 96 77 63 52 65 81 92 97 98 88 119 131 146 136 150 130 144 176 192 172 154 111 100 78 83 73 75 115 107 100 121
96 78 61 76 76 79 95 88 89 79 87 80 84 87 86 86 70 63 64 76 92 100 102 117 139 149 145 138 117 132 178 173 163 136 121 109 58 72 65 82 106 104 154
91 94 100 106 112 97 86 76 77 87 74 70 69 70 71 71 65 62 64 63 59 82 99 111 123 136 135 121 101 116 124 120 159 153 134 119 66 58 64 89 109 147 158
114 131 134 134 129 132 115 100 93 95 84 72 64 66 73 61 60 61 54 65 77 83 90 121 138 150 160 162 130 88 105 133 165 153 112 95 78 57 86 89 112 142 177
145 147 145 139 140 141 117 97 102 99 90 86 87 85 69 65 56 51 47 50 53 61 84 103 144 146 123 149 201 186 151 112 151 135 172 155 110 80 131 136 170 190 175
163 170 161 163 151 138 128 114 111 106 96 86 86 88 84 83 81 62 42 37 55 60 56 61 97 125 161 161 164 191 212 213 193 238 234 201 178 173 173 186 206 185 188
168 169 165 162 148 137 132 117 111 114 103 90 84 82 87 77 72 68 78 79 67 92 102 67 43 56 59 50 36 105 133 120 154 314 292 233 209 185 183 201 198 188 183

GFSMW_con_3kmhel_090.txt.gz
Helicity
172 133 127 88 102 128 61 79 84 36 132 118 94 100 172 117 132 159 108 90 100 125 119 126 114 105 101 93 71 80 69 75 77 95 101 107 112 91 75 81 130 112 93
147 101 114 186 205 187 179 106 63 5 125 116 92 51 65 65 93 158 177 151 102 106 107 104 99 96 98 89 95 87 93 82 103 106 138 143 138 88 143 157 157 150 92
61 28 75 125 150 136 113 135 94 68 73 83 185 50 36 117 122 111 136 122 142 114 126 126 118 115 134 135 143 146 144 114 112 124 184 194 168 206 204 207 203 144 117
112 55 57 77 88 69 47 9 133 163 100 137 154 103 81 83 109 131 178 149 166 137 126 97 140 122 119 130 149 136 123 133 131 135 109 165 246 296 312 284 184 166 142
69 71 76 53 82 87 55 112 191 115 85 143 96 123 222 88 152 124 214 230 207 201 163 85 73 83 104 109 73 81 87 99 82 158 111 315 330 379 422 379 273 201 87
93 100 153 138 124 125 174 144 111 92 164 93 48 68 154 83 201 32 140 118 207 177 95 26 60 111 93 146 116 53 24 26 79 97 270 226 329 242 311 271 214 100 44
94 96 145 176 167 159 91 140 28 163 131 85 96 87 64 103 128 106 47 112 134 118 115 60 80 104 109 214 206 193 83 91 179 180 226 189 365 219 118 -14 -46 14 52
131 112 139 154 139 128 102 42 68 103 139 113 164 26 27 44 15 33 43 87 -16 66 97 52 160 115 69 156 142 184 207 172 299 146 171 122 83 72 8 53 80 89 94
87 137 119 104 118 134 99 75 13 -4 -39 -39 -7 -31 -44 -91 -40 -41 -13 -1 23 -14 3 43 70 85 78 111 98 84 125 146 135 76 92 62 58 78 119 143 169 171 119
160 72 90 117 147 82 39 12 40 29 54 44 38 41 55 29 13 43 17 3 -10 21 -14 94 111 100 95 136 115 64 132 124 118 146 140 157 168 161 149 124 128 128 119
179 112 124 134 141 67 19 29 35 49 61 69 65 73 83 89 103 94 95 81 65 74 30 21 54 104 118 177 206 192 190 182 221 200 174 162 139 125 112 119 130 128 143
143 150 71 13 31 38 42 65 76 79 94 99 89 90 93 93 90 94 90 89 90 84 67 63 51 92 150 186 218 232 208 188 157 166 168 132 128 128 131 145 143 148 155
-12 13 15 12 36 39 49 46 54 58 67 77 82 75 80 84 86 88 88 92 86 86 94 101 93 101 121 158 185 180 202 189 184 179 168 157 176 167 172 160 149 143 148
-6 -4 6 14 26 41 42 47 55 58 70 77 71 66 69 67 71 79 83 83 86 93 95 90 95 99 112 133 162 195 197 198 192 195 197 183 185 183 176 180 175 175 164
30 47 45 47 50 48 51 48 53 55 55 57 56 57 64 75 86 92 91 89 92 95 106 109 118 131 130 147 166 187 195 223 231 222 208 198 199 199 194 186 166 172 169
51 55 56 61 57 52 45 45 38 42 48 62 72 80 88 93 99 108 108 107 96 99 106 111 116 126 142 134 157 188 210 213 229 218 204 215 212 210 215 246 252 186 189
65 65 67 59 47 28 29 27 35 48 65 72 79 85 85 93 102 105 114 126 125 109 100 106 106 115 131 113 119 139 193 202 204 202 205 207 202 186 197 209 220 206 193
64 56 51 31 33 36 68 68 72 83 100 99 109 103 99 89 86 88 92 103 113 125 108 98 107 114 116 106 114 129 189 219 219 216 214 212 188 180 192 193 186 175 153
91 88 73 76 90 96 106 103 97 98 92 109 113 107 113 121 118 112 113 107 99 108 114 112 110 111 120 99 108 153 223 241 238 231 222 213 197 147 127 167 147 140 141
111 103 88 88 101 99 102 101 105 103 102 94 77 59 52 55 78 104 121 115 115 95 97 101 107 109 118 109 113 157 229 211 205 199 183 134 163 111 90 146 132 139 127
86 95 72 79 104 130 126 112 112 114 91 73 56 55 46 36 32 46 60 78 93 95 101 91 99 113 124 135 101 119 198 203 196 178 163 157 99 86 63 93 136 119 135
95 102 106 110 105 96 94 85 98 114 113 100 95 93 84 63 60 49 58 69 67 88 79 88 93 91 126 99 94 91 119 152 193 166 164 156 94 84 65 80 85 92 131
110 129 148 135 111 113 118 118 119 116 116 113 97 86 91 93 84 79 68 53 58 65 71 63 75 92 119 123 77 66 69 105 160 175 164 129 96 76 81 84 82 117 192
139 153 147 140 144 158 164 156 144 136 132 122 118 123 123 110 95 89 70 55 53 48 47 61 60 53 75 106 137 118 83 77 136 135 138 124 140 133 127 132 134 200 180
158 164 152 153 156 154 151 136 128 122 131 131 128 122 119 108 99 83 74 67 46 48 66 50 53 52 39 69 60 94 120 132 190 215 208 235 234 201 206 189 204 219 179
171 181 181 183 164 155 141 126 119 125 134 141 135 124 113 99 89 76 60 48 48 30 46 58 48 47 59 61 22 3 54 88 129 241 251 218 245 234 214 224 214 216 174

GFSMW_con_3kmhel_093.txt.gz
Helicity
147 131 195 101 118 151 164 145 129 92 147 121 140 88 96 85 123 155 85 23 83 103 125 153 148 144 124 108 105 110 95 81 85 91 70 56 82 89 99 107 133 159 166
158 166 153 150 99 129 133 130 122 93 99 149 126 77 93 73 69 100 113 64 50 82 139 134 146 144 144 117 120 123 130 101 100 96 106 107 126 112 87 120 160 198 142
168 131 98 104 129 137 116 103 114 52 44 117 177 85 54 30 60 69 88 88 41 93 93 112 154 146 137 134 139 137 126 128 112 149 154 115 113 129 169 179 237 252 200
104 81 71 79 118 150 165 108 85 53 58 33 107 98 97 104 59 73 66 94 159 131 138 107 128 142 158 153 160 170 175 180 188 205 174 181 175 163 210 304 293 268 220
121 100 114 72 79 114 138 125 94 89 120 79 118 67 73 116 119 28 101 140 164 222 241 144 79 111 125 111 119 139 151 144 175 184 199 198 185 182 179 332 522 415 347
71 98 107 119 145 121 122 105 113 109 137 145 137 149 111 117 153 122 91 249 265 188 179 138 171 127 100 127 145 135 105 134 181 157 208 175 181 191 363 276 520 356 279
72 66 99 101 138 176 124 102 63 46 87 145 197 65 24 46 186 196 89 73 115 187 191 234 240 165 114 79 122 177 191 173 263 366 252 204 185 263 328 596 263 145 82
83 118 120 162 183 236 199 134 88 40 68 126 218 221 110 84 98 27 120 82 112 53 73 103 152 103 147 178 156 152 149 239 238 307 232 195 185 222 243 178 294 133 -4
94 63 94 203 240 248 220 193 152 124 44 115 153 130 53 45 56 65 -14 -32 109 48 26 104 85 80 180 146 194 176 94 121 185 191 199 242 289 269 174 75 60 53 -0
84 114 115 199 250 201 205 137 40 15 10 -43 -34 -10 -0 -28 -11 -35 -31 -24 -36 10 44 14 7 76 60 76 123 89 94 75 104 112 123 141 148 65 56 75 85 125 124
84 109 72 119 170 164 102 71 62 82 93 66 41 33 46 51 41 28 21 22 52 82 41 23 74 100 119 88 90 137 157 108 95 90 53 87 138 162 146 182 191 140 149
61 54 67 79 108 129 118 99 41 43 46 39 38 58 71 80 82 76 72 61 53 54 55 50 53 59 63 74 74 94 131 153 156 138 144 137 157 136 162 157 128 133 152
75 18 -27 -30 30 -8 10 19 40 58 56 50 40 47 59 69 79 85 85 79 71 65 66 61 64 64 85 93 105 118 128 143 171 170 150 167 148 140 157 133 127 146 172
11 -2 -6 -7 1 20 37 46 50 50 45 45 43 46 47 49 55 59 73 83 83 79 76 81 86 89 74 79 97 121 154 172 169 177 164 157 164 174 195 188 156 178 192
9 10 12 21 28 32 31 32 33 39 39 44 39 37 36 47 54 62 73 79 82 90 86 89 96 96 106 104 95 109 126 145 151 142 137 143 156 179 206 217 194 209 220
27 25 32 35 37 38 38 33 35 44 48 63 72 73 71 74 79 81 81 81 97 107 110 110 103 107 112 125 118 129 147 152 164 177 163 178 189 193 183 168 193 204 236
21 32 37 45 44 41 35 37 37 43 54 58 60 67 71 78 86 86 90 97 101 104 111 124 124 113 112 109 112 118 160 185 189 194 216 217 209 207 230 213 210 185 178
5 16 27 28 33 35 51 60 67 65 70 73 88 98 110 118 117 108 90 81 91 103 117 124 126 124 126 112 100 108 147 165 175 184 190 207 214 210 232 257 261 262 255
41 36 45 37 34 38 53 54 47 50 76 80 101 116 121 126 139 140 120 97 90 96 109 121 139 142 134 133 110 124 164 167 162 180 192 192 175 146 153 231 243 241 237
60 58 58 60 60 54 64 82 92 95 104 103 93 71 45 41 56 75 100 106 115 95 81 95 100 110 128 143 153 137 192 191 179 188 204 150 179 139 135 223 226 216 212
84 88 107 117 122 128 134 137 142 147 124 86 74 64 56 62 38 20 45 56 92 116 106 130 123 119 103 105 113 103 189 176 187 190 190 182 108 110 109 138 178 178 190
112 121 136 129 131 146 163 144 153 166 159 160 152 132 117 116 109 100 96 105 83 86 115 115 119 104 110 111 115 119 82 120 167 172 169 150 93 108 106 121 102 107 149
151 169 178 163 151 158 170 181 164 169 172 157 144 145 149 140 129 128 116 116 111 111 97 104 98 81 77 83 121 135 141 95 160 144 124 90 83 94 128 97 95 94 187
159 173 173 163 162 173 171 175 170 160 161 156 148 143 143 128 121 118 103 94 92 93 83 84 106 97 86 72 76 73 105 126 95 116 116 91 95 116 154 153 149 191 201
152 164 164 170 171 177 172 162 148 149 153 156 155 150 145 134 123 103 88 81 77 66 73 68 70 86 97 91 127 132 71 79 96 114 159 140 164 176 181 189 206 239 221
155 167 172 191 192 192 185 154 143 148 153 154 147 150 152 140 120 107 77 50 49 49 49 38 38 44 53 100 139 154 167 86 85 94 145 142 185 159 189 186 205 229 197

GFSMW_con_3kmhel_096.txt.gz
Helicity
206 211 131 149 185 144 142 150 145 106 121 128 122 129 135 128 101 109 78 82 143 203 191 187 174 159 147 129 135 166 147 120 126 139 103 86 69 61 60 65 102 105 154
244 146 190 220 152 136 90 147 132 114 112 142 126 143 127 117 110 58 43 60 119 177 160 170 183 182 187 169 165 166 181 148 151 161 159 129 116 86 86 86 136 151 218
212 160 164 204 202 188 140 117 111 95 114 106 120 137 158 165 148 128 68 56 86 146 98 106 134 165 182 169 162 159 162 155 163 163 178 176 160 137 164 133 121 181 227
66 110 119 124 116 166 167 159 133 104 73 101 112 89 127 142 103 72 58 54 81 88 86 101 122 107 142 159 162 155 165 198 185 206 179 169 128 156 182 163 190 236 242
74 101 125 63 41 99 128 158 141 127 118 53 66 63 79 124 145 142 68 68 57 51 111 190 87 125 178 144 151 182 183 199 219 255 261 223 198 205 201 168 202 309 318
94 89 78 86 102 108 89 59 56 84 77 76 87 22 21 104 151 125 152 161 51 146 105 117 82 141 125 140 85 156 184 165 192 170 218 249 299 226 266 247 228 229 275
71 65 67 93 94 103 99 90 66 84 107 108 99 124 68 72 74 67 185 155 77 173 220 190 168 184 181 105 90 120 122 120 110 120 201 242 263 381 382 427 507 396 546
76 57 101 149 162 174 175 144 128 121 101 83 97 176 187 74 121 110 226 166 124 98 284 209 258 235 188 61 51 107 153 112 100 133 172 211 221 291 328 352 439 410 455
12 55 145 192 246 202 248 259 184 183 142 111 174 244 353 254 152 92 82 41 102 116 104 81 19 55 60 124 202 189 164 173 130 183 221 219 248 310 356 362 342 354 384
-50 -36 92 186 339 277 315 315 272 163 96 78 143 185 150 74 38 28 91 32 -10 85 95 181 102 133 66 62 125 157 187 194 237 194 119 152 234 228 214 198 156 225 388
55 156 139 128 221 310 289 207 118 105 51 23 21 -5 21 46 1 -10 -6 -12 -1 12 41 36 27 25 45 89 106 96 113 113 83 116 101 107 137 125 93 69 47 39 89
5 25 55 85 186 245 225 177 117 58 49 32 48 31 30 32 35 42 50 52 44 46 44 43 44 45 40 42 63 81 102 117 141 151 137 111 129 100 116 115 101 162 182
23 48 67 64 78 62 39 11 7 28 35 38 39 39 39 38 44 46 53 57 63 66 72 76 75 81 88 85 77 72 93 107 113 120 159 136 161 126 143 144 197 207 228
4 -4 -2 4 9 22 26 24 24 22 18 14 11 26 34 41 50 52 52 59 61 65 73 67 67 83 99 104 105 109 110 120 140 166 168 159 204 149 183 247 201 240 179
-3 0 3 9 9 4 4 9 7 6 -4 -3 10 16 4 9 25 39 57 73 82 82 83 86 102 102 89 92 113 113 116 117 110 132 155 175 169 158 191 227 217 227 237
4 7 6 5 12 9 -1 -2 9 26 27 32 32 30 50 58 48 34 25 23 38 60 93 127 136 138 129 147 138 116 123 127 125 126 122 120 123 131 126 143 188 214 268
-6 -23 -40 -43 3 19 30 32 33 38 47 50 54 50 56 54 53 56 52 60 53 38 51 79 103 143 153 180 191 178 138 135 148 157 173 158 147 146 173 175 170 194 196
19 17 26 40 50 56 57 55 54 46 49 49 58 70 79 90 106 108 97 82 59 54 58 67 78 96 122 177 190 205 184 165 148 153 167 201 192 183 193 233 226 199 202
46 41 44 49 49 41 39 47 52 56 64 71 89 103 108 114 120 111 94 87 69 78 77 71 66 66 90 162 190 191 168 182 181 157 155 164 202 185 187 228 209 240 257
39 38 34 25 17 19 27 44 52 63 80 83 72 75 84 91 114 92 108 96 88 50 12 32 52 68 86 134 150 165 141 176 184 195 176 138 162 158 171 234 240 243 233
67 71 83 98 117 121 124 124 131 148 142 126 139 150 124 89 52 39 22 1 11 47 70 61 68 79 75 114 188 192 144 141 164 173 187 177 116 112 128 161 195 159 220
95 104 104 109 116 120 134 136 145 161 152 155 156 151 147 155 147 141 140 132 110 84 64 76 96 98 111 129 138 176 179 169 129 196 174 162 116 111 113 146 145 154 180
101 117 133 142 151 182 208 203 193 205 207 208 192 170 146 126 136 151 126 121 121 117 110 103 90 103 125 118 167 186 191 182 123 107 129 128 77 54 105 112 122 120 238
143 150 162 161 160 182 187 187 189 195 212 215 204 193 189 162 153 174 176 151 119 102 89 79 68 83 86 97 91 115 134 213 138 113 92 110 81 41 82 159 183 219 241
148 159 168 173 165 186 188 189 200 228 247 244 222 196 177 171 168 169 161 135 110 92 94 85 73 64 78 92 106 121 118 121 172 170 85 107 140 119 116 194 228 236 225
151 162 166 179 176 193 196 203 224 238 226 192 170 171 166 157 155 167 146 92 61 55 53 53 44 43 47 59 82 99 124 143 157 167 85 94 113 111 127 182 194 203 190

GFSMW_con_3kmhel_099.txt.gz
Helicity
79 173 188 170 140 154 130 129 135 124 162 168 105 96 103 134 110 86 52 111 134 138 119 164 172 187 141 164 136 108 100 105 99 146 127 109 98 88 77 77 82 80 81
94 113 169 232 193 169 153 128 95 124 141 137 123 130 104 91 128 102 77 70 113 83 89 98 122 194 254 156 180 199 158 127 171 175 163 132 142 99 90 96 91 79 96
80 102 133 217 207 216 192 147 123 120 138 109 123 124 123 111 113 124 107 81 120 91 118 83 150 208 231 229 197 182 204 167 193 217 205 189 163 152 178 132 114 102 145
43 52 79 167 222 259 201 212 151 135 101 93 97 101 122 111 127 122 118 112 137 77 86 64 106 165 213 195 217 209 193 200 176 254 220 225 197 178 186 209 170 154 186
15 79 126 165 175 170 145 152 161 151 130 84 78 61 66 73 78 99 127 138 111 141 106 88 198 167 222 185 179 176 159 176 193 247 287 280 278 263 249 190 248 200 200
57 111 131 120 110 122 116 119 129 123 108 108 101 83 40 69 76 40 54 87 80 113 113 49 136 108 123 143 145 146 132 123 154 200 250 256 266 231 242 256 209 202 167
18 59 91 116 122 108 112 103 123 116 109 107 105 108 118 83 85 84 55 68 97 154 132 57 81 134 125 78 75 66 71 73 114 149 167 195 201 240 202 263 195 271 385
67 74 96 137 154 176 205 171 130 130 102 104 127 131 155 166 93 58 36 58 152 165 136 119 118 139 192 188 171 153 111 56 130 166 127 147 166 217 209 214 298 354 435
18 86 86 138 208 215 241 235 211 161 172 133 104 135 170 218 315 239 183 195 178 131 79 123 201 212 147 203 171 164 199 145 83 91 105 128 109 137 156 233 240 299 324
49 -5 98 126 215 188 208 227 255 180 196 199 179 112 108 102 117 119 171 197 186 134 90 118 84 30 35 48 100 151 191 119 114 127 109 133 175 167 178 242 278 354 369
146 110 149 146 232 305 270 290 317 222 142 122 71 57 78 89 76 -9 -1 -23 -19 -4 13 70 54 62 88 65 56 30 84 91 110 126 169 219 222 177 181 169 291 264 232
0 93 124 163 296 328 407 409 466 274 172 114 53 33 30 37 41 30 24 32 26 28 38 42 41 39 35 42 44 63 74 124 111 131 142 155 144 145 151 152 145 181 114
54 83 94 121 149 94 20 86 95 90 56 27 26 23 31 45 48 34 36 28 42 44 48 55 58 70 69 66 58 68 65 74 68 72 93 72 120 114 160 136 123 106 136
35 26 35 39 44 11 -13 -2 11 18 16 9 8 18 18 18 18 20 29 27 27 37 53 71 78 81 78 86 99 108 95 65 60 89 95 105 129 145 163 182 159 187 190
5 18 3 -14 -14 -11 0 6 6 13 15 16 22 14 4 18 32 44 43 38 26 31 30 49 74 93 104 101 120 114 119 120 104 85 98 119 135 141 147 198 162 247 286
21 15 -10 -21 -20 -18 -15 -17 -8 6 5 13 16 12 23 19 9 16 25 46 65 83 97 105 92 101 105 147 178 169 131 132 120 107 111 114 117 128 131 153 178 206 251
-8 -23 -33 -35 -48 -44 37 35 27 25 29 22 28 31 31 47 51 40 19 21 14 22 56 80 93 119 137 195 222 203 134 134 153 146 122 112 129 134 145 127 145 165 166
7 6 34 45 33 29 43 44 44 41 43 43 36 39 45 51 56 67 73 85 77 73 49 40 42 71 104 155 187 224 165 160 137 142 153 147 134 135 151 169 185 206 198
77 68 57 51 52 47 46 55 58 49 46 35 30 33 37 41 37 44 48 34 19 51 58 58 56 46 55 84 126 171 138 124 147 146 145 151 152 145 124 168 189 219 254
71 60 60 59 47 37 41 37 23 19 17 22 26 26 28 46 44 36 25 -9 -8 2 14 10 -5 0 -22 40 103 104 81 108 100 115 106 141 143 150 112 161 192 209 249
70 75 62 35 26 22 17 20 29 57 62 69 91 112 118 116 119 129 137 122 107 75 47 14 1 3 4 49 144 179 156 130 114 109 113 110 98 124 140 114 190 190 203
98 96 89 94 104 102 90 88 94 113 109 109 97 93 94 93 99 90 116 129 129 123 109 95 71 50 48 70 102 175 207 200 178 150 135 103 91 83 89 98 126 134 139
102 92 87 85 97 104 105 91 101 138 135 137 132 132 130 125 121 129 124 141 150 147 126 104 87 81 88 87 71 111 170 190 176 171 176 179 115 92 83 48 95 103 209
108 94 96 88 77 96 113 141 156 155 144 140 133 122 123 100 108 120 125 142 156 176 150 126 99 66 63 87 70 61 81 119 121 126 111 170 169 77 98 64 83 199 225
118 114 105 96 94 123 140 146 149 146 123 102 99 100 103 104 111 117 129 148 148 157 140 113 100 81 66 57 52 69 60 65 84 122 98 89 100 88 115 138 79 182 234
127 124 117 118 120 137 136 123 116 114 113 115 114 109 116 125 132 134 125 92 82 72 64 65 83 85 54 24 35 48 59 68 87 79 89 97 91 100 77 111 121 146 213

GFSMW_con_3kmhel_102.txt.gz
Helicity
108 81 96 83 140 126 103 107 114 134 152 143 118 97 67 85 99 75 71 93 118 129 126 137 182 201 184 103 85 160 252 182 106 80 78 81 86 91 84 88 87 80 83
102 96 87 80 103 158 128 116 107 126 132 150 137 119 107 96 103 82 81 98 104 120 133 136 153 173 199 162 159 173 199 177 129 152 129 69 92 122 88 120 108 90 105
83 90 80 60 61 132 146 151 133 113 118 134 135 111 109 93 76 67 77 79 106 120 133 139 153 149 164 175 200 222 213 264 283 171 235 136 110 111 132 150 138 132 133
50 61 49 21 17 83 155 194 187 138 125 128 109 87 83 59 60 69 75 69 98 139 149 141 161 158 161 143 169 216 199 189 225 209 253 286 205 122 135 163 202 171 158
42 64 55 90 104 110 177 214 218 194 180 127 94 91 79 61 44 37 49 59 72 114 145 148 91 129 168 121 142 205 221 188 178 224 240 262 243 205 151 130 180 220 176
-31 22 139 128 208 220 224 209 213 239 231 195 181 140 114 67 35 27 36 45 69 82 112 131 151 142 123 137 260 240 198 233 196 243 211 241 242 231 263 227 212 184 194
-47 39 53 112 149 204 256 209 178 180 161 156 145 120 79 56 23 28 51 58 75 87 76 94 83 167 147 139 237 238 233 238 145 205 176 184 225 256 238 245 188 175 187
33 42 64 87 103 155 171 212 189 179 207 146 129 130 103 88 119 166 131 143 129 112 36 75 118 153 144 158 179 253 215 252 125 113 112 105 115 170 197 196 178 189 170
42 45 58 83 133 126 181 205 219 203 186 149 128 145 146 145 207 221 235 270 183 158 179 163 114 111 69 107 153 175 302 287 290 117 137 137 138 137 157 167 192 181 115
96 44 79 99 149 166 231 192 219 214 185 199 188 149 137 107 175 161 126 126 168 152 172 162 201 105 153 41 87 59 182 245 282 223 169 166 99 134 135 151 173 161 149
40 104 57 125 173 219 169 236 259 261 241 172 168 222 166 147 93 111 109 18 56 48 -0 11 46 75 89 97 110 51 47 73 110 198 219 190 173 45 166 169 132 158 219
68 83 135 157 225 278 210 209 191 200 159 174 226 122 110 55 37 46 79 56 22 47 44 27 26 32 37 40 36 35 76 37 69 -9 10 96 168 125 165 205 208 221 160
62 77 118 161 204 235 214 216 273 299 239 158 67 36 14 29 31 28 42 45 41 33 40 47 49 49 53 57 60 66 56 35 55 54 76 76 121 114 127 128 153 209 208
69 64 69 61 61 62 62 -1 -9 -2 -11 -17 -4 2 -4 -4 -10 -11 1 -13 -11 5 33 39 48 58 60 65 78 66 54 61 63 60 57 57 44 102 143 118 154 174 222
23 30 29 10 -9 -8 -21 -24 -20 -10 -9 -10 -1 1 -6 -10 -7 -2 4 -3 -0 14 27 38 51 58 62 79 116 95 79 77 86 87 73 85 115 119 96 112 128 143 184
15 14 -3 -14 -23 -33 -39 -36 -23 -19 -24 -17 -15 -18 -20 -25 -22 -18 -12 -17 -6 9 14 25 20 38 55 114 158 138 100 100 94 87 104 111 98 106 133 125 136 128 182
31 25 15 22 16 -46 -43 -27 -29 -25 -1 2 1 -4 -9 -5 -3 -6 -9 -0 2 9 16 19 24 47 76 138 148 144 102 106 102 110 105 92 115 126 107 117 122 107 131
72 59 54 52 42 33 36 31 37 45 52 51 47 45 43 42 42 40 37 38 32 28 15 10 11 21 68 145 174 185 127 134 127 123 123 114 93 102 126 123 119 125 136
106 97 93 86 86 86 78 81 80 78 73 61 47 42 32 16 10 7 -1 -13 -21 -24 -33 -19 -2 4 1 51 75 110 115 133 152 158 138 130 111 102 92 97 121 131 151
114 111 111 110 109 100 96 69 40 36 22 19 12 12 7 9 19 18 21 24 31 42 48 44 27 14 28 23 26 41 -11 -15 49 121 174 179 205 168 138 108 99 119 128
129 128 115 104 102 104 89 54 37 22 21 28 38 45 46 47 37 46 67 62 76 91 96 103 98 88 77 61 45 79 67 40 31 68 99 145 203 238 224 176 129 122 114
122 124 120 104 90 72 58 65 82 83 82 79 71 63 57 56 63 61 64 69 81 88 91 104 103 108 109 97 70 82 95 126 121 107 121 143 193 220 207 176 131 91 120
131 124 113 115 122 125 104 84 83 93 88 82 74 73 69 75 78 87 93 95 91 102 102 112 119 111 116 109 61 81 93 102 121 120 118 150 136 105 108 128 118 129 173
151 133 126 105 89 89 90 91 100 106 93 75 69 76 81 72 77 82 89 90 89 106 100 112 119 121 115 104 104 86 71 74 72 72 84 90 111 81 68 113 90 118 168
133 113 98 84 84 88 100 108 104 100 81 64 59 65 72 73 78 80 78 69 75 93 92 110 126 118 116 114 65 56 65 55 38 54 50 56 65 81 57 66 67 86 100
117 115 101 90 88 96 105 108 102 91 74 60 60 65 70 78 76 75 79 51 37 38 61 57 77 116 79 66 58 44 33 37 31 34 21 28 42 50 67 73 123 61 81

GFSMW_con_3kmhel_105.txt.gz
Helicity
22 81 108 149 183 149 112 145 168 154 153 166 182 155 120 72 60 44 50 71 79 60 57 78 72 110 107 112 131 143 175 199 213 245 175 153 101 64 45 41 56 46 55
33 59 94 122 133 109 77 102 135 205 150 140 157 158 110 103 108 96 82 72 65 53 56 70 104 104 112 124 134 139 144 184 175 183 256 265 134 46 50 69 76 51 80
100 56 46 84 83 61 32 103 169 111 215 126 177 172 160 132 117 98 86 79 73 65 58 61 81 94 134 130 163 175 162 143 156 217 194 298 227 44 53 80 126 104 134
79 -96 -12 63 52 20 -9 75 83 88 82 89 117 115 117 76 73 79 83 81 70 56 49 65 81 85 137 122 155 213 228 216 189 210 214 213 276 247 178 69 121 129 119
-15 -153 -110 -42 118 64 55 5 93 104 100 100 100 90 81 88 71 58 61 69 70 60 61 69 72 112 140 148 147 158 211 237 222 217 232 190 169 167 182 73 81 107 117
49 -68 15 -46 102 150 137 141 170 248 240 222 220 191 147 129 96 60 52 50 47 48 47 56 68 85 117 111 144 136 158 198 230 248 272 241 264 197 189 163 103 87 53
-0 -16 -10 42 94 155 157 207 234 271 206 199 194 166 160 168 159 121 85 71 49 56 80 74 68 95 95 80 111 151 167 170 230 311 324 337 272 183 185 156 119 96 122
15 16 57 71 96 115 159 132 210 250 245 220 208 181 168 139 151 181 170 163 164 139 155 146 150 136 96 84 139 157 117 141 234 281 399 366 271 249 222 142 85 120 110
31 45 64 101 121 134 166 188 211 211 224 253 211 183 151 131 116 173 207 231 198 209 255 170 146 166 193 167 89 125 134 164 202 199 232 243 248 215 193 200 199 167 149
100 -6 69 120 168 168 182 222 248 240 234 208 211 202 188 127 97 124 199 242 156 180 176 253 170 127 130 156 158 145 93 117 169 293 251 321 288 313 269 188 211 205 196
-15 -17 28 67 121 181 194 198 162 190 204 224 244 252 186 152 129 65 57 94 146 85 84 79 62 77 104 100 124 99 103 105 70 38 117 248 271 296 313 200 148 143 136
52 68 69 94 110 127 146 144 185 248 137 213 104 151 203 183 196 186 111 60 101 119 29 24 51 43 33 21 48 61 32 34 34 95 112 72 73 166 198 244 280 220 137
31 39 47 57 55 38 15 44 59 55 73 78 119 115 95 85 70 54 50 59 48 44 55 61 65 81 74 63 71 63 57 45 31 30 17 43 84 50 99 142 168 162 131
39 28 23 9 14 30 38 34 23 32 37 47 33 4 -11 -0 5 13 17 16 17 30 39 48 44 46 62 64 82 96 86 84 86 72 66 78 67 53 42 94 79 155 170
40 30 25 20 13 15 7 9 5 -3 -8 -9 -17 -19 -10 -0 -6 -14 -6 -8 -12 -4 -2 22 45 50 57 55 79 82 90 100 115 117 107 97 105 111 110 103 105 113 84
40 41 39 33 22 17 -16 -11 -13 -11 -12 -1 -1 -0 -4 -4 -8 -9 -18 -21 -17 -6 -4 -2 4 32 44 89 126 107 77 89 104 104 129 139 133 135 137 120 108 141 155
78 70 72 69 43 -8 -0 6 5 -0 1 -7 -16 -20 -25 -27 -24 -16 -0 20 28 36 41 40 35 51 67 101 127 131 101 108 103 92 112 113 102 142 155 163 132 116 110
94 97 95 88 77 64 50 32 23 24 24 29 32 39 41 39 35 29 18 9 -3 -11 -18 -17 -11 -3 6 34 65 89 66 76 100 119 144 139 134 137 169 160 159 156 136
101 100 105 99 93 83 69 69 73 68 62 53 38 30 23 15 11 9 4 2 -5 2 1 -8 -13 -17 -26 -23 -13 -21 -28 -13 16 87 134 152 146 157 190 185 167 133 164
129 124 119 114 108 99 92 94 77 68 60 49 33 27 29 32 30 27 30 39 41 40 50 50 47 34 41 25 27 33 21 8 -2 7 49 96 141 239 252 261 208 178 128
149 152 139 133 137 136 121 98 81 54 44 35 31 30 32 29 23 39 37 47 56 60 71 79 78 79 84 83 102 115 104 97 88 78 62 68 154 202 223 255 252 238 177
147 146 148 144 132 125 107 74 50 43 41 49 57 61 59 58 63 63 65 58 53 51 50 55 66 73 73 61 71 70 78 84 95 96 84 84 114 178 191 180 143 139 166
151 148 142 134 125 113 83 55 64 74 76 80 81 77 67 62 53 56 65 56 58 50 46 45 49 59 75 79 94 83 87 63 76 68 58 80 97 110 130 114 94 75 73
142 137 129 113 99 98 96 85 74 75 78 73 72 75 70 71 70 64 54 41 43 49 51 61 75 78 77 58 76 68 81 52 65 59 72 57 55 65 58 86 59 52 84
140 126 108 93 77 71 76 80 85 85 88 88 78 67 55 50 56 49 46 42 42 37 42 49 58 59 63 66 36 37 64 61 48 45 62 50 47 55 62 71 60 60 68
141 119 97 87 85 91 91 102 99 98 97 95 81 59 45 51 51 46 52 38 22 27 28 36 67 90 51 21 24 27 19 26 8 66 68 50 44 39 37 43 38 50 106

GFSMW_con_3kmhel_108.txt.gz
Helicity
61 50 48 31 32 63 91 126 132 133 236 215 176 201 192 188 163 134 85 101 133 59 -8 27 58 76 93 74 95 114 123 164 166 228 234 201 153 127 146 130 110 70 53
71 97 99 39 57 50 82 111 109 85 150 163 161 175 200 194 122 88 67 60 67 35 96 76 71 63 96 82 80 89 126 129 143 190 141 151 134 125 180 173 181 173 109
59 59 77 124 98 62 47 37 55 68 118 107 125 139 132 190 165 130 105 82 82 89 95 86 68 49 64 100 77 65 81 124 131 123 180 204 195 119 170 179 213 168 93
46 21 57 65 134 66 87 35 18 36 120 46 90 96 156 166 163 165 144 119 91 79 83 81 64 56 61 60 69 77 83 125 154 208 184 175 259 185 136 146 120 253 49
38 10 20 74 28 -8 45 62 35 23 87 12 74 173 195 161 120 120 106 105 91 88 85 70 60 64 67 54 60 90 86 148 196 234 257 217 205 186 189 163 163 183 45
34 21 6 25 32 45 113 145 124 108 133 197 238 169 170 83 121 125 103 88 92 81 120 119 93 85 80 73 70 88 101 130 186 191 245 251 304 288 275 231 184 173 189
42 31 -5 9 27 13 81 117 144 190 163 165 198 137 104 106 130 137 136 151 167 173 187 172 166 99 84 85 82 91 108 112 151 179 195 204 229 262 274 279 252 221 171
31 35 31 36 62 52 32 37 102 154 171 147 170 150 142 102 108 132 136 145 160 167 176 183 171 191 181 190 167 127 86 105 164 145 163 232 212 235 281 369 328 299 255
-35 52 36 53 56 93 135 98 62 73 92 81 74 105 113 127 147 154 146 159 183 213 179 184 174 192 205 173 220 135 170 146 105 130 115 166 164 292 399 413 485 379 335
-26 -43 -23 17 75 93 115 191 193 175 206 235 212 188 202 227 181 174 176 189 218 213 228 241 237 202 215 177 158 185 138 189 187 118 84 106 179 262 282 247 202 247 218
36 -2 -22 3 34 96 111 114 154 182 147 184 171 164 168 182 217 112 107 127 102 98 185 119 116 144 111 130 160 159 131 170 152 89 130 110 82 74 279 263 212 225 246
36 53 61 37 24 31 83 167 94 120 133 126 190 143 201 282 142 156 156 146 102 112 118 135 151 130 89 62 68 89 73 89 103 70 79 85 145 94 101 80 220 327 283
22 26 39 30 35 30 13 9 31 38 54 70 65 65 86 111 121 100 71 48 45 54 71 38 35 39 52 64 66 69 85 86 71 51 49 45 21 19 32 69 99 58 137
38 24 26 17 8 -1 4 1 10 18 24 30 50 51 52 39 24 23 25 27 34 36 44 41 49 53 57 54 82 85 82 90 95 100 86 85 93 81 70 49 35 40 75
51 47 36 35 27 18 16 12 20 18 15 17 16 13 16 2 -3 5 8 14 23 23 20 28 39 47 51 46 67 71 67 76 78 87 98 102 127 126 124 96 88 95 83
83 72 64 48 43 38 29 30 27 27 23 21 17 18 14 3 6 16 16 16 16 21 14 20 23 29 29 53 70 74 81 103 112 105 101 95 108 130 154 166 174 146 126
83 84 69 57 50 52 54 43 38 32 31 28 27 20 11 8 10 9 12 15 16 20 31 38 40 48 65 93 107 112 89 89 95 105 109 112 113 113 120 155 186 196 202
87 84 80 76 76 75 68 64 55 41 28 24 26 34 40 42 43 42 40 35 30 26 22 13 2 3 -4 -14 -3 26 35 51 67 82 97 119 141 144 168 158 160 164 185
90 89 97 95 92 87 87 74 62 56 55 64 68 66 58 45 40 35 37 36 32 24 18 11 8 -9 -14 -33 -40 -35 -42 -63 -58 -25 40 62 69 143 210 205 191 191 189
125 139 138 129 111 99 85 64 63 59 69 72 68 62 56 45 39 41 44 42 45 52 56 60 50 44 40 40 50 66 47 42 40 28 23 -10 41 94 102 91 106 123 176
151 168 153 135 123 115 92 89 91 87 98 89 72 55 45 36 32 36 36 38 36 43 53 64 68 56 60 58 80 96 88 90 98 100 97 81 85 88 123 156 113 80 95
166 158 155 148 143 130 121 112 102 113 93 67 40 26 20 33 41 51 58 65 72 76 85 84 85 92 94 90 95 106 106 93 99 92 98 97 100 112 113 112 129 162 164
160 152 143 146 137 129 111 96 105 95 73 48 42 51 55 56 52 53 54 68 85 84 80 77 69 62 70 68 60 63 69 55 70 71 63 35 41 50 66 71 86 105 110
152 150 142 132 121 105 99 99 92 70 56 47 52 59 62 65 66 62 60 70 74 79 68 61 61 56 52 51 65 67 70 61 64 73 70 54 31 38 50 61 55 69 78
170 158 140 117 110 111 103 94 77 67 56 55 60 64 67 69 65 66 73 68 51 46 45 49 51 52 57 56 49 47 62 64 59 60 61 66 62 65 61 60 64 64 72
149 138 139 124 112 104 89 75 79 74 70 71 79 78 67 68 61 61 57 42 29 24 28 21 45 69 40 22 29 39 56 58 56 74 74 70 68 60 58 56 56 52 45

GFSMW_con_3kmhel_111.txt.gz
Helicity
94 86 74 83 99 75 58 70 76 72 102 138 136 239 172 143 151 165 169 149 129 96 105 119 108 159 89 69 54 64 69 101 112 129 123 117 129 123 157 119 149 174 152
111 69 65 80 94 125 119 58 61 77 103 123 117 165 166 124 137 174 195 147 122 96 94 87 63 84 82 45 59 88 82 81 122 149 145 149 137 160 161 187 178 131 164
82 53 40 26 43 59 69 105 78 48 62 68 88 80 160 127 125 131 151 144 109 100 122 76 65 60 59 73 52 86 73 72 85 131 159 159 157 141 123 144 175 193 199
66 53 25 28 30 32 40 46 37 32 43 53 56 55 124 98 102 181 189 204 138 129 140 113 101 83 92 92 71 73 74 74 87 121 136 119 185 177 141 143 128 106 154
59 41 35 22 34 37 63 51 86 86 55 60 39 89 86 82 92 161 254 293 227 178 149 127 91 92 95 83 79 75 86 104 114 115 165 159 142 178 246 193 156 171 154
55 76 31 52 45 59 40 55 81 98 111 111 131 94 35 121 130 86 293 263 245 231 228 209 214 175 140 110 89 82 73 88 107 122 140 183 202 191 221 277 180 164 139
15 36 42 60 32 49 50 43 74 66 61 80 55 31 0 -6 75 91 112 98 129 150 192 183 175 170 160 151 159 157 162 99 99 103 135 156 195 195 221 229 189 221 193
16 -6 11 49 56 26 61 11 17 54 88 187 143 81 142 167 130 77 49 73 118 154 199 187 183 187 180 159 171 159 150 164 130 87 108 129 150 216 230 224 202 242 210
71 22 -19 19 43 32 42 75 68 64 105 65 98 109 75 80 78 98 115 139 178 199 225 207 203 196 186 172 200 177 178 192 155 192 206 200 99 146 179 231 245 264 203
54 60 19 9 25 45 40 50 88 115 110 132 141 146 140 148 163 159 185 186 181 195 194 225 191 172 176 190 153 193 165 149 131 179 213 190 171 182 153 125 191 222 284
22 49 40 5 -7 11 50 61 63 59 55 71 92 115 119 85 112 131 169 161 115 116 160 144 155 173 140 101 178 207 189 156 149 143 123 140 182 170 155 105 94 125 295
31 31 24 34 17 15 7 33 35 61 57 73 85 100 108 106 134 178 175 176 142 107 102 90 92 121 98 72 135 131 127 149 116 52 117 89 71 101 91 89 147 -13 135
48 52 55 47 41 29 19 7 -4 44 46 39 49 59 65 57 89 85 97 104 97 71 50 48 63 82 76 71 62 70 58 54 50 61 67 59 67 50 18 23 52 40 35
69 58 47 46 37 29 17 10 7 12 16 22 19 26 21 28 36 22 13 36 45 39 36 45 49 46 64 62 84 78 82 85 78 74 72 74 85 80 60 61 62 41 9
81 75 66 60 63 47 37 26 20 19 16 21 23 17 16 25 29 33 26 26 23 18 19 20 33 40 47 57 65 76 84 85 87 91 110 99 101 89 56 43 73 67 51
93 94 91 83 76 71 61 61 48 41 33 34 37 34 27 24 23 23 23 28 32 39 41 51 54 62 67 82 86 89 87 91 90 93 109 112 112 135 162 140 111 89 101
85 91 83 81 82 85 89 84 80 68 57 47 46 38 33 30 33 29 25 30 35 40 45 52 50 48 52 61 70 81 61 56 66 83 93 105 115 121 131 174 197 179 182
65 77 87 91 97 102 94 87 70 58 51 43 39 41 38 36 36 35 37 40 44 47 45 36 32 32 25 22 22 32 34 45 56 51 62 81 106 119 150 146 146 135 128
68 82 100 118 124 104 105 82 72 59 46 49 53 60 60 52 49 46 44 38 31 20 16 7 2 -6 -13 -23 -24 -24 -27 -38 -37 -52 -32 -14 28 82 126 104 108 133 136
126 139 157 156 126 125 116 96 80 67 56 75 61 54 51 48 43 36 25 22 14 13 18 15 7 -2 11 5 26 27 22 26 36 48 45 45 33 26 -2 16 24 17 42
110 135 146 131 136 158 124 94 76 64 104 80 76 68 62 53 46 41 36 32 29 30 26 26 38 40 45 46 60 50 59 65 74 73 76 84 88 81 72 65 42 45 49
148 138 149 171 172 150 122 101 100 133 103 98 92 86 77 65 51 31 29 29 27 30 33 46 53 62 66 71 73 70 69 81 92 86 95 99 94 94 91 85 72 85 75
148 143 165 177 156 138 127 120 131 120 111 104 101 91 75 55 45 40 33 33 34 39 52 58 56 57 57 57 50 58 74 81 86 106 87 67 83 93 95 68 85 89 36
176 164 170 153 141 134 131 121 125 114 110 108 95 81 64 55 42 48 42 42 46 59 59 53 52 56 54 52 66 77 73 65 77 73 94 73 55 43 40 52 68 58 51
179 161 149 147 148 146 127 123 120 127 120 108 93 80 78 60 62 62 52 52 54 60 60 55 60 60 64 68 52 61 77 79 72 89 95 83 82 79 68 62 50 54 55
179 164 154 155 165 152 140 139 137 131 119 104 99 96 88 78 76 68 66 57 59 53 44 32 54 90 52 45 52 43 41 33 30 85 78 77 83 84 72 58 56 56 45

GFSMW_con_3kmhel_114.txt.gz
Helicity
100 104 150 140 82 49 50 115 114 119 121 144 151 165 155 164 218 174 160 134 172 174 178 177 188 224 170 143 108 115 80 62 68 99 92 91 108 95 142 140 144 165 149
65 105 133 66 42 53 72 82 81 78 113 138 120 123 109 136 141 145 123 161 129 150 186 191 176 156 161 125 117 198 299 123 77 80 101 85 68 123 126 130 139 123 159
56 111 107 77 73 76 79 83 84 91 76 92 104 134 125 134 103 133 122 82 101 166 230 190 155 138 125 119 94 108 106 113 101 99 108 98 91 89 106 97 121 143 183
93 106 80 66 65 66 55 43 33 42 58 56 99 105 114 106 90 82 88 106 86 122 207 122 185 94 110 85 93 81 83 97 75 107 126 111 159 109 115 85 77 121 154
93 108 104 81 51 41 40 34 43 26 25 48 54 89 110 111 77 9 42 27 106 218 575 396 332 186 155 127 119 99 90 90 95 123 126 113 148 154 145 74 108 149 153
83 112 79 34 45 43 68 48 39 14 35 71 122 139 110 70 41 6 49 72 150 392 421 354 272 223 188 140 122 116 89 76 70 99 122 120 153 155 168 143 109 120 115
60 89 80 72 38 32 67 44 31 29 36 1 -21 18 58 58 -0 55 15 66 135 93 260 215 196 190 174 157 135 122 119 122 124 125 92 112 119 131 150 160 170 165 141
45 91 65 41 40 41 34 65 57 64 55 105 71 61 71 22 70 99 44 161 133 123 124 145 172 178 176 166 154 137 127 150 153 164 167 170 182 157 132 150 176 196 195
17 52 88 50 27 31 19 30 51 78 56 102 122 130 93 78 95 76 116 126 51 81 140 148 168 186 195 186 166 113 143 139 176 151 187 166 145 184 201 175 197 105 203
16 26 47 60 50 30 5 21 34 32 44 75 69 73 91 65 36 47 75 60 63 90 119 139 170 198 180 161 162 136 133 111 84 135 148 137 167 164 152 218 178 152 149
36 19 13 28 59 52 43 38 -3 22 39 44 42 44 50 50 44 58 64 52 46 96 104 110 91 110 113 89 98 86 112 128 134 112 139 127 91 108 92 80 90 112 131
43 36 22 17 19 35 51 48 26 30 41 50 35 26 31 46 45 39 63 86 133 127 112 124 130 126 129 139 117 109 110 90 66 113 129 175 193 135 128 144 124 113 105
74 45 55 67 62 60 61 66 64 59 46 40 36 31 27 28 24 26 25 42 46 39 36 50 52 55 60 65 67 78 99 103 87 81 63 70 67 78 48 54 42 21 37
106 95 90 101 110 112 90 64 61 52 44 41 37 33 30 29 27 23 21 30 35 33 33 42 43 37 45 56 46 44 45 62 67 82 80 95 80 64 79 47 40 39 60
122 100 111 105 128 139 112 85 79 70 48 35 41 33 27 25 21 24 23 25 27 29 32 40 46 49 65 61 46 48 46 61 64 66 67 83 96 108 117 83 87 60 51
134 123 124 127 123 142 131 139 99 90 72 68 67 56 43 28 21 18 18 22 29 37 47 54 57 64 66 79 76 70 57 68 73 78 72 63 75 94 125 139 171 129 84
172 174 174 172 171 153 167 141 135 119 110 94 86 75 62 38 30 32 34 38 44 42 40 41 43 47 49 67 70 71 44 56 65 73 78 90 82 82 73 93 114 121 146
135 155 185 207 212 234 222 197 162 131 129 105 101 100 79 56 50 44 39 33 23 22 26 34 35 44 47 51 51 52 45 53 66 70 78 85 93 94 100 85 74 71 74
115 152 190 219 261 248 205 175 154 134 115 93 110 93 76 68 65 65 55 42 42 38 37 38 42 40 37 7 3 35 50 48 42 31 19 21 15 26 55 54 57 65 98
93 155 244 299 299 239 213 150 113 120 96 134 108 93 88 81 71 63 56 50 45 38 40 37 31 -5 3 -21 -2 2 -11 -24 -18 5 13 8 13 27 32 14 -2 18 47
111 174 253 261 218 239 189 133 122 121 135 123 102 94 85 77 62 60 58 52 54 58 51 30 22 27 37 50 65 58 43 32 33 35 34 44 21 45 53 47 42 13 4
167 192 227 229 225 197 160 138 147 162 144 118 93 78 82 84 79 69 65 60 53 48 43 44 46 48 54 62 57 54 58 70 77 58 56 75 48 38 60 83 66 56 64
162 166 210 232 174 161 150 142 155 161 137 117 105 104 91 85 84 86 78 73 62 57 51 54 51 45 40 42 42 53 66 79 81 89 93 100 88 70 74 57 56 69 72
206 192 218 217 185 163 157 164 188 156 141 128 116 108 107 99 96 86 85 77 72 74 71 71 59 48 38 40 47 50 55 54 74 74 108 79 59 57 52 58 61 59 54
232 213 202 186 169 173 161 174 160 160 143 124 125 132 134 127 103 102 100 97 85 89 88 75 70 60 57 60 19 26 47 60 58 70 78 78 80 75 68 76 74 58 46
243 218 193 195 200 184 170 162 154 154 146 152 159 152 137 118 129 118 113 78 52 52 49 42 57 84 53 34 29 28 39 31 27 74 72 68 80 75 82 80 66 59 47

GFSMW_con_3kmhel_117.txt.gz
Helicity
89 78 55 83 119 121 89 78 59 70 89 90 87 117 124 135 120 141 155 110 108 126 164 174 220 242 250 235 213 230 208 141 131 167 100 121 115 103 109 121 83 57 62
78 63 60 99 124 92 77 66 89 86 84 110 115 147 151 127 119 131 141 104 85 87 127 168 185 205 217 223 219 218 200 133 145 142 129 57 89 117 97 105 124 125 119
75 41 82 115 114 85 80 83 100 52 68 75 87 96 108 87 86 67 60 76 112 117 61 113 192 219 211 197 190 182 161 148 132 106 140 152 123 139 157 78 94 110 140
50 65 93 124 79 60 65 88 98 66 43 12 36 55 69 64 53 19 -11 6 70 116 51 49 84 207 239 250 189 161 160 138 132 125 133 151 152 106 103 126 89 73 81
50 61 93 101 66 32 59 66 53 44 16 6 -6 33 70 92 103 98 51 18 5 42 38 88 -23 117 211 136 171 159 156 129 119 88 93 90 101 97 127 134 132 108 92
57 77 80 78 55 40 55 51 44 42 30 27 36 49 30 38 82 72 53 55 70 124 131 94 107 435 616 413 232 199 184 162 135 113 92 83 83 91 83 112 85 77 64
44 54 50 65 56 42 40 47 43 33 24 19 52 42 65 65 47 -7 36 73 48 11 83 138 88 159 143 250 207 158 142 139 129 128 110 118 125 112 77 80 52 56 82
31 19 36 53 48 28 38 44 44 46 47 41 43 63 63 4 73 -7 -2 44 -5 -37 61 116 244 340 94 82 93 126 138 129 121 139 146 164 166 147 191 169 124 50 66
27 -3 10 32 45 36 38 57 41 34 37 45 17 16 7 11 29 -10 4 10 69 35 80 37 29 57 104 120 146 153 169 150 120 128 112 127 163 168 164 165 186 165 102
22 -1 -13 1 22 31 34 23 26 24 23 30 17 29 25 10 4 1 11 10 39 90 60 44 72 87 99 111 131 133 149 170 150 147 132 118 110 106 121 181 232 148 90
43 5 12 18 15 10 8 17 29 30 43 55 64 40 42 26 22 20 21 17 38 47 37 34 49 70 84 91 102 103 116 92 92 71 102 104 107 74 85 47 121 234 109
66 45 26 22 26 27 30 36 43 43 52 54 51 58 53 47 36 22 38 41 44 51 54 72 82 80 102 79 85 101 119 125 126 117 86 104 67 64 36 77 89 70 147
102 84 74 57 66 64 65 63 65 71 75 80 80 73 66 65 54 45 38 42 52 56 58 52 59 67 82 64 53 51 75 88 85 99 97 79 62 56 68 73 81 73 98
185 145 132 107 99 101 102 106 101 101 97 99 102 95 80 66 52 47 47 48 47 47 48 53 49 50 75 56 52 58 85 106 109 114 102 89 80 101 87 67 55 76 69
207 155 128 116 99 126 137 149 137 129 119 105 97 80 71 66 61 57 51 50 54 55 59 63 67 75 79 80 77 64 69 84 94 90 83 83 106 135 125 92 101 100 93
213 168 121 132 179 212 196 176 153 129 125 117 100 87 87 76 66 58 55 61 63 62 61 59 56 57 55 63 69 65 59 76 94 108 107 90 67 65 75 87 99 98 78
139 152 139 160 210 246 242 220 179 155 131 112 100 99 95 82 71 65 66 67 65 57 55 50 51 66 64 84 92 92 69 81 88 100 119 136 120 99 71 68 72 79 92
109 113 147 174 213 241 254 234 200 156 130 113 119 124 113 93 77 71 72 65 55 52 49 55 62 71 82 90 97 89 87 91 96 91 95 91 101 112 77 74 85 84 80
85 75 117 181 238 300 315 267 201 175 151 132 142 130 114 96 82 77 74 65 59 53 50 49 62 76 89 84 79 86 76 72 68 60 57 64 66 67 71 63 66 71 105
127 113 137 206 285 290 303 240 194 176 150 159 144 133 114 94 81 83 87 80 73 62 61 68 67 73 81 93 105 86 51 45 51 51 47 38 57 64 48 39 7 12 31
155 170 194 249 256 278 268 213 178 152 150 165 149 129 106 95 93 96 95 84 77 77 79 69 67 72 75 72 77 68 46 35 32 37 28 31 26 27 25 22 44 37 34
177 181 224 233 235 241 233 198 171 159 167 154 139 116 105 110 113 111 111 111 105 101 98 91 79 74 64 65 56 50 53 53 62 43 52 57 36 51 74 88 73 70 58
164 158 186 215 196 190 179 184 151 171 159 148 119 108 108 109 113 115 111 105 101 108 102 102 94 84 67 64 46 40 41 55 66 78 58 29 42 50 72 62 63 83 97
186 191 208 199 178 158 156 145 163 161 149 123 112 112 121 119 129 123 107 116 110 114 114 105 100 90 63 72 72 66 59 50 82 78 101 57 40 40 42 59 73 91 101
199 214 217 193 160 155 143 141 144 145 129 121 122 130 134 130 114 114 120 116 110 112 106 104 102 81 61 58 33 54 70 73 66 67 89 89 89 79 88 88 88 98 99
208 219 183 170 150 159 143 135 133 134 131 129 139 148 140 125 116 109 110 109 99 87 68 62 62 69 55 38 47 71 70 58 68 99 86 71 71 66 90 91 85 87 74

GFSMW_con_3kmhel_120.txt.gz
Helicity
85 67 55 69 81 93 102 105 79 81 67 64 58 63 103 129 137 145 150 145 141 141 97 101 81 117 143 158 180 242 238 223 232 240 160 165 134 105 32 132 107 98 74
77 72 64 66 80 89 115 104 69 72 82 78 68 66 85 114 126 106 88 75 72 79 73 50 51 106 136 175 190 231 251 234 239 202 180 152 139 124 114 110 145 125 108
75 51 36 42 66 103 121 67 66 73 87 80 85 89 72 81 85 55 44 52 57 63 70 65 35 52 130 138 172 207 274 263 235 207 193 154 126 97 107 130 153 101 152
42 32 32 49 63 118 82 48 79 87 94 88 74 71 70 53 57 60 44 49 67 88 128 111 73 68 46 90 158 169 175 232 212 247 194 222 175 132 94 97 88 115 136
36 25 25 45 64 90 73 60 57 77 66 66 68 42 62 39 42 60 26 35 64 91 128 171 134 114 61 98 41 200 154 197 239 262 269 169 147 127 98 88 97 107 125
41 40 35 39 65 70 52 51 82 89 96 71 45 50 47 13 11 35 9 -11 23 54 66 123 143 198 189 31 26 10 313 340 421 346 212 149 132 108 109 82 98 96 103
30 19 21 32 58 65 62 55 86 61 53 55 49 38 27 -7 23 9 -35 21 26 5 62 73 77 143 248 273 138 269 342 193 144 126 113 135 154 167 157 123 98 78 51
23 12 2 10 32 42 43 63 72 53 35 62 16 17 16 -14 -42 -9 -6 -6 28 41 -1 44 26 79 150 172 183 164 120 137 192 110 100 108 146 162 192 167 127 82 80
11 27 17 9 15 27 30 39 47 53 51 37 35 36 43 30 -13 -4 9 -14 -1 0 -20 30 35 10 26 64 145 162 76 77 100 127 139 151 159 158 150 142 154 125 83
37 47 29 8 10 19 25 17 16 18 29 38 45 47 46 54 49 50 43 36 30 47 31 21 39 54 37 43 46 53 78 102 105 118 130 130 142 142 153 128 145 134 97
46 39 59 47 36 40 36 32 25 23 28 42 49 49 50 54 50 52 53 45 49 45 33 24 39 51 55 74 64 53 86 103 114 114 114 119 128 108 119 107 110 132 110
92 92 91 75 63 47 42 47 46 41 36 46 60 64 61 53 52 51 43 44 52 57 61 46 46 42 34 31 43 56 69 95 115 123 119 133 120 102 129 116 141 110 115
112 146 137 95 67 71 73 72 69 64 58 64 70 67 64 60 49 42 44 50 52 60 67 71 77 84 80 63 62 60 69 72 77 89 96 97 114 116 102 88 112 84 89
197 207 174 157 110 89 99 94 73 83 93 92 87 80 75 70 65 60 58 56 56 62 56 58 65 77 80 77 78 83 102 119 126 130 112 99 101 94 92 97 102 94 78
138 197 186 149 127 100 93 92 91 101 111 106 99 88 91 89 84 80 74 73 78 74 71 72 68 66 59 58 56 50 62 82 101 112 115 111 123 122 109 90 79 91 84
100 148 196 168 128 111 120 135 134 121 137 121 107 106 102 100 92 86 82 86 87 86 84 79 72 69 63 72 80 74 71 70 73 85 100 109 123 120 100 73 85 87 63
66 126 183 167 118 113 155 200 197 171 168 147 127 115 112 105 91 85 81 79 80 83 81 74 69 68 50 55 63 61 44 60 73 79 88 101 116 126 116 71 74 81 68
33 78 120 148 157 159 196 230 244 233 200 171 153 147 134 106 99 96 94 90 91 87 82 79 79 80 79 95 89 88 69 63 67 75 85 89 97 103 104 79 76 66 68
88 106 102 114 171 208 238 264 272 242 203 170 160 153 136 124 114 102 98 92 88 83 80 78 82 91 92 109 117 122 91 76 80 90 90 87 85 96 121 108 80 69 76
115 101 110 123 145 185 284 306 265 240 189 168 152 152 140 130 115 107 97 89 89 91 97 101 102 97 106 117 124 123 90 91 91 76 73 76 65 62 66 67 66 57 55
100 110 119 122 153 240 295 272 243 184 155 172 174 159 140 121 113 108 106 104 110 109 106 107 108 108 114 116 115 101 87 72 60 52 40 40 35 42 53 73 87 63 60
126 139 149 153 180 231 264 229 183 153 181 182 164 146 124 113 118 119 121 121 114 105 106 106 117 126 120 105 95 78 66 54 61 49 57 60 22 32 47 70 73 82 89
141 168 176 189 185 194 208 201 146 185 187 172 153 127 118 120 129 138 132 129 124 118 109 113 114 112 108 112 64 51 53 46 66 85 62 41 44 43 70 71 62 72 83
127 176 220 209 194 177 170 143 169 180 178 155 125 113 124 128 137 134 124 126 122 118 118 122 118 109 105 89 80 80 67 51 79 78 94 64 65 72 72 76 86 97 94
135 187 235 215 183 180 160 161 171 188 166 136 118 118 127 135 139 136 133 127 116 119 128 125 121 105 92 60 40 49 73 84 74 64 101 97 102 107 107 103 100 113 115
134 165 193 191 175 183 169 163 168 166 154 134 124 124 136 146 145 138 131 113 99 102 94 96 105 107 51 44 37 51 57 54 59 103 111 101 114 109 113 101 99 94 81